<?xml version="1.0" encoding="UTF-8" standalone="no" ?>
<gpx xmlns="http://www.topografix.com/GPX/1/1" xmlns:xsi="http://www.w3.org/2001/XMLSchema-instance" xsi:schemaLocation="http://www.topografix.com/GPX/1/1 http://www.topografix.com/GPX/1/1/gpx.xsd" version="1.1" creator="VisuGPX - https://www.visugpx.com">
  <metadata>
    <name>Carrières sous Poissy - Parc du Peuple de l'Herbe et Ile de La Dérivation</name>
  </metadata>
  <trk>
    <name><![CDATA[Carrières sous Poissy - Parc du Peuple de l'Herbe et Ile de La Dérivation_1]]></name>
    <trkseg>
      <trkpt lat="48.94081" lon="2.01115">
        <ele>29.6</ele>
        <time>2022-04-19T07:47:22Z</time>
      </trkpt>
      <trkpt lat="48.9408" lon="2.01107">
        <ele>26.3</ele>
        <time>2022-04-19T07:47:31Z</time>
      </trkpt>
      <trkpt lat="48.94074" lon="2.01106">
        <ele>25.2</ele>
        <time>2022-04-19T07:47:35Z</time>
      </trkpt>
      <trkpt lat="48.94068" lon="2.01109">
        <ele>24.9</ele>
        <time>2022-04-19T07:47:40Z</time>
      </trkpt>
      <trkpt lat="48.94063" lon="2.01113">
        <ele>25.4</ele>
        <time>2022-04-19T07:47:57Z</time>
      </trkpt>
      <trkpt lat="48.94059" lon="2.01117">
        <ele>25.5</ele>
        <time>2022-04-19T07:48:00Z</time>
      </trkpt>
      <trkpt lat="48.94056" lon="2.01122">
        <ele>23.8</ele>
        <time>2022-04-19T07:48:04Z</time>
      </trkpt>
      <trkpt lat="48.94052" lon="2.01128">
        <ele>22</ele>
        <time>2022-04-19T07:48:07Z</time>
      </trkpt>
      <trkpt lat="48.94047" lon="2.01131">
        <ele>20.1</ele>
        <time>2022-04-19T07:48:12Z</time>
      </trkpt>
      <trkpt lat="48.94041" lon="2.01134">
        <ele>20.3</ele>
        <time>2022-04-19T07:48:16Z</time>
      </trkpt>
      <trkpt lat="48.94036" lon="2.01138">
        <ele>18</ele>
        <time>2022-04-19T07:48:20Z</time>
      </trkpt>
      <trkpt lat="48.94032" lon="2.01143">
        <ele>17.8</ele>
        <time>2022-04-19T07:48:24Z</time>
      </trkpt>
      <trkpt lat="48.94027" lon="2.01148">
        <ele>21.4</ele>
        <time>2022-04-19T07:48:30Z</time>
      </trkpt>
      <trkpt lat="48.94023" lon="2.0115">
        <ele>21.4</ele>
        <time>2022-04-19T07:48:33Z</time>
      </trkpt>
      <trkpt lat="48.94008" lon="2.01161">
        <ele>23</ele>
        <time>2022-04-19T07:48:46Z</time>
      </trkpt>
      <trkpt lat="48.94004" lon="2.01167">
        <ele>21.9</ele>
        <time>2022-04-19T07:48:50Z</time>
      </trkpt>
      <trkpt lat="48.93999" lon="2.01172">
        <ele>21.2</ele>
        <time>2022-04-19T07:48:54Z</time>
      </trkpt>
      <trkpt lat="48.93996" lon="2.01176">
        <ele>23.5</ele>
        <time>2022-04-19T07:48:57Z</time>
      </trkpt>
      <trkpt lat="48.93991" lon="2.01181">
        <ele>23.4</ele>
        <time>2022-04-19T07:49:01Z</time>
      </trkpt>
      <trkpt lat="48.93986" lon="2.01185">
        <ele>21.3</ele>
        <time>2022-04-19T07:49:05Z</time>
      </trkpt>
      <trkpt lat="48.93981" lon="2.01189">
        <ele>19.7</ele>
        <time>2022-04-19T07:49:10Z</time>
      </trkpt>
      <trkpt lat="48.93977" lon="2.01193">
        <ele>21.9</ele>
        <time>2022-04-19T07:49:14Z</time>
      </trkpt>
      <trkpt lat="48.93973" lon="2.01198">
        <ele>25.4</ele>
        <time>2022-04-19T07:49:19Z</time>
      </trkpt>
      <trkpt lat="48.93969" lon="2.01204">
        <ele>24.1</ele>
        <time>2022-04-19T07:49:24Z</time>
      </trkpt>
      <trkpt lat="48.93964" lon="2.01209">
        <ele>22</ele>
        <time>2022-04-19T07:49:28Z</time>
      </trkpt>
      <trkpt lat="48.93959" lon="2.01211">
        <ele>20</ele>
        <time>2022-04-19T07:49:32Z</time>
      </trkpt>
      <trkpt lat="48.93954" lon="2.01213">
        <ele>19.5</ele>
        <time>2022-04-19T07:49:36Z</time>
      </trkpt>
      <trkpt lat="48.9395" lon="2.01217">
        <ele>19</ele>
        <time>2022-04-19T07:49:40Z</time>
      </trkpt>
      <trkpt lat="48.93946" lon="2.01222">
        <ele>19.3</ele>
        <time>2022-04-19T07:49:43Z</time>
      </trkpt>
      <trkpt lat="48.93942" lon="2.01227">
        <ele>17.8</ele>
        <time>2022-04-19T07:49:49Z</time>
      </trkpt>
      <trkpt lat="48.93938" lon="2.01231">
        <ele>17.1</ele>
        <time>2022-04-19T07:49:53Z</time>
      </trkpt>
      <trkpt lat="48.93934" lon="2.01236">
        <ele>15.3</ele>
        <time>2022-04-19T07:49:57Z</time>
      </trkpt>
      <trkpt lat="48.93931" lon="2.01241">
        <ele>13.9</ele>
        <time>2022-04-19T07:50:01Z</time>
      </trkpt>
      <trkpt lat="48.93926" lon="2.01244">
        <ele>14</ele>
        <time>2022-04-19T07:50:06Z</time>
      </trkpt>
      <trkpt lat="48.93921" lon="2.01247">
        <ele>16.8</ele>
        <time>2022-04-19T07:50:10Z</time>
      </trkpt>
      <trkpt lat="48.93917" lon="2.01251">
        <ele>17.3</ele>
        <time>2022-04-19T07:50:14Z</time>
      </trkpt>
      <trkpt lat="48.93912" lon="2.01255">
        <ele>17.8</ele>
        <time>2022-04-19T07:50:18Z</time>
      </trkpt>
      <trkpt lat="48.93908" lon="2.01258">
        <ele>17.6</ele>
        <time>2022-04-19T07:50:22Z</time>
      </trkpt>
      <trkpt lat="48.93903" lon="2.01261">
        <ele>16.7</ele>
        <time>2022-04-19T07:50:26Z</time>
      </trkpt>
      <trkpt lat="48.93898" lon="2.01264">
        <ele>15.6</ele>
        <time>2022-04-19T07:50:30Z</time>
      </trkpt>
      <trkpt lat="48.93893" lon="2.01267">
        <ele>15.9</ele>
        <time>2022-04-19T07:50:35Z</time>
      </trkpt>
      <trkpt lat="48.93889" lon="2.01264">
        <ele>16.4</ele>
        <time>2022-04-19T07:50:39Z</time>
      </trkpt>
      <trkpt lat="48.93883" lon="2.0126">
        <ele>17.4</ele>
        <time>2022-04-19T07:50:43Z</time>
      </trkpt>
      <trkpt lat="48.93879" lon="2.01258">
        <ele>17.7</ele>
        <time>2022-04-19T07:50:47Z</time>
      </trkpt>
      <trkpt lat="48.93874" lon="2.01258">
        <ele>17.8</ele>
        <time>2022-04-19T07:50:51Z</time>
      </trkpt>
      <trkpt lat="48.93869" lon="2.01257">
        <ele>18.2</ele>
        <time>2022-04-19T07:50:55Z</time>
      </trkpt>
      <trkpt lat="48.93863" lon="2.01254">
        <ele>19.5</ele>
        <time>2022-04-19T07:50:59Z</time>
      </trkpt>
      <trkpt lat="48.93859" lon="2.01253">
        <ele>19.4</ele>
        <time>2022-04-19T07:51:02Z</time>
      </trkpt>
      <trkpt lat="48.93854" lon="2.01252">
        <ele>19.6</ele>
        <time>2022-04-19T07:51:06Z</time>
      </trkpt>
      <trkpt lat="48.93849" lon="2.0125">
        <ele>19.4</ele>
        <time>2022-04-19T07:51:09Z</time>
      </trkpt>
      <trkpt lat="48.93845" lon="2.01249">
        <ele>18.9</ele>
        <time>2022-04-19T07:51:13Z</time>
      </trkpt>
      <trkpt lat="48.93841" lon="2.01242">
        <ele>19.7</ele>
        <time>2022-04-19T07:51:17Z</time>
      </trkpt>
      <trkpt lat="48.93842" lon="2.01233">
        <ele>22.1</ele>
        <time>2022-04-19T07:51:21Z</time>
      </trkpt>
      <trkpt lat="48.93842" lon="2.01225">
        <ele>22.9</ele>
        <time>2022-04-19T07:51:25Z</time>
      </trkpt>
      <trkpt lat="48.93842" lon="2.01217">
        <ele>23.6</ele>
        <time>2022-04-19T07:51:29Z</time>
      </trkpt>
      <trkpt lat="48.93841" lon="2.01209">
        <ele>24.2</ele>
        <time>2022-04-19T07:51:33Z</time>
      </trkpt>
      <trkpt lat="48.93839" lon="2.01203">
        <ele>24.4</ele>
        <time>2022-04-19T07:51:37Z</time>
      </trkpt>
      <trkpt lat="48.93837" lon="2.01196">
        <ele>24.7</ele>
        <time>2022-04-19T07:51:40Z</time>
      </trkpt>
      <trkpt lat="48.93836" lon="2.01188">
        <ele>25.6</ele>
        <time>2022-04-19T07:51:45Z</time>
      </trkpt>
      <trkpt lat="48.93834" lon="2.0118">
        <ele>26</ele>
        <time>2022-04-19T07:51:49Z</time>
      </trkpt>
      <trkpt lat="48.93833" lon="2.01173">
        <ele>26.5</ele>
        <time>2022-04-19T07:51:52Z</time>
      </trkpt>
      <trkpt lat="48.93831" lon="2.01165">
        <ele>26.5</ele>
        <time>2022-04-19T07:51:56Z</time>
      </trkpt>
      <trkpt lat="48.93829" lon="2.01157">
        <ele>26.4</ele>
        <time>2022-04-19T07:52:00Z</time>
      </trkpt>
      <trkpt lat="48.93827" lon="2.01149">
        <ele>25.8</ele>
        <time>2022-04-19T07:52:04Z</time>
      </trkpt>
      <trkpt lat="48.93824" lon="2.01142">
        <ele>25.6</ele>
        <time>2022-04-19T07:52:08Z</time>
      </trkpt>
      <trkpt lat="48.93822" lon="2.01134">
        <ele>25.4</ele>
        <time>2022-04-19T07:52:13Z</time>
      </trkpt>
      <trkpt lat="48.9382" lon="2.01126">
        <ele>23.1</ele>
        <time>2022-04-19T07:52:17Z</time>
      </trkpt>
      <trkpt lat="48.93818" lon="2.01118">
        <ele>23.9</ele>
        <time>2022-04-19T07:52:22Z</time>
      </trkpt>
      <trkpt lat="48.93817" lon="2.0111">
        <ele>25.7</ele>
        <time>2022-04-19T07:52:26Z</time>
      </trkpt>
      <trkpt lat="48.93815" lon="2.01103">
        <ele>24.8</ele>
        <time>2022-04-19T07:52:29Z</time>
      </trkpt>
      <trkpt lat="48.93814" lon="2.01096">
        <ele>22.8</ele>
        <time>2022-04-19T07:52:33Z</time>
      </trkpt>
      <trkpt lat="48.93812" lon="2.01088">
        <ele>23.9</ele>
        <time>2022-04-19T07:52:37Z</time>
      </trkpt>
      <trkpt lat="48.9381" lon="2.01081">
        <ele>24.2</ele>
        <time>2022-04-19T07:52:41Z</time>
      </trkpt>
      <trkpt lat="48.93808" lon="2.01073">
        <ele>24.3</ele>
        <time>2022-04-19T07:52:46Z</time>
      </trkpt>
      <trkpt lat="48.93806" lon="2.01064">
        <ele>23.8</ele>
        <time>2022-04-19T07:52:50Z</time>
      </trkpt>
      <trkpt lat="48.93805" lon="2.01057">
        <ele>24.7</ele>
        <time>2022-04-19T07:52:54Z</time>
      </trkpt>
      <trkpt lat="48.93803" lon="2.01051">
        <ele>23.9</ele>
        <time>2022-04-19T07:52:58Z</time>
      </trkpt>
      <trkpt lat="48.93801" lon="2.01043">
        <ele>24.7</ele>
        <time>2022-04-19T07:53:01Z</time>
      </trkpt>
      <trkpt lat="48.938" lon="2.01034">
        <ele>25.3</ele>
        <time>2022-04-19T07:53:05Z</time>
      </trkpt>
      <trkpt lat="48.93798" lon="2.01026">
        <ele>25.6</ele>
        <time>2022-04-19T07:53:09Z</time>
      </trkpt>
      <trkpt lat="48.93796" lon="2.01019">
        <ele>25.9</ele>
        <time>2022-04-19T07:53:13Z</time>
      </trkpt>
      <trkpt lat="48.93795" lon="2.01012">
        <ele>24.1</ele>
        <time>2022-04-19T07:53:17Z</time>
      </trkpt>
      <trkpt lat="48.93793" lon="2.01005">
        <ele>25.5</ele>
        <time>2022-04-19T07:53:20Z</time>
      </trkpt>
      <trkpt lat="48.9379" lon="2.00997">
        <ele>24.9</ele>
        <time>2022-04-19T07:53:25Z</time>
      </trkpt>
      <trkpt lat="48.93788" lon="2.0099">
        <ele>24.6</ele>
        <time>2022-04-19T07:53:29Z</time>
      </trkpt>
      <trkpt lat="48.93786" lon="2.00983">
        <ele>24</ele>
        <time>2022-04-19T07:53:32Z</time>
      </trkpt>
      <trkpt lat="48.93784" lon="2.00976">
        <ele>23.6</ele>
        <time>2022-04-19T07:53:36Z</time>
      </trkpt>
      <trkpt lat="48.93781" lon="2.00969">
        <ele>21.3</ele>
        <time>2022-04-19T07:53:41Z</time>
      </trkpt>
      <trkpt lat="48.93778" lon="2.00961">
        <ele>21.4</ele>
        <time>2022-04-19T07:53:45Z</time>
      </trkpt>
      <trkpt lat="48.93776" lon="2.00953">
        <ele>22.2</ele>
        <time>2022-04-19T07:53:49Z</time>
      </trkpt>
      <trkpt lat="48.93774" lon="2.00946">
        <ele>22.4</ele>
        <time>2022-04-19T07:53:53Z</time>
      </trkpt>
      <trkpt lat="48.93772" lon="2.0094">
        <ele>22.4</ele>
        <time>2022-04-19T07:53:56Z</time>
      </trkpt>
      <trkpt lat="48.9377" lon="2.00932">
        <ele>23</ele>
        <time>2022-04-19T07:54:01Z</time>
      </trkpt>
      <trkpt lat="48.93769" lon="2.00925">
        <ele>23.3</ele>
        <time>2022-04-19T07:54:05Z</time>
      </trkpt>
      <trkpt lat="48.93767" lon="2.00918">
        <ele>22.6</ele>
        <time>2022-04-19T07:54:09Z</time>
      </trkpt>
      <trkpt lat="48.93765" lon="2.00911">
        <ele>22.7</ele>
        <time>2022-04-19T07:54:12Z</time>
      </trkpt>
      <trkpt lat="48.93764" lon="2.00903">
        <ele>24.7</ele>
        <time>2022-04-19T07:54:16Z</time>
      </trkpt>
      <trkpt lat="48.93763" lon="2.00896">
        <ele>23.6</ele>
        <time>2022-04-19T07:54:20Z</time>
      </trkpt>
      <trkpt lat="48.93762" lon="2.00888">
        <ele>23.1</ele>
        <time>2022-04-19T07:54:24Z</time>
      </trkpt>
      <trkpt lat="48.93759" lon="2.00882">
        <ele>22.9</ele>
        <time>2022-04-19T07:54:28Z</time>
      </trkpt>
      <trkpt lat="48.93756" lon="2.00876">
        <ele>22.6</ele>
        <time>2022-04-19T07:54:31Z</time>
      </trkpt>
      <trkpt lat="48.93754" lon="2.00869">
        <ele>22.8</ele>
        <time>2022-04-19T07:54:35Z</time>
      </trkpt>
      <trkpt lat="48.93753" lon="2.00862">
        <ele>22.8</ele>
        <time>2022-04-19T07:54:38Z</time>
      </trkpt>
      <trkpt lat="48.93751" lon="2.00855">
        <ele>21.4</ele>
        <time>2022-04-19T07:54:42Z</time>
      </trkpt>
      <trkpt lat="48.9375" lon="2.00848">
        <ele>21.3</ele>
        <time>2022-04-19T07:54:46Z</time>
      </trkpt>
      <trkpt lat="48.93748" lon="2.00841">
        <ele>19.8</ele>
        <time>2022-04-19T07:54:50Z</time>
      </trkpt>
      <trkpt lat="48.93746" lon="2.00835">
        <ele>21.2</ele>
        <time>2022-04-19T07:54:53Z</time>
      </trkpt>
      <trkpt lat="48.93744" lon="2.00828">
        <ele>20.6</ele>
        <time>2022-04-19T07:54:57Z</time>
      </trkpt>
      <trkpt lat="48.93741" lon="2.00822">
        <ele>19.2</ele>
        <time>2022-04-19T07:55:00Z</time>
      </trkpt>
      <trkpt lat="48.93739" lon="2.00816">
        <ele>17.6</ele>
        <time>2022-04-19T07:55:04Z</time>
      </trkpt>
      <trkpt lat="48.93737" lon="2.00809">
        <ele>18.2</ele>
        <time>2022-04-19T07:55:07Z</time>
      </trkpt>
      <trkpt lat="48.93735" lon="2.00802">
        <ele>19.8</ele>
        <time>2022-04-19T07:55:11Z</time>
      </trkpt>
      <trkpt lat="48.93733" lon="2.00795">
        <ele>20.2</ele>
        <time>2022-04-19T07:55:15Z</time>
      </trkpt>
      <trkpt lat="48.93731" lon="2.00788">
        <ele>21.4</ele>
        <time>2022-04-19T07:55:19Z</time>
      </trkpt>
      <trkpt lat="48.93728" lon="2.0078">
        <ele>19.4</ele>
        <time>2022-04-19T07:55:23Z</time>
      </trkpt>
      <trkpt lat="48.93727" lon="2.00773">
        <ele>20.1</ele>
        <time>2022-04-19T07:55:27Z</time>
      </trkpt>
      <trkpt lat="48.93724" lon="2.00765">
        <ele>19.3</ele>
        <time>2022-04-19T07:55:31Z</time>
      </trkpt>
      <trkpt lat="48.93721" lon="2.00759">
        <ele>17.7</ele>
        <time>2022-04-19T07:55:35Z</time>
      </trkpt>
      <trkpt lat="48.93717" lon="2.00755">
        <ele>17.8</ele>
        <time>2022-04-19T07:55:39Z</time>
      </trkpt>
      <trkpt lat="48.93713" lon="2.00751">
        <ele>16.4</ele>
        <time>2022-04-19T07:55:42Z</time>
      </trkpt>
      <trkpt lat="48.93709" lon="2.00748">
        <ele>16.5</ele>
        <time>2022-04-19T07:55:46Z</time>
      </trkpt>
      <trkpt lat="48.93704" lon="2.00744">
        <ele>18.1</ele>
        <time>2022-04-19T07:55:50Z</time>
      </trkpt>
      <trkpt lat="48.93699" lon="2.00743">
        <ele>19.9</ele>
        <time>2022-04-19T07:55:54Z</time>
      </trkpt>
      <trkpt lat="48.93694" lon="2.00748">
        <ele>19.3</ele>
        <time>2022-04-19T07:55:58Z</time>
      </trkpt>
      <trkpt lat="48.9369" lon="2.00752">
        <ele>18.5</ele>
        <time>2022-04-19T07:56:01Z</time>
      </trkpt>
      <trkpt lat="48.93686" lon="2.00756">
        <ele>19.2</ele>
        <time>2022-04-19T07:56:04Z</time>
      </trkpt>
      <trkpt lat="48.93682" lon="2.0076">
        <ele>18.6</ele>
        <time>2022-04-19T07:56:08Z</time>
      </trkpt>
      <trkpt lat="48.93678" lon="2.00764">
        <ele>19.6</ele>
        <time>2022-04-19T07:56:11Z</time>
      </trkpt>
      <trkpt lat="48.93674" lon="2.00769">
        <ele>18.7</ele>
        <time>2022-04-19T07:56:15Z</time>
      </trkpt>
      <trkpt lat="48.9367" lon="2.00775">
        <ele>17.1</ele>
        <time>2022-04-19T07:56:19Z</time>
      </trkpt>
      <trkpt lat="48.93665" lon="2.00778">
        <ele>16.7</ele>
        <time>2022-04-19T07:56:22Z</time>
      </trkpt>
      <trkpt lat="48.93661" lon="2.00782">
        <ele>17.2</ele>
        <time>2022-04-19T07:56:26Z</time>
      </trkpt>
      <trkpt lat="48.93656" lon="2.00786">
        <ele>17</ele>
        <time>2022-04-19T07:56:30Z</time>
      </trkpt>
      <trkpt lat="48.93653" lon="2.00791">
        <ele>15.9</ele>
        <time>2022-04-19T07:56:34Z</time>
      </trkpt>
      <trkpt lat="48.93648" lon="2.00796">
        <ele>16.5</ele>
        <time>2022-04-19T07:56:39Z</time>
      </trkpt>
      <trkpt lat="48.93644" lon="2.008">
        <ele>16</ele>
        <time>2022-04-19T07:56:43Z</time>
      </trkpt>
      <trkpt lat="48.93639" lon="2.00803">
        <ele>16.1</ele>
        <time>2022-04-19T07:56:46Z</time>
      </trkpt>
      <trkpt lat="48.93635" lon="2.00806">
        <ele>16.3</ele>
        <time>2022-04-19T07:56:50Z</time>
      </trkpt>
      <trkpt lat="48.9363" lon="2.0081">
        <ele>17.3</ele>
        <time>2022-04-19T07:56:53Z</time>
      </trkpt>
      <trkpt lat="48.93626" lon="2.00814">
        <ele>16.8</ele>
        <time>2022-04-19T07:56:57Z</time>
      </trkpt>
      <trkpt lat="48.93621" lon="2.00817">
        <ele>16.1</ele>
        <time>2022-04-19T07:57:01Z</time>
      </trkpt>
      <trkpt lat="48.93616" lon="2.0082">
        <ele>15.8</ele>
        <time>2022-04-19T07:57:05Z</time>
      </trkpt>
      <trkpt lat="48.93612" lon="2.00824">
        <ele>16.9</ele>
        <time>2022-04-19T07:57:08Z</time>
      </trkpt>
      <trkpt lat="48.93607" lon="2.00828">
        <ele>16</ele>
        <time>2022-04-19T07:57:12Z</time>
      </trkpt>
      <trkpt lat="48.93602" lon="2.00833">
        <ele>17.3</ele>
        <time>2022-04-19T07:57:16Z</time>
      </trkpt>
      <trkpt lat="48.93597" lon="2.00838">
        <ele>18.6</ele>
        <time>2022-04-19T07:57:19Z</time>
      </trkpt>
      <trkpt lat="48.93593" lon="2.00844">
        <ele>18.4</ele>
        <time>2022-04-19T07:57:23Z</time>
      </trkpt>
      <trkpt lat="48.9359" lon="2.00849">
        <ele>17.5</ele>
        <time>2022-04-19T07:57:27Z</time>
      </trkpt>
      <trkpt lat="48.93585" lon="2.00852">
        <ele>16.4</ele>
        <time>2022-04-19T07:57:31Z</time>
      </trkpt>
      <trkpt lat="48.93581" lon="2.00857">
        <ele>17.5</ele>
        <time>2022-04-19T07:57:35Z</time>
      </trkpt>
      <trkpt lat="48.93577" lon="2.00863">
        <ele>17.9</ele>
        <time>2022-04-19T07:57:39Z</time>
      </trkpt>
      <trkpt lat="48.93573" lon="2.00868">
        <ele>18.1</ele>
        <time>2022-04-19T07:57:43Z</time>
      </trkpt>
      <trkpt lat="48.9357" lon="2.00872">
        <ele>18.5</ele>
        <time>2022-04-19T07:57:46Z</time>
      </trkpt>
      <trkpt lat="48.93566" lon="2.00877">
        <ele>18.2</ele>
        <time>2022-04-19T07:57:50Z</time>
      </trkpt>
      <trkpt lat="48.93561" lon="2.00881">
        <ele>18.1</ele>
        <time>2022-04-19T07:57:53Z</time>
      </trkpt>
      <trkpt lat="48.93556" lon="2.00885">
        <ele>19.7</ele>
        <time>2022-04-19T07:57:57Z</time>
      </trkpt>
      <trkpt lat="48.93552" lon="2.0089">
        <ele>17.5</ele>
        <time>2022-04-19T07:58:01Z</time>
      </trkpt>
      <trkpt lat="48.93548" lon="2.00895">
        <ele>16.9</ele>
        <time>2022-04-19T07:58:05Z</time>
      </trkpt>
      <trkpt lat="48.93544" lon="2.00901">
        <ele>18.9</ele>
        <time>2022-04-19T07:58:09Z</time>
      </trkpt>
      <trkpt lat="48.9354" lon="2.00907">
        <ele>19.9</ele>
        <time>2022-04-19T07:58:14Z</time>
      </trkpt>
      <trkpt lat="48.93537" lon="2.00913">
        <ele>21.3</ele>
        <time>2022-04-19T07:58:17Z</time>
      </trkpt>
      <trkpt lat="48.93533" lon="2.00917">
        <ele>19.5</ele>
        <time>2022-04-19T07:58:20Z</time>
      </trkpt>
      <trkpt lat="48.93528" lon="2.0092">
        <ele>17.9</ele>
        <time>2022-04-19T07:58:24Z</time>
      </trkpt>
      <trkpt lat="48.93524" lon="2.00925">
        <ele>17.7</ele>
        <time>2022-04-19T07:58:28Z</time>
      </trkpt>
      <trkpt lat="48.9352" lon="2.0093">
        <ele>17.9</ele>
        <time>2022-04-19T07:58:34Z</time>
      </trkpt>
      <trkpt lat="48.93516" lon="2.00936">
        <ele>20</ele>
        <time>2022-04-19T07:58:38Z</time>
      </trkpt>
      <trkpt lat="48.93511" lon="2.00942">
        <ele>19.2</ele>
        <time>2022-04-19T07:58:42Z</time>
      </trkpt>
      <trkpt lat="48.93507" lon="2.00947">
        <ele>18.8</ele>
        <time>2022-04-19T07:58:45Z</time>
      </trkpt>
      <trkpt lat="48.93503" lon="2.00952">
        <ele>17.6</ele>
        <time>2022-04-19T07:58:49Z</time>
      </trkpt>
      <trkpt lat="48.93499" lon="2.00958">
        <ele>18.3</ele>
        <time>2022-04-19T07:58:53Z</time>
      </trkpt>
      <trkpt lat="48.93496" lon="2.00964">
        <ele>18.6</ele>
        <time>2022-04-19T07:58:57Z</time>
      </trkpt>
      <trkpt lat="48.93492" lon="2.0097">
        <ele>19.2</ele>
        <time>2022-04-19T07:59:01Z</time>
      </trkpt>
      <trkpt lat="48.93488" lon="2.00976">
        <ele>16.2</ele>
        <time>2022-04-19T07:59:04Z</time>
      </trkpt>
      <trkpt lat="48.93484" lon="2.00982">
        <ele>15.4</ele>
        <time>2022-04-19T07:59:08Z</time>
      </trkpt>
      <trkpt lat="48.93482" lon="2.0099">
        <ele>14.5</ele>
        <time>2022-04-19T07:59:12Z</time>
      </trkpt>
      <trkpt lat="48.93482" lon="2.00998">
        <ele>13.9</ele>
        <time>2022-04-19T07:59:16Z</time>
      </trkpt>
      <trkpt lat="48.9348" lon="2.01005">
        <ele>12.5</ele>
        <time>2022-04-19T07:59:20Z</time>
      </trkpt>
      <trkpt lat="48.93475" lon="2.01007">
        <ele>13.4</ele>
        <time>2022-04-19T07:59:24Z</time>
      </trkpt>
      <trkpt lat="48.9347" lon="2.01011">
        <ele>11.8</ele>
        <time>2022-04-19T07:59:27Z</time>
      </trkpt>
      <trkpt lat="48.93466" lon="2.01016">
        <ele>11.2</ele>
        <time>2022-04-19T07:59:31Z</time>
      </trkpt>
      <trkpt lat="48.93461" lon="2.0102">
        <ele>10.8</ele>
        <time>2022-04-19T07:59:35Z</time>
      </trkpt>
      <trkpt lat="48.93456" lon="2.01024">
        <ele>11.1</ele>
        <time>2022-04-19T07:59:39Z</time>
      </trkpt>
      <trkpt lat="48.93451" lon="2.01029">
        <ele>10.5</ele>
        <time>2022-04-19T07:59:44Z</time>
      </trkpt>
      <trkpt lat="48.93446" lon="2.01032">
        <ele>10.9</ele>
        <time>2022-04-19T07:59:48Z</time>
      </trkpt>
      <trkpt lat="48.93441" lon="2.01034">
        <ele>11</ele>
        <time>2022-04-19T07:59:52Z</time>
      </trkpt>
      <trkpt lat="48.93438" lon="2.01039">
        <ele>10.5</ele>
        <time>2022-04-19T07:59:55Z</time>
      </trkpt>
      <trkpt lat="48.93435" lon="2.01044">
        <ele>10.6</ele>
        <time>2022-04-19T07:59:59Z</time>
      </trkpt>
      <trkpt lat="48.9343" lon="2.0105">
        <ele>9.9</ele>
        <time>2022-04-19T08:00:04Z</time>
      </trkpt>
      <trkpt lat="48.93426" lon="2.01055">
        <ele>10.1</ele>
        <time>2022-04-19T08:00:07Z</time>
      </trkpt>
      <trkpt lat="48.93422" lon="2.01059">
        <ele>9.8</ele>
        <time>2022-04-19T08:00:11Z</time>
      </trkpt>
      <trkpt lat="48.93418" lon="2.01063">
        <ele>10.5</ele>
        <time>2022-04-19T08:00:14Z</time>
      </trkpt>
      <trkpt lat="48.93413" lon="2.01067">
        <ele>10</ele>
        <time>2022-04-19T08:00:18Z</time>
      </trkpt>
      <trkpt lat="48.93408" lon="2.01072">
        <ele>11.7</ele>
        <time>2022-04-19T08:00:23Z</time>
      </trkpt>
      <trkpt lat="48.93403" lon="2.01076">
        <ele>11.7</ele>
        <time>2022-04-19T08:00:26Z</time>
      </trkpt>
      <trkpt lat="48.934" lon="2.01081">
        <ele>11.5</ele>
        <time>2022-04-19T08:00:30Z</time>
      </trkpt>
      <trkpt lat="48.93396" lon="2.01087">
        <ele>10.6</ele>
        <time>2022-04-19T08:00:33Z</time>
      </trkpt>
      <trkpt lat="48.93392" lon="2.01093">
        <ele>10.2</ele>
        <time>2022-04-19T08:00:37Z</time>
      </trkpt>
      <trkpt lat="48.93388" lon="2.01097">
        <ele>10.6</ele>
        <time>2022-04-19T08:00:40Z</time>
      </trkpt>
      <trkpt lat="48.93385" lon="2.01103">
        <ele>12</ele>
        <time>2022-04-19T08:00:43Z</time>
      </trkpt>
      <trkpt lat="48.93383" lon="2.01109">
        <ele>12.5</ele>
        <time>2022-04-19T08:00:47Z</time>
      </trkpt>
      <trkpt lat="48.93383" lon="2.01117">
        <ele>12.2</ele>
        <time>2022-04-19T08:00:51Z</time>
      </trkpt>
      <trkpt lat="48.93383" lon="2.01124">
        <ele>11.2</ele>
        <time>2022-04-19T08:00:55Z</time>
      </trkpt>
      <trkpt lat="48.93383" lon="2.01131">
        <ele>10.7</ele>
        <time>2022-04-19T08:00:58Z</time>
      </trkpt>
      <trkpt lat="48.93383" lon="2.01138">
        <ele>11.1</ele>
        <time>2022-04-19T08:01:01Z</time>
      </trkpt>
      <trkpt lat="48.93383" lon="2.01145">
        <ele>9.9</ele>
        <time>2022-04-19T08:01:04Z</time>
      </trkpt>
      <trkpt lat="48.93383" lon="2.01153">
        <ele>8.4</ele>
        <time>2022-04-19T08:01:08Z</time>
      </trkpt>
      <trkpt lat="48.93383" lon="2.0116">
        <ele>7.7</ele>
        <time>2022-04-19T08:01:12Z</time>
      </trkpt>
      <trkpt lat="48.93384" lon="2.01169">
        <ele>7.1</ele>
        <time>2022-04-19T08:01:16Z</time>
      </trkpt>
      <trkpt lat="48.93383" lon="2.01177">
        <ele>6.7</ele>
        <time>2022-04-19T08:01:19Z</time>
      </trkpt>
      <trkpt lat="48.93383" lon="2.01185">
        <ele>6.1</ele>
        <time>2022-04-19T08:01:23Z</time>
      </trkpt>
      <trkpt lat="48.93382" lon="2.01193">
        <ele>6.5</ele>
        <time>2022-04-19T08:01:27Z</time>
      </trkpt>
      <trkpt lat="48.93379" lon="2.01198">
        <ele>7.6</ele>
        <time>2022-04-19T08:01:30Z</time>
      </trkpt>
      <trkpt lat="48.93374" lon="2.01203">
        <ele>10.4</ele>
        <time>2022-04-19T08:01:35Z</time>
      </trkpt>
      <trkpt lat="48.9337" lon="2.01208">
        <ele>11.9</ele>
        <time>2022-04-19T08:01:38Z</time>
      </trkpt>
      <trkpt lat="48.93367" lon="2.01213">
        <ele>13.6</ele>
        <time>2022-04-19T08:01:41Z</time>
      </trkpt>
      <trkpt lat="48.93363" lon="2.01219">
        <ele>13</ele>
        <time>2022-04-19T08:01:45Z</time>
      </trkpt>
      <trkpt lat="48.9336" lon="2.01227">
        <ele>12.1</ele>
        <time>2022-04-19T08:01:50Z</time>
      </trkpt>
      <trkpt lat="48.93359" lon="2.01233">
        <ele>9.6</ele>
        <time>2022-04-19T08:01:53Z</time>
      </trkpt>
      <trkpt lat="48.93359" lon="2.01242">
        <ele>9.1</ele>
        <time>2022-04-19T08:01:57Z</time>
      </trkpt>
      <trkpt lat="48.93359" lon="2.0125">
        <ele>9.3</ele>
        <time>2022-04-19T08:02:00Z</time>
      </trkpt>
      <trkpt lat="48.93359" lon="2.01258">
        <ele>9.1</ele>
        <time>2022-04-19T08:02:04Z</time>
      </trkpt>
      <trkpt lat="48.93359" lon="2.01267">
        <ele>8.4</ele>
        <time>2022-04-19T08:02:08Z</time>
      </trkpt>
      <trkpt lat="48.93359" lon="2.01275">
        <ele>8.3</ele>
        <time>2022-04-19T08:02:12Z</time>
      </trkpt>
      <trkpt lat="48.93359" lon="2.01282">
        <ele>9.4</ele>
        <time>2022-04-19T08:02:15Z</time>
      </trkpt>
      <trkpt lat="48.93358" lon="2.01289">
        <ele>9.5</ele>
        <time>2022-04-19T08:02:20Z</time>
      </trkpt>
      <trkpt lat="48.93357" lon="2.01298">
        <ele>9.2</ele>
        <time>2022-04-19T08:02:23Z</time>
      </trkpt>
      <trkpt lat="48.93357" lon="2.01307">
        <ele>9.6</ele>
        <time>2022-04-19T08:02:27Z</time>
      </trkpt>
      <trkpt lat="48.93357" lon="2.01315">
        <ele>10.4</ele>
        <time>2022-04-19T08:02:31Z</time>
      </trkpt>
      <trkpt lat="48.93357" lon="2.01322">
        <ele>11.5</ele>
        <time>2022-04-19T08:02:35Z</time>
      </trkpt>
      <trkpt lat="48.93358" lon="2.0133">
        <ele>11.7</ele>
        <time>2022-04-19T08:02:38Z</time>
      </trkpt>
      <trkpt lat="48.93358" lon="2.01337">
        <ele>11.5</ele>
        <time>2022-04-19T08:02:42Z</time>
      </trkpt>
      <trkpt lat="48.93358" lon="2.01344">
        <ele>11.4</ele>
        <time>2022-04-19T08:02:45Z</time>
      </trkpt>
      <trkpt lat="48.93358" lon="2.01351">
        <ele>11.6</ele>
        <time>2022-04-19T08:02:48Z</time>
      </trkpt>
      <trkpt lat="48.93358" lon="2.01359">
        <ele>12.4</ele>
        <time>2022-04-19T08:02:52Z</time>
      </trkpt>
      <trkpt lat="48.93357" lon="2.01367">
        <ele>11.8</ele>
        <time>2022-04-19T08:02:56Z</time>
      </trkpt>
      <trkpt lat="48.93358" lon="2.01374">
        <ele>11.7</ele>
        <time>2022-04-19T08:02:59Z</time>
      </trkpt>
      <trkpt lat="48.93357" lon="2.01382">
        <ele>12.5</ele>
        <time>2022-04-19T08:03:02Z</time>
      </trkpt>
      <trkpt lat="48.93357" lon="2.0139">
        <ele>12.7</ele>
        <time>2022-04-19T08:03:06Z</time>
      </trkpt>
      <trkpt lat="48.93357" lon="2.01397">
        <ele>13</ele>
        <time>2022-04-19T08:03:09Z</time>
      </trkpt>
      <trkpt lat="48.93357" lon="2.01405">
        <ele>13.9</ele>
        <time>2022-04-19T08:03:13Z</time>
      </trkpt>
      <trkpt lat="48.93357" lon="2.01413">
        <ele>14.2</ele>
        <time>2022-04-19T08:03:17Z</time>
      </trkpt>
      <trkpt lat="48.93357" lon="2.01422">
        <ele>13.9</ele>
        <time>2022-04-19T08:03:20Z</time>
      </trkpt>
      <trkpt lat="48.93357" lon="2.01429">
        <ele>13.4</ele>
        <time>2022-04-19T08:03:24Z</time>
      </trkpt>
      <trkpt lat="48.93357" lon="2.01438">
        <ele>12.4</ele>
        <time>2022-04-19T08:03:28Z</time>
      </trkpt>
      <trkpt lat="48.93357" lon="2.01444">
        <ele>11.9</ele>
        <time>2022-04-19T08:03:32Z</time>
      </trkpt>
      <trkpt lat="48.93356" lon="2.01453">
        <ele>11.3</ele>
        <time>2022-04-19T08:03:36Z</time>
      </trkpt>
      <trkpt lat="48.93356" lon="2.01462">
        <ele>11.4</ele>
        <time>2022-04-19T08:03:39Z</time>
      </trkpt>
      <trkpt lat="48.93355" lon="2.01471">
        <ele>12.3</ele>
        <time>2022-04-19T08:03:43Z</time>
      </trkpt>
      <trkpt lat="48.93355" lon="2.01481">
        <ele>11.3</ele>
        <time>2022-04-19T08:03:48Z</time>
      </trkpt>
      <trkpt lat="48.93354" lon="2.01488">
        <ele>11.6</ele>
        <time>2022-04-19T08:03:53Z</time>
      </trkpt>
      <trkpt lat="48.93352" lon="2.01495">
        <ele>13.3</ele>
        <time>2022-04-19T08:03:57Z</time>
      </trkpt>
      <trkpt lat="48.93347" lon="2.01496">
        <ele>16.1</ele>
        <time>2022-04-19T08:04:01Z</time>
      </trkpt>
      <trkpt lat="48.93342" lon="2.01493">
        <ele>15.2</ele>
        <time>2022-04-19T08:04:05Z</time>
      </trkpt>
      <trkpt lat="48.93338" lon="2.01489">
        <ele>15.6</ele>
        <time>2022-04-19T08:04:07Z</time>
      </trkpt>
      <trkpt lat="48.93333" lon="2.0149">
        <ele>17.7</ele>
        <time>2022-04-19T08:04:11Z</time>
      </trkpt>
      <trkpt lat="48.93328" lon="2.01493">
        <ele>18.1</ele>
        <time>2022-04-19T08:04:15Z</time>
      </trkpt>
      <trkpt lat="48.93324" lon="2.01495">
        <ele>18.2</ele>
        <time>2022-04-19T08:04:19Z</time>
      </trkpt>
      <trkpt lat="48.93318" lon="2.01496">
        <ele>16.6</ele>
        <time>2022-04-19T08:04:24Z</time>
      </trkpt>
      <trkpt lat="48.93313" lon="2.01498">
        <ele>16.6</ele>
        <time>2022-04-19T08:04:29Z</time>
      </trkpt>
      <trkpt lat="48.93308" lon="2.01502">
        <ele>17.4</ele>
        <time>2022-04-19T08:04:33Z</time>
      </trkpt>
      <trkpt lat="48.93303" lon="2.01505">
        <ele>16.8</ele>
        <time>2022-04-19T08:04:38Z</time>
      </trkpt>
      <trkpt lat="48.93298" lon="2.01507">
        <ele>17.4</ele>
        <time>2022-04-19T08:04:42Z</time>
      </trkpt>
      <trkpt lat="48.93293" lon="2.01507">
        <ele>17.5</ele>
        <time>2022-04-19T08:04:46Z</time>
      </trkpt>
      <trkpt lat="48.93288" lon="2.01504">
        <ele>18.3</ele>
        <time>2022-04-19T08:04:50Z</time>
      </trkpt>
      <trkpt lat="48.93283" lon="2.01503">
        <ele>17.9</ele>
        <time>2022-04-19T08:04:53Z</time>
      </trkpt>
      <trkpt lat="48.93278" lon="2.015">
        <ele>18</ele>
        <time>2022-04-19T08:04:57Z</time>
      </trkpt>
      <trkpt lat="48.93273" lon="2.01497">
        <ele>17.1</ele>
        <time>2022-04-19T08:05:01Z</time>
      </trkpt>
      <trkpt lat="48.93268" lon="2.01494">
        <ele>17.9</ele>
        <time>2022-04-19T08:05:06Z</time>
      </trkpt>
      <trkpt lat="48.93263" lon="2.01491">
        <ele>18.7</ele>
        <time>2022-04-19T08:05:10Z</time>
      </trkpt>
      <trkpt lat="48.93258" lon="2.01486">
        <ele>20</ele>
        <time>2022-04-19T08:05:14Z</time>
      </trkpt>
      <trkpt lat="48.93253" lon="2.01484">
        <ele>18.8</ele>
        <time>2022-04-19T08:05:18Z</time>
      </trkpt>
      <trkpt lat="48.93247" lon="2.01481">
        <ele>17.7</ele>
        <time>2022-04-19T08:05:21Z</time>
      </trkpt>
      <trkpt lat="48.93242" lon="2.01479">
        <ele>19.1</ele>
        <time>2022-04-19T08:05:24Z</time>
      </trkpt>
      <trkpt lat="48.93238" lon="2.01475">
        <ele>19.6</ele>
        <time>2022-04-19T08:05:27Z</time>
      </trkpt>
      <trkpt lat="48.93233" lon="2.01472">
        <ele>20.4</ele>
        <time>2022-04-19T08:05:31Z</time>
      </trkpt>
      <trkpt lat="48.93228" lon="2.01469">
        <ele>20.3</ele>
        <time>2022-04-19T08:05:36Z</time>
      </trkpt>
      <trkpt lat="48.93223" lon="2.01467">
        <ele>21</ele>
        <time>2022-04-19T08:05:40Z</time>
      </trkpt>
      <trkpt lat="48.93218" lon="2.01472">
        <ele>18.6</ele>
        <time>2022-04-19T08:05:43Z</time>
      </trkpt>
      <trkpt lat="48.93216" lon="2.01479">
        <ele>18.1</ele>
        <time>2022-04-19T08:05:46Z</time>
      </trkpt>
      <trkpt lat="48.93215" lon="2.01486">
        <ele>17</ele>
        <time>2022-04-19T08:05:49Z</time>
      </trkpt>
      <trkpt lat="48.93213" lon="2.01495">
        <ele>16.9</ele>
        <time>2022-04-19T08:05:53Z</time>
      </trkpt>
      <trkpt lat="48.93212" lon="2.01502">
        <ele>14.2</ele>
        <time>2022-04-19T08:05:57Z</time>
      </trkpt>
      <trkpt lat="48.93211" lon="2.01509">
        <ele>13.9</ele>
        <time>2022-04-19T08:06:00Z</time>
      </trkpt>
      <trkpt lat="48.9321" lon="2.01517">
        <ele>15.4</ele>
        <time>2022-04-19T08:06:03Z</time>
      </trkpt>
      <trkpt lat="48.93209" lon="2.01525">
        <ele>14.4</ele>
        <time>2022-04-19T08:06:07Z</time>
      </trkpt>
      <trkpt lat="48.93208" lon="2.01533">
        <ele>14.6</ele>
        <time>2022-04-19T08:06:11Z</time>
      </trkpt>
      <trkpt lat="48.93205" lon="2.0154">
        <ele>16.4</ele>
        <time>2022-04-19T08:06:15Z</time>
      </trkpt>
      <trkpt lat="48.93203" lon="2.01547">
        <ele>17.1</ele>
        <time>2022-04-19T08:06:19Z</time>
      </trkpt>
      <trkpt lat="48.93202" lon="2.01556">
        <ele>17.5</ele>
        <time>2022-04-19T08:06:22Z</time>
      </trkpt>
      <trkpt lat="48.932" lon="2.01563">
        <ele>16.3</ele>
        <time>2022-04-19T08:06:26Z</time>
      </trkpt>
      <trkpt lat="48.93199" lon="2.01571">
        <ele>15.6</ele>
        <time>2022-04-19T08:06:29Z</time>
      </trkpt>
      <trkpt lat="48.93198" lon="2.01578">
        <ele>16.1</ele>
        <time>2022-04-19T08:06:33Z</time>
      </trkpt>
      <trkpt lat="48.93196" lon="2.01585">
        <ele>14.5</ele>
        <time>2022-04-19T08:06:37Z</time>
      </trkpt>
      <trkpt lat="48.93196" lon="2.01594">
        <ele>13.2</ele>
        <time>2022-04-19T08:06:40Z</time>
      </trkpt>
      <trkpt lat="48.93195" lon="2.01602">
        <ele>12.8</ele>
        <time>2022-04-19T08:06:44Z</time>
      </trkpt>
      <trkpt lat="48.93194" lon="2.01609">
        <ele>11.3</ele>
        <time>2022-04-19T08:06:47Z</time>
      </trkpt>
      <trkpt lat="48.93193" lon="2.01616">
        <ele>12.2</ele>
        <time>2022-04-19T08:06:51Z</time>
      </trkpt>
      <trkpt lat="48.93192" lon="2.01623">
        <ele>12.4</ele>
        <time>2022-04-19T08:06:54Z</time>
      </trkpt>
      <trkpt lat="48.93191" lon="2.01631">
        <ele>13.5</ele>
        <time>2022-04-19T08:06:57Z</time>
      </trkpt>
      <trkpt lat="48.93188" lon="2.01638">
        <ele>14.5</ele>
        <time>2022-04-19T08:07:01Z</time>
      </trkpt>
      <trkpt lat="48.93185" lon="2.01644">
        <ele>13.9</ele>
        <time>2022-04-19T08:07:05Z</time>
      </trkpt>
      <trkpt lat="48.93184" lon="2.01651">
        <ele>13.5</ele>
        <time>2022-04-19T08:07:09Z</time>
      </trkpt>
      <trkpt lat="48.93181" lon="2.01658">
        <ele>15</ele>
        <time>2022-04-19T08:07:13Z</time>
      </trkpt>
      <trkpt lat="48.9318" lon="2.01665">
        <ele>14.2</ele>
        <time>2022-04-19T08:07:16Z</time>
      </trkpt>
      <trkpt lat="48.93182" lon="2.01672">
        <ele>15.4</ele>
        <time>2022-04-19T08:07:20Z</time>
      </trkpt>
      <trkpt lat="48.93185" lon="2.0168">
        <ele>15</ele>
        <time>2022-04-19T08:07:23Z</time>
      </trkpt>
      <trkpt lat="48.93191" lon="2.01682">
        <ele>15.9</ele>
        <time>2022-04-19T08:07:28Z</time>
      </trkpt>
      <trkpt lat="48.93195" lon="2.01682">
        <ele>16.4</ele>
        <time>2022-04-19T08:07:31Z</time>
      </trkpt>
      <trkpt lat="48.932" lon="2.01687">
        <ele>15.8</ele>
        <time>2022-04-19T08:07:35Z</time>
      </trkpt>
      <trkpt lat="48.93199" lon="2.01694">
        <ele>15.7</ele>
        <time>2022-04-19T08:08:11Z</time>
      </trkpt>
      <trkpt lat="48.93202" lon="2.01702">
        <ele>17.4</ele>
        <time>2022-04-19T08:08:17Z</time>
      </trkpt>
      <trkpt lat="48.93206" lon="2.01704">
        <ele>18.1</ele>
        <time>2022-04-19T08:08:19Z</time>
      </trkpt>
      <trkpt lat="48.9321" lon="2.01708">
        <ele>16.1</ele>
        <time>2022-04-19T08:08:22Z</time>
      </trkpt>
      <trkpt lat="48.93215" lon="2.01713">
        <ele>15.6</ele>
        <time>2022-04-19T08:08:26Z</time>
      </trkpt>
      <trkpt lat="48.93221" lon="2.01716">
        <ele>17.9</ele>
        <time>2022-04-19T08:08:30Z</time>
      </trkpt>
      <trkpt lat="48.93225" lon="2.0172">
        <ele>17.7</ele>
        <time>2022-04-19T08:08:33Z</time>
      </trkpt>
      <trkpt lat="48.93229" lon="2.01725">
        <ele>16.6</ele>
        <time>2022-04-19T08:08:37Z</time>
      </trkpt>
      <trkpt lat="48.93229" lon="2.01734">
        <ele>16.9</ele>
        <time>2022-04-19T08:08:41Z</time>
      </trkpt>
      <trkpt lat="48.93228" lon="2.01743">
        <ele>17.2</ele>
        <time>2022-04-19T08:08:45Z</time>
      </trkpt>
      <trkpt lat="48.93226" lon="2.01748">
        <ele>20</ele>
        <time>2022-04-19T08:08:49Z</time>
      </trkpt>
      <trkpt lat="48.9323" lon="2.01754">
        <ele>21.9</ele>
        <time>2022-04-19T08:08:54Z</time>
      </trkpt>
      <trkpt lat="48.93235" lon="2.01757">
        <ele>20.5</ele>
        <time>2022-04-19T08:08:58Z</time>
      </trkpt>
      <trkpt lat="48.9324" lon="2.01755">
        <ele>17.9</ele>
        <time>2022-04-19T08:09:01Z</time>
      </trkpt>
      <trkpt lat="48.93241" lon="2.01747">
        <ele>19.8</ele>
        <time>2022-04-19T08:09:06Z</time>
      </trkpt>
      <trkpt lat="48.93247" lon="2.01751">
        <ele>17.8</ele>
        <time>2022-04-19T08:09:19Z</time>
      </trkpt>
      <trkpt lat="48.93249" lon="2.0176">
        <ele>17.8</ele>
        <time>2022-04-19T08:09:26Z</time>
      </trkpt>
      <trkpt lat="48.9325" lon="2.01767">
        <ele>17.9</ele>
        <time>2022-04-19T08:09:31Z</time>
      </trkpt>
      <trkpt lat="48.93253" lon="2.01774">
        <ele>16.2</ele>
        <time>2022-04-19T08:09:36Z</time>
      </trkpt>
      <trkpt lat="48.93256" lon="2.01781">
        <ele>16.6</ele>
        <time>2022-04-19T08:09:41Z</time>
      </trkpt>
      <trkpt lat="48.93254" lon="2.01788">
        <ele>17.8</ele>
        <time>2022-04-19T08:09:45Z</time>
      </trkpt>
      <trkpt lat="48.93253" lon="2.01795">
        <ele>19.9</ele>
        <time>2022-04-19T08:09:50Z</time>
      </trkpt>
      <trkpt lat="48.9325" lon="2.01804">
        <ele>18.9</ele>
        <time>2022-04-19T08:09:54Z</time>
      </trkpt>
      <trkpt lat="48.93245" lon="2.01808">
        <ele>21.6</ele>
        <time>2022-04-19T08:09:58Z</time>
      </trkpt>
      <trkpt lat="48.93242" lon="2.01815">
        <ele>21.4</ele>
        <time>2022-04-19T08:10:03Z</time>
      </trkpt>
      <trkpt lat="48.93241" lon="2.01823">
        <ele>19</ele>
        <time>2022-04-19T08:10:08Z</time>
      </trkpt>
      <trkpt lat="48.93246" lon="2.01818">
        <ele>16</ele>
        <time>2022-04-19T08:10:12Z</time>
      </trkpt>
      <trkpt lat="48.93245" lon="2.01831">
        <ele>16</ele>
        <time>2022-04-19T08:10:19Z</time>
      </trkpt>
      <trkpt lat="48.93243" lon="2.01838">
        <ele>16.3</ele>
        <time>2022-04-19T08:10:22Z</time>
      </trkpt>
      <trkpt lat="48.93242" lon="2.01847">
        <ele>15.1</ele>
        <time>2022-04-19T08:10:26Z</time>
      </trkpt>
      <trkpt lat="48.93242" lon="2.01855">
        <ele>17</ele>
        <time>2022-04-19T08:10:30Z</time>
      </trkpt>
      <trkpt lat="48.9324" lon="2.01863">
        <ele>17.2</ele>
        <time>2022-04-19T08:10:34Z</time>
      </trkpt>
      <trkpt lat="48.93237" lon="2.0187">
        <ele>17.8</ele>
        <time>2022-04-19T08:10:38Z</time>
      </trkpt>
      <trkpt lat="48.93235" lon="2.01878">
        <ele>20.8</ele>
        <time>2022-04-19T08:10:42Z</time>
      </trkpt>
      <trkpt lat="48.93233" lon="2.01885">
        <ele>23</ele>
        <time>2022-04-19T08:10:46Z</time>
      </trkpt>
      <trkpt lat="48.93231" lon="2.01893">
        <ele>23</ele>
        <time>2022-04-19T08:10:50Z</time>
      </trkpt>
      <trkpt lat="48.93229" lon="2.019">
        <ele>22.7</ele>
        <time>2022-04-19T08:10:54Z</time>
      </trkpt>
      <trkpt lat="48.93226" lon="2.01905">
        <ele>24.2</ele>
        <time>2022-04-19T08:10:58Z</time>
      </trkpt>
      <trkpt lat="48.93225" lon="2.01912">
        <ele>24.3</ele>
        <time>2022-04-19T08:11:02Z</time>
      </trkpt>
      <trkpt lat="48.93221" lon="2.01919">
        <ele>22.7</ele>
        <time>2022-04-19T08:11:06Z</time>
      </trkpt>
      <trkpt lat="48.93216" lon="2.01923">
        <ele>22.6</ele>
        <time>2022-04-19T08:11:10Z</time>
      </trkpt>
      <trkpt lat="48.93212" lon="2.01928">
        <ele>22.1</ele>
        <time>2022-04-19T08:11:14Z</time>
      </trkpt>
      <trkpt lat="48.93216" lon="2.01934">
        <ele>23.7</ele>
        <time>2022-04-19T08:11:19Z</time>
      </trkpt>
      <trkpt lat="48.93214" lon="2.01941">
        <ele>23.9</ele>
        <time>2022-04-19T08:11:23Z</time>
      </trkpt>
      <trkpt lat="48.93213" lon="2.01949">
        <ele>23.6</ele>
        <time>2022-04-19T08:11:27Z</time>
      </trkpt>
      <trkpt lat="48.93218" lon="2.01952">
        <ele>30.2</ele>
        <time>2022-04-19T08:11:34Z</time>
      </trkpt>
      <trkpt lat="48.93219" lon="2.01961">
        <ele>27.8</ele>
        <time>2022-04-19T08:11:38Z</time>
      </trkpt>
      <trkpt lat="48.93218" lon="2.0197">
        <ele>24.2</ele>
        <time>2022-04-19T08:11:43Z</time>
      </trkpt>
      <trkpt lat="48.93217" lon="2.01977">
        <ele>23.2</ele>
        <time>2022-04-19T08:11:46Z</time>
      </trkpt>
      <trkpt lat="48.93216" lon="2.01984">
        <ele>23.6</ele>
        <time>2022-04-19T08:11:49Z</time>
      </trkpt>
      <trkpt lat="48.93213" lon="2.0199">
        <ele>20.8</ele>
        <time>2022-04-19T08:11:53Z</time>
      </trkpt>
      <trkpt lat="48.9321" lon="2.01995">
        <ele>19.2</ele>
        <time>2022-04-19T08:11:55Z</time>
      </trkpt>
      <trkpt lat="48.93206" lon="2.02">
        <ele>19.1</ele>
        <time>2022-04-19T08:11:58Z</time>
      </trkpt>
      <trkpt lat="48.93204" lon="2.02008">
        <ele>16.3</ele>
        <time>2022-04-19T08:12:02Z</time>
      </trkpt>
      <trkpt lat="48.93203" lon="2.02015">
        <ele>17.9</ele>
        <time>2022-04-19T08:12:06Z</time>
      </trkpt>
      <trkpt lat="48.93202" lon="2.02022">
        <ele>17.3</ele>
        <time>2022-04-19T08:12:09Z</time>
      </trkpt>
      <trkpt lat="48.93201" lon="2.02029">
        <ele>18.7</ele>
        <time>2022-04-19T08:12:13Z</time>
      </trkpt>
      <trkpt lat="48.932" lon="2.02037">
        <ele>17.9</ele>
        <time>2022-04-19T08:12:16Z</time>
      </trkpt>
      <trkpt lat="48.93198" lon="2.02045">
        <ele>16.7</ele>
        <time>2022-04-19T08:12:20Z</time>
      </trkpt>
      <trkpt lat="48.93197" lon="2.02053">
        <ele>16.5</ele>
        <time>2022-04-19T08:12:24Z</time>
      </trkpt>
      <trkpt lat="48.93195" lon="2.02059">
        <ele>19.8</ele>
        <time>2022-04-19T08:12:27Z</time>
      </trkpt>
      <trkpt lat="48.93192" lon="2.02067">
        <ele>20.2</ele>
        <time>2022-04-19T08:12:32Z</time>
      </trkpt>
      <trkpt lat="48.93192" lon="2.02075">
        <ele>21.3</ele>
        <time>2022-04-19T08:12:36Z</time>
      </trkpt>
      <trkpt lat="48.9319" lon="2.02082">
        <ele>20.5</ele>
        <time>2022-04-19T08:12:38Z</time>
      </trkpt>
      <trkpt lat="48.93188" lon="2.0209">
        <ele>19.5</ele>
        <time>2022-04-19T08:12:42Z</time>
      </trkpt>
      <trkpt lat="48.93186" lon="2.02098">
        <ele>18</ele>
        <time>2022-04-19T08:12:46Z</time>
      </trkpt>
      <trkpt lat="48.93185" lon="2.02106">
        <ele>16.6</ele>
        <time>2022-04-19T08:12:51Z</time>
      </trkpt>
      <trkpt lat="48.93183" lon="2.02113">
        <ele>15.9</ele>
        <time>2022-04-19T08:12:55Z</time>
      </trkpt>
      <trkpt lat="48.93182" lon="2.02121">
        <ele>16.4</ele>
        <time>2022-04-19T08:12:58Z</time>
      </trkpt>
      <trkpt lat="48.93183" lon="2.0213">
        <ele>18.4</ele>
        <time>2022-04-19T08:13:03Z</time>
      </trkpt>
      <trkpt lat="48.93182" lon="2.02137">
        <ele>18.5</ele>
        <time>2022-04-19T08:13:06Z</time>
      </trkpt>
      <trkpt lat="48.9318" lon="2.02145">
        <ele>17.3</ele>
        <time>2022-04-19T08:13:10Z</time>
      </trkpt>
      <trkpt lat="48.93178" lon="2.02153">
        <ele>17.1</ele>
        <time>2022-04-19T08:13:14Z</time>
      </trkpt>
      <trkpt lat="48.93177" lon="2.02159">
        <ele>16.5</ele>
        <time>2022-04-19T08:13:17Z</time>
      </trkpt>
      <trkpt lat="48.93176" lon="2.02168">
        <ele>14.4</ele>
        <time>2022-04-19T08:13:22Z</time>
      </trkpt>
      <trkpt lat="48.93176" lon="2.02175">
        <ele>16.2</ele>
        <time>2022-04-19T08:13:26Z</time>
      </trkpt>
      <trkpt lat="48.93176" lon="2.02182">
        <ele>17.2</ele>
        <time>2022-04-19T08:13:29Z</time>
      </trkpt>
      <trkpt lat="48.93175" lon="2.02189">
        <ele>17</ele>
        <time>2022-04-19T08:13:32Z</time>
      </trkpt>
      <trkpt lat="48.93174" lon="2.02197">
        <ele>16</ele>
        <time>2022-04-19T08:13:36Z</time>
      </trkpt>
      <trkpt lat="48.93173" lon="2.02205">
        <ele>15.8</ele>
        <time>2022-04-19T08:13:41Z</time>
      </trkpt>
      <trkpt lat="48.93172" lon="2.02214">
        <ele>19.1</ele>
        <time>2022-04-19T08:13:46Z</time>
      </trkpt>
      <trkpt lat="48.93172" lon="2.02221">
        <ele>19.9</ele>
        <time>2022-04-19T08:13:49Z</time>
      </trkpt>
      <trkpt lat="48.93171" lon="2.02228">
        <ele>19.9</ele>
        <time>2022-04-19T08:13:53Z</time>
      </trkpt>
      <trkpt lat="48.93169" lon="2.02236">
        <ele>18.4</ele>
        <time>2022-04-19T08:13:56Z</time>
      </trkpt>
      <trkpt lat="48.93166" lon="2.02244">
        <ele>18.9</ele>
        <time>2022-04-19T08:14:00Z</time>
      </trkpt>
      <trkpt lat="48.93164" lon="2.02252">
        <ele>18.6</ele>
        <time>2022-04-19T08:14:05Z</time>
      </trkpt>
      <trkpt lat="48.93162" lon="2.0226">
        <ele>17.7</ele>
        <time>2022-04-19T08:14:10Z</time>
      </trkpt>
      <trkpt lat="48.93161" lon="2.02268">
        <ele>16</ele>
        <time>2022-04-19T08:14:13Z</time>
      </trkpt>
      <trkpt lat="48.93161" lon="2.02275">
        <ele>15.5</ele>
        <time>2022-04-19T08:14:17Z</time>
      </trkpt>
      <trkpt lat="48.93159" lon="2.02282">
        <ele>14.4</ele>
        <time>2022-04-19T08:14:20Z</time>
      </trkpt>
      <trkpt lat="48.93159" lon="2.02291">
        <ele>15.6</ele>
        <time>2022-04-19T08:14:24Z</time>
      </trkpt>
      <trkpt lat="48.93159" lon="2.02299">
        <ele>17.8</ele>
        <time>2022-04-19T08:14:28Z</time>
      </trkpt>
      <trkpt lat="48.93157" lon="2.02305">
        <ele>19.3</ele>
        <time>2022-04-19T08:14:32Z</time>
      </trkpt>
      <trkpt lat="48.93155" lon="2.02314">
        <ele>22.4</ele>
        <time>2022-04-19T08:14:36Z</time>
      </trkpt>
      <trkpt lat="48.93154" lon="2.02321">
        <ele>22.4</ele>
        <time>2022-04-19T08:14:40Z</time>
      </trkpt>
      <trkpt lat="48.93154" lon="2.02329">
        <ele>21.5</ele>
        <time>2022-04-19T08:14:44Z</time>
      </trkpt>
      <trkpt lat="48.93153" lon="2.02338">
        <ele>19</ele>
        <time>2022-04-19T08:14:49Z</time>
      </trkpt>
      <trkpt lat="48.93153" lon="2.02346">
        <ele>19.2</ele>
        <time>2022-04-19T08:14:53Z</time>
      </trkpt>
      <trkpt lat="48.93152" lon="2.02353">
        <ele>19.1</ele>
        <time>2022-04-19T08:14:56Z</time>
      </trkpt>
      <trkpt lat="48.93153" lon="2.02361">
        <ele>19.6</ele>
        <time>2022-04-19T08:15:01Z</time>
      </trkpt>
      <trkpt lat="48.93153" lon="2.02368">
        <ele>19.4</ele>
        <time>2022-04-19T08:15:05Z</time>
      </trkpt>
      <trkpt lat="48.93153" lon="2.02375">
        <ele>19.3</ele>
        <time>2022-04-19T08:15:09Z</time>
      </trkpt>
      <trkpt lat="48.93152" lon="2.02382">
        <ele>16.3</ele>
        <time>2022-04-19T08:15:13Z</time>
      </trkpt>
      <trkpt lat="48.93151" lon="2.0239">
        <ele>16.1</ele>
        <time>2022-04-19T08:15:17Z</time>
      </trkpt>
      <trkpt lat="48.93151" lon="2.02397">
        <ele>15.6</ele>
        <time>2022-04-19T08:15:21Z</time>
      </trkpt>
      <trkpt lat="48.9315" lon="2.02404">
        <ele>14.5</ele>
        <time>2022-04-19T08:15:25Z</time>
      </trkpt>
      <trkpt lat="48.9315" lon="2.02412">
        <ele>15.6</ele>
        <time>2022-04-19T08:15:29Z</time>
      </trkpt>
      <trkpt lat="48.93151" lon="2.0242">
        <ele>17.7</ele>
        <time>2022-04-19T08:15:33Z</time>
      </trkpt>
      <trkpt lat="48.93152" lon="2.02427">
        <ele>17</ele>
        <time>2022-04-19T08:15:37Z</time>
      </trkpt>
      <trkpt lat="48.93152" lon="2.02435">
        <ele>16.1</ele>
        <time>2022-04-19T08:15:40Z</time>
      </trkpt>
      <trkpt lat="48.93152" lon="2.02442">
        <ele>16.5</ele>
        <time>2022-04-19T08:15:44Z</time>
      </trkpt>
      <trkpt lat="48.93152" lon="2.02449">
        <ele>16.4</ele>
        <time>2022-04-19T08:15:47Z</time>
      </trkpt>
      <trkpt lat="48.93151" lon="2.02457">
        <ele>16.1</ele>
        <time>2022-04-19T08:15:50Z</time>
      </trkpt>
      <trkpt lat="48.93152" lon="2.02465">
        <ele>16.5</ele>
        <time>2022-04-19T08:15:54Z</time>
      </trkpt>
      <trkpt lat="48.93153" lon="2.02471">
        <ele>15.2</ele>
        <time>2022-04-19T08:15:58Z</time>
      </trkpt>
      <trkpt lat="48.93154" lon="2.02479">
        <ele>15.8</ele>
        <time>2022-04-19T08:16:02Z</time>
      </trkpt>
      <trkpt lat="48.93154" lon="2.02487">
        <ele>17.7</ele>
        <time>2022-04-19T08:16:06Z</time>
      </trkpt>
      <trkpt lat="48.93154" lon="2.02495">
        <ele>16.6</ele>
        <time>2022-04-19T08:16:10Z</time>
      </trkpt>
      <trkpt lat="48.93154" lon="2.02503">
        <ele>17.9</ele>
        <time>2022-04-19T08:16:14Z</time>
      </trkpt>
      <trkpt lat="48.93156" lon="2.02512">
        <ele>17.5</ele>
        <time>2022-04-19T08:16:17Z</time>
      </trkpt>
      <trkpt lat="48.93158" lon="2.02519">
        <ele>18.9</ele>
        <time>2022-04-19T08:16:20Z</time>
      </trkpt>
      <trkpt lat="48.9316" lon="2.02525">
        <ele>20.2</ele>
        <time>2022-04-19T08:16:23Z</time>
      </trkpt>
      <trkpt lat="48.93163" lon="2.02531">
        <ele>20.3</ele>
        <time>2022-04-19T08:16:27Z</time>
      </trkpt>
      <trkpt lat="48.93166" lon="2.0254">
        <ele>22.9</ele>
        <time>2022-04-19T08:16:31Z</time>
      </trkpt>
      <trkpt lat="48.93168" lon="2.02547">
        <ele>21.6</ele>
        <time>2022-04-19T08:16:36Z</time>
      </trkpt>
      <trkpt lat="48.93171" lon="2.02554">
        <ele>22.8</ele>
        <time>2022-04-19T08:16:40Z</time>
      </trkpt>
      <trkpt lat="48.93175" lon="2.02561">
        <ele>22.4</ele>
        <time>2022-04-19T08:16:43Z</time>
      </trkpt>
      <trkpt lat="48.93177" lon="2.02568">
        <ele>21.4</ele>
        <time>2022-04-19T08:16:47Z</time>
      </trkpt>
      <trkpt lat="48.93181" lon="2.02574">
        <ele>21.1</ele>
        <time>2022-04-19T08:16:51Z</time>
      </trkpt>
      <trkpt lat="48.93185" lon="2.02579">
        <ele>21.2</ele>
        <time>2022-04-19T08:16:54Z</time>
      </trkpt>
      <trkpt lat="48.93189" lon="2.02585">
        <ele>20.7</ele>
        <time>2022-04-19T08:16:59Z</time>
      </trkpt>
      <trkpt lat="48.93192" lon="2.02591">
        <ele>18.1</ele>
        <time>2022-04-19T08:17:02Z</time>
      </trkpt>
      <trkpt lat="48.93195" lon="2.02597">
        <ele>18.7</ele>
        <time>2022-04-19T08:17:06Z</time>
      </trkpt>
      <trkpt lat="48.93197" lon="2.02604">
        <ele>17.8</ele>
        <time>2022-04-19T08:17:10Z</time>
      </trkpt>
      <trkpt lat="48.932" lon="2.02611">
        <ele>19.6</ele>
        <time>2022-04-19T08:17:14Z</time>
      </trkpt>
      <trkpt lat="48.93203" lon="2.02618">
        <ele>18.8</ele>
        <time>2022-04-19T08:17:17Z</time>
      </trkpt>
      <trkpt lat="48.93205" lon="2.02624">
        <ele>19.8</ele>
        <time>2022-04-19T08:17:21Z</time>
      </trkpt>
      <trkpt lat="48.93208" lon="2.0263">
        <ele>18.6</ele>
        <time>2022-04-19T08:17:25Z</time>
      </trkpt>
      <trkpt lat="48.93211" lon="2.02637">
        <ele>16.2</ele>
        <time>2022-04-19T08:17:29Z</time>
      </trkpt>
      <trkpt lat="48.93213" lon="2.02643">
        <ele>16.2</ele>
        <time>2022-04-19T08:17:33Z</time>
      </trkpt>
      <trkpt lat="48.93217" lon="2.02651">
        <ele>14.5</ele>
        <time>2022-04-19T08:17:38Z</time>
      </trkpt>
      <trkpt lat="48.9322" lon="2.02657">
        <ele>14.9</ele>
        <time>2022-04-19T08:17:41Z</time>
      </trkpt>
      <trkpt lat="48.93222" lon="2.02664">
        <ele>15.2</ele>
        <time>2022-04-19T08:17:45Z</time>
      </trkpt>
      <trkpt lat="48.93223" lon="2.0267">
        <ele>13.6</ele>
        <time>2022-04-19T08:17:49Z</time>
      </trkpt>
      <trkpt lat="48.93225" lon="2.02677">
        <ele>14.7</ele>
        <time>2022-04-19T08:17:53Z</time>
      </trkpt>
      <trkpt lat="48.93229" lon="2.02683">
        <ele>18.4</ele>
        <time>2022-04-19T08:17:57Z</time>
      </trkpt>
      <trkpt lat="48.93232" lon="2.0269">
        <ele>18.3</ele>
        <time>2022-04-19T08:18:01Z</time>
      </trkpt>
      <trkpt lat="48.93234" lon="2.02696">
        <ele>19.2</ele>
        <time>2022-04-19T08:18:06Z</time>
      </trkpt>
      <trkpt lat="48.93237" lon="2.02703">
        <ele>17.4</ele>
        <time>2022-04-19T08:18:10Z</time>
      </trkpt>
      <trkpt lat="48.93239" lon="2.0271">
        <ele>19.4</ele>
        <time>2022-04-19T08:18:14Z</time>
      </trkpt>
      <trkpt lat="48.93241" lon="2.02717">
        <ele>20.3</ele>
        <time>2022-04-19T08:18:20Z</time>
      </trkpt>
      <trkpt lat="48.93242" lon="2.02725">
        <ele>16.8</ele>
        <time>2022-04-19T08:18:44Z</time>
      </trkpt>
      <trkpt lat="48.93244" lon="2.02732">
        <ele>13.4</ele>
        <time>2022-04-19T08:18:49Z</time>
      </trkpt>
      <trkpt lat="48.93245" lon="2.02739">
        <ele>14.2</ele>
        <time>2022-04-19T08:18:53Z</time>
      </trkpt>
      <trkpt lat="48.93245" lon="2.02746">
        <ele>14.3</ele>
        <time>2022-04-19T08:18:57Z</time>
      </trkpt>
      <trkpt lat="48.93247" lon="2.02753">
        <ele>13.6</ele>
        <time>2022-04-19T08:19:01Z</time>
      </trkpt>
      <trkpt lat="48.9325" lon="2.02761">
        <ele>12.8</ele>
        <time>2022-04-19T08:19:07Z</time>
      </trkpt>
      <trkpt lat="48.93251" lon="2.02768">
        <ele>12.8</ele>
        <time>2022-04-19T08:19:11Z</time>
      </trkpt>
      <trkpt lat="48.93252" lon="2.02776">
        <ele>11.5</ele>
        <time>2022-04-19T08:19:15Z</time>
      </trkpt>
      <trkpt lat="48.93253" lon="2.02783">
        <ele>11.4</ele>
        <time>2022-04-19T08:19:19Z</time>
      </trkpt>
      <trkpt lat="48.93253" lon="2.02791">
        <ele>10.3</ele>
        <time>2022-04-19T08:19:24Z</time>
      </trkpt>
      <trkpt lat="48.93255" lon="2.02799">
        <ele>10.9</ele>
        <time>2022-04-19T08:19:28Z</time>
      </trkpt>
      <trkpt lat="48.93256" lon="2.02808">
        <ele>9.7</ele>
        <time>2022-04-19T08:19:33Z</time>
      </trkpt>
      <trkpt lat="48.93257" lon="2.02815">
        <ele>10.1</ele>
        <time>2022-04-19T08:19:36Z</time>
      </trkpt>
      <trkpt lat="48.93258" lon="2.02824">
        <ele>11.2</ele>
        <time>2022-04-19T08:19:40Z</time>
      </trkpt>
      <trkpt lat="48.93259" lon="2.02831">
        <ele>12.7</ele>
        <time>2022-04-19T08:19:44Z</time>
      </trkpt>
      <trkpt lat="48.93261" lon="2.02838">
        <ele>16.2</ele>
        <time>2022-04-19T08:19:48Z</time>
      </trkpt>
      <trkpt lat="48.93264" lon="2.02844">
        <ele>16.3</ele>
        <time>2022-04-19T08:19:53Z</time>
      </trkpt>
      <trkpt lat="48.93267" lon="2.0285">
        <ele>15.5</ele>
        <time>2022-04-19T08:19:57Z</time>
      </trkpt>
      <trkpt lat="48.93269" lon="2.02857">
        <ele>17.1</ele>
        <time>2022-04-19T08:20:01Z</time>
      </trkpt>
      <trkpt lat="48.93271" lon="2.02865">
        <ele>17.2</ele>
        <time>2022-04-19T08:20:06Z</time>
      </trkpt>
      <trkpt lat="48.93273" lon="2.02872">
        <ele>16.8</ele>
        <time>2022-04-19T08:20:10Z</time>
      </trkpt>
      <trkpt lat="48.93277" lon="2.02879">
        <ele>14.3</ele>
        <time>2022-04-19T08:20:14Z</time>
      </trkpt>
      <trkpt lat="48.93281" lon="2.02885">
        <ele>13.5</ele>
        <time>2022-04-19T08:20:19Z</time>
      </trkpt>
      <trkpt lat="48.93283" lon="2.02892">
        <ele>12.8</ele>
        <time>2022-04-19T08:20:24Z</time>
      </trkpt>
      <trkpt lat="48.93287" lon="2.02898">
        <ele>13.5</ele>
        <time>2022-04-19T08:20:28Z</time>
      </trkpt>
      <trkpt lat="48.9329" lon="2.02904">
        <ele>11.1</ele>
        <time>2022-04-19T08:20:33Z</time>
      </trkpt>
      <trkpt lat="48.93295" lon="2.02909">
        <ele>10.9</ele>
        <time>2022-04-19T08:20:37Z</time>
      </trkpt>
      <trkpt lat="48.93298" lon="2.02915">
        <ele>11.8</ele>
        <time>2022-04-19T08:20:41Z</time>
      </trkpt>
      <trkpt lat="48.93301" lon="2.02922">
        <ele>11</ele>
        <time>2022-04-19T08:20:46Z</time>
      </trkpt>
      <trkpt lat="48.93304" lon="2.02928">
        <ele>11.3</ele>
        <time>2022-04-19T08:20:49Z</time>
      </trkpt>
      <trkpt lat="48.93306" lon="2.02934">
        <ele>12.8</ele>
        <time>2022-04-19T08:20:52Z</time>
      </trkpt>
      <trkpt lat="48.93309" lon="2.02939">
        <ele>11.3</ele>
        <time>2022-04-19T08:20:56Z</time>
      </trkpt>
      <trkpt lat="48.93313" lon="2.02945">
        <ele>11.8</ele>
        <time>2022-04-19T08:21:00Z</time>
      </trkpt>
      <trkpt lat="48.93317" lon="2.02952">
        <ele>11.1</ele>
        <time>2022-04-19T08:21:05Z</time>
      </trkpt>
      <trkpt lat="48.9332" lon="2.02958">
        <ele>11.6</ele>
        <time>2022-04-19T08:21:09Z</time>
      </trkpt>
      <trkpt lat="48.93323" lon="2.02965">
        <ele>9</ele>
        <time>2022-04-19T08:21:13Z</time>
      </trkpt>
      <trkpt lat="48.93326" lon="2.02972">
        <ele>11</ele>
        <time>2022-04-19T08:21:18Z</time>
      </trkpt>
      <trkpt lat="48.93329" lon="2.02978">
        <ele>11.9</ele>
        <time>2022-04-19T08:21:22Z</time>
      </trkpt>
      <trkpt lat="48.93333" lon="2.02984">
        <ele>12.8</ele>
        <time>2022-04-19T08:21:26Z</time>
      </trkpt>
      <trkpt lat="48.93336" lon="2.02991">
        <ele>14</ele>
        <time>2022-04-19T08:21:30Z</time>
      </trkpt>
      <trkpt lat="48.93339" lon="2.02997">
        <ele>13</ele>
        <time>2022-04-19T08:21:34Z</time>
      </trkpt>
      <trkpt lat="48.93342" lon="2.03003">
        <ele>13.4</ele>
        <time>2022-04-19T08:21:38Z</time>
      </trkpt>
      <trkpt lat="48.93345" lon="2.03009">
        <ele>12.5</ele>
        <time>2022-04-19T08:21:41Z</time>
      </trkpt>
      <trkpt lat="48.93349" lon="2.03015">
        <ele>12</ele>
        <time>2022-04-19T08:21:46Z</time>
      </trkpt>
      <trkpt lat="48.93352" lon="2.03022">
        <ele>13</ele>
        <time>2022-04-19T08:21:50Z</time>
      </trkpt>
      <trkpt lat="48.93355" lon="2.03028">
        <ele>12.3</ele>
        <time>2022-04-19T08:21:54Z</time>
      </trkpt>
      <trkpt lat="48.93358" lon="2.03035">
        <ele>11.3</ele>
        <time>2022-04-19T08:21:58Z</time>
      </trkpt>
      <trkpt lat="48.93362" lon="2.0304">
        <ele>12.3</ele>
        <time>2022-04-19T08:22:02Z</time>
      </trkpt>
      <trkpt lat="48.93365" lon="2.03045">
        <ele>13.3</ele>
        <time>2022-04-19T08:22:06Z</time>
      </trkpt>
      <trkpt lat="48.93369" lon="2.03049">
        <ele>13.8</ele>
        <time>2022-04-19T08:22:10Z</time>
      </trkpt>
      <trkpt lat="48.93372" lon="2.03056">
        <ele>14.5</ele>
        <time>2022-04-19T08:22:14Z</time>
      </trkpt>
      <trkpt lat="48.93373" lon="2.03063">
        <ele>13.1</ele>
        <time>2022-04-19T08:22:18Z</time>
      </trkpt>
      <trkpt lat="48.93375" lon="2.0307">
        <ele>11.8</ele>
        <time>2022-04-19T08:22:22Z</time>
      </trkpt>
      <trkpt lat="48.93377" lon="2.03078">
        <ele>14.3</ele>
        <time>2022-04-19T08:22:26Z</time>
      </trkpt>
      <trkpt lat="48.93379" lon="2.03085">
        <ele>13.8</ele>
        <time>2022-04-19T08:22:30Z</time>
      </trkpt>
      <trkpt lat="48.93381" lon="2.03092">
        <ele>14</ele>
        <time>2022-04-19T08:22:34Z</time>
      </trkpt>
      <trkpt lat="48.93384" lon="2.031">
        <ele>15.6</ele>
        <time>2022-04-19T08:22:38Z</time>
      </trkpt>
      <trkpt lat="48.93387" lon="2.03107">
        <ele>14.6</ele>
        <time>2022-04-19T08:22:43Z</time>
      </trkpt>
      <trkpt lat="48.9339" lon="2.03114">
        <ele>16.5</ele>
        <time>2022-04-19T08:22:47Z</time>
      </trkpt>
      <trkpt lat="48.93392" lon="2.03122">
        <ele>16.7</ele>
        <time>2022-04-19T08:22:51Z</time>
      </trkpt>
      <trkpt lat="48.93393" lon="2.03128">
        <ele>15.2</ele>
        <time>2022-04-19T08:22:54Z</time>
      </trkpt>
      <trkpt lat="48.93395" lon="2.03135">
        <ele>15</ele>
        <time>2022-04-19T08:22:58Z</time>
      </trkpt>
      <trkpt lat="48.93397" lon="2.03143">
        <ele>16.4</ele>
        <time>2022-04-19T08:23:02Z</time>
      </trkpt>
      <trkpt lat="48.93399" lon="2.03151">
        <ele>16.9</ele>
        <time>2022-04-19T08:23:06Z</time>
      </trkpt>
      <trkpt lat="48.93402" lon="2.03158">
        <ele>15.7</ele>
        <time>2022-04-19T08:23:10Z</time>
      </trkpt>
      <trkpt lat="48.93403" lon="2.03165">
        <ele>14.6</ele>
        <time>2022-04-19T08:23:14Z</time>
      </trkpt>
      <trkpt lat="48.93406" lon="2.03172">
        <ele>15.1</ele>
        <time>2022-04-19T08:23:18Z</time>
      </trkpt>
      <trkpt lat="48.93409" lon="2.03179">
        <ele>14.3</ele>
        <time>2022-04-19T08:23:22Z</time>
      </trkpt>
      <trkpt lat="48.93411" lon="2.03186">
        <ele>14.4</ele>
        <time>2022-04-19T08:23:26Z</time>
      </trkpt>
      <trkpt lat="48.93413" lon="2.03194">
        <ele>12.7</ele>
        <time>2022-04-19T08:23:31Z</time>
      </trkpt>
      <trkpt lat="48.93415" lon="2.032">
        <ele>13.7</ele>
        <time>2022-04-19T08:23:34Z</time>
      </trkpt>
      <trkpt lat="48.93417" lon="2.03208">
        <ele>13.2</ele>
        <time>2022-04-19T08:23:38Z</time>
      </trkpt>
      <trkpt lat="48.93419" lon="2.03216">
        <ele>13.8</ele>
        <time>2022-04-19T08:23:42Z</time>
      </trkpt>
      <trkpt lat="48.9342" lon="2.03223">
        <ele>15.3</ele>
        <time>2022-04-19T08:23:45Z</time>
      </trkpt>
      <trkpt lat="48.93421" lon="2.03231">
        <ele>14.3</ele>
        <time>2022-04-19T08:23:49Z</time>
      </trkpt>
      <trkpt lat="48.93421" lon="2.03238">
        <ele>13.9</ele>
        <time>2022-04-19T08:23:52Z</time>
      </trkpt>
      <trkpt lat="48.93424" lon="2.03245">
        <ele>14.2</ele>
        <time>2022-04-19T08:23:59Z</time>
      </trkpt>
      <trkpt lat="48.93426" lon="2.03252">
        <ele>12.6</ele>
        <time>2022-04-19T08:24:04Z</time>
      </trkpt>
      <trkpt lat="48.93427" lon="2.03259">
        <ele>15.6</ele>
        <time>2022-04-19T08:24:08Z</time>
      </trkpt>
      <trkpt lat="48.93427" lon="2.03267">
        <ele>15.2</ele>
        <time>2022-04-19T08:24:12Z</time>
      </trkpt>
      <trkpt lat="48.93429" lon="2.03273">
        <ele>15.4</ele>
        <time>2022-04-19T08:24:16Z</time>
      </trkpt>
      <trkpt lat="48.93431" lon="2.0328">
        <ele>16.1</ele>
        <time>2022-04-19T08:24:19Z</time>
      </trkpt>
      <trkpt lat="48.93434" lon="2.03286">
        <ele>15.8</ele>
        <time>2022-04-19T08:24:23Z</time>
      </trkpt>
      <trkpt lat="48.93437" lon="2.03294">
        <ele>15</ele>
        <time>2022-04-19T08:24:27Z</time>
      </trkpt>
      <trkpt lat="48.9344" lon="2.03301">
        <ele>13.7</ele>
        <time>2022-04-19T08:24:31Z</time>
      </trkpt>
      <trkpt lat="48.93442" lon="2.03309">
        <ele>12.8</ele>
        <time>2022-04-19T08:24:35Z</time>
      </trkpt>
      <trkpt lat="48.93444" lon="2.03315">
        <ele>12.9</ele>
        <time>2022-04-19T08:24:39Z</time>
      </trkpt>
      <trkpt lat="48.93446" lon="2.03321">
        <ele>12.3</ele>
        <time>2022-04-19T08:24:42Z</time>
      </trkpt>
      <trkpt lat="48.93449" lon="2.03329">
        <ele>12.5</ele>
        <time>2022-04-19T08:24:47Z</time>
      </trkpt>
      <trkpt lat="48.93451" lon="2.03338">
        <ele>12.3</ele>
        <time>2022-04-19T08:24:52Z</time>
      </trkpt>
      <trkpt lat="48.93454" lon="2.03344">
        <ele>12.5</ele>
        <time>2022-04-19T08:24:56Z</time>
      </trkpt>
      <trkpt lat="48.93458" lon="2.03349">
        <ele>12.6</ele>
        <time>2022-04-19T08:24:59Z</time>
      </trkpt>
      <trkpt lat="48.93461" lon="2.03354">
        <ele>13.6</ele>
        <time>2022-04-19T08:25:03Z</time>
      </trkpt>
      <trkpt lat="48.93464" lon="2.0336">
        <ele>14.9</ele>
        <time>2022-04-19T08:25:07Z</time>
      </trkpt>
      <trkpt lat="48.93466" lon="2.03367">
        <ele>15.4</ele>
        <time>2022-04-19T08:25:11Z</time>
      </trkpt>
      <trkpt lat="48.93467" lon="2.03375">
        <ele>13.8</ele>
        <time>2022-04-19T08:25:15Z</time>
      </trkpt>
      <trkpt lat="48.93469" lon="2.03382">
        <ele>13.8</ele>
        <time>2022-04-19T08:25:19Z</time>
      </trkpt>
      <trkpt lat="48.93473" lon="2.03387">
        <ele>12.6</ele>
        <time>2022-04-19T08:25:23Z</time>
      </trkpt>
      <trkpt lat="48.93476" lon="2.03392">
        <ele>13.7</ele>
        <time>2022-04-19T08:25:27Z</time>
      </trkpt>
      <trkpt lat="48.93481" lon="2.03391">
        <ele>15.2</ele>
        <time>2022-04-19T08:25:31Z</time>
      </trkpt>
      <trkpt lat="48.93485" lon="2.03396">
        <ele>16.8</ele>
        <time>2022-04-19T08:25:34Z</time>
      </trkpt>
      <trkpt lat="48.93486" lon="2.03405">
        <ele>17.4</ele>
        <time>2022-04-19T08:25:38Z</time>
      </trkpt>
      <trkpt lat="48.93488" lon="2.03414">
        <ele>16.8</ele>
        <time>2022-04-19T08:25:42Z</time>
      </trkpt>
      <trkpt lat="48.93489" lon="2.03421">
        <ele>14.5</ele>
        <time>2022-04-19T08:25:46Z</time>
      </trkpt>
      <trkpt lat="48.93491" lon="2.03429">
        <ele>13.3</ele>
        <time>2022-04-19T08:25:50Z</time>
      </trkpt>
      <trkpt lat="48.93493" lon="2.03436">
        <ele>13.4</ele>
        <time>2022-04-19T08:25:54Z</time>
      </trkpt>
      <trkpt lat="48.93496" lon="2.03442">
        <ele>14.1</ele>
        <time>2022-04-19T08:25:57Z</time>
      </trkpt>
      <trkpt lat="48.93499" lon="2.03449">
        <ele>13.9</ele>
        <time>2022-04-19T08:26:02Z</time>
      </trkpt>
      <trkpt lat="48.93502" lon="2.03456">
        <ele>14.7</ele>
        <time>2022-04-19T08:26:05Z</time>
      </trkpt>
      <trkpt lat="48.93504" lon="2.03463">
        <ele>14.6</ele>
        <time>2022-04-19T08:26:09Z</time>
      </trkpt>
      <trkpt lat="48.93506" lon="2.0347">
        <ele>13.7</ele>
        <time>2022-04-19T08:26:13Z</time>
      </trkpt>
      <trkpt lat="48.93508" lon="2.03477">
        <ele>14.9</ele>
        <time>2022-04-19T08:26:17Z</time>
      </trkpt>
      <trkpt lat="48.93509" lon="2.03484">
        <ele>13.6</ele>
        <time>2022-04-19T08:26:22Z</time>
      </trkpt>
      <trkpt lat="48.93513" lon="2.03491">
        <ele>14</ele>
        <time>2022-04-19T08:26:26Z</time>
      </trkpt>
      <trkpt lat="48.93516" lon="2.03497">
        <ele>16</ele>
        <time>2022-04-19T08:26:30Z</time>
      </trkpt>
      <trkpt lat="48.9352" lon="2.03504">
        <ele>15.4</ele>
        <time>2022-04-19T08:26:33Z</time>
      </trkpt>
      <trkpt lat="48.93524" lon="2.0351">
        <ele>15.4</ele>
        <time>2022-04-19T08:26:37Z</time>
      </trkpt>
      <trkpt lat="48.93527" lon="2.03517">
        <ele>15.8</ele>
        <time>2022-04-19T08:26:42Z</time>
      </trkpt>
      <trkpt lat="48.9353" lon="2.03523">
        <ele>15.5</ele>
        <time>2022-04-19T08:26:45Z</time>
      </trkpt>
      <trkpt lat="48.93531" lon="2.0353">
        <ele>16</ele>
        <time>2022-04-19T08:26:48Z</time>
      </trkpt>
      <trkpt lat="48.93534" lon="2.03538">
        <ele>15.7</ele>
        <time>2022-04-19T08:26:53Z</time>
      </trkpt>
      <trkpt lat="48.93537" lon="2.03545">
        <ele>14.5</ele>
        <time>2022-04-19T08:26:57Z</time>
      </trkpt>
      <trkpt lat="48.9354" lon="2.0355">
        <ele>13.9</ele>
        <time>2022-04-19T08:27:01Z</time>
      </trkpt>
      <trkpt lat="48.93544" lon="2.03555">
        <ele>13.1</ele>
        <time>2022-04-19T08:27:04Z</time>
      </trkpt>
      <trkpt lat="48.93547" lon="2.03562">
        <ele>13.6</ele>
        <time>2022-04-19T08:27:09Z</time>
      </trkpt>
      <trkpt lat="48.93551" lon="2.03567">
        <ele>14.6</ele>
        <time>2022-04-19T08:27:13Z</time>
      </trkpt>
      <trkpt lat="48.93555" lon="2.03573">
        <ele>15.2</ele>
        <time>2022-04-19T08:27:16Z</time>
      </trkpt>
      <trkpt lat="48.93558" lon="2.03578">
        <ele>15.2</ele>
        <time>2022-04-19T08:27:20Z</time>
      </trkpt>
      <trkpt lat="48.93561" lon="2.03584">
        <ele>16.6</ele>
        <time>2022-04-19T08:27:24Z</time>
      </trkpt>
      <trkpt lat="48.93565" lon="2.0359">
        <ele>17.9</ele>
        <time>2022-04-19T08:27:28Z</time>
      </trkpt>
      <trkpt lat="48.93569" lon="2.03595">
        <ele>18.4</ele>
        <time>2022-04-19T08:27:32Z</time>
      </trkpt>
      <trkpt lat="48.93572" lon="2.03601">
        <ele>17.5</ele>
        <time>2022-04-19T08:27:36Z</time>
      </trkpt>
      <trkpt lat="48.93577" lon="2.03606">
        <ele>15.2</ele>
        <time>2022-04-19T08:27:41Z</time>
      </trkpt>
      <trkpt lat="48.93581" lon="2.03611">
        <ele>14</ele>
        <time>2022-04-19T08:27:45Z</time>
      </trkpt>
      <trkpt lat="48.93585" lon="2.03617">
        <ele>14.8</ele>
        <time>2022-04-19T08:27:49Z</time>
      </trkpt>
      <trkpt lat="48.93589" lon="2.03623">
        <ele>17</ele>
        <time>2022-04-19T08:27:52Z</time>
      </trkpt>
      <trkpt lat="48.93592" lon="2.0363">
        <ele>17.2</ele>
        <time>2022-04-19T08:27:56Z</time>
      </trkpt>
      <trkpt lat="48.93596" lon="2.03634">
        <ele>16.6</ele>
        <time>2022-04-19T08:28:00Z</time>
      </trkpt>
      <trkpt lat="48.936" lon="2.0364">
        <ele>15.3</ele>
        <time>2022-04-19T08:28:05Z</time>
      </trkpt>
      <trkpt lat="48.93603" lon="2.03645">
        <ele>14.7</ele>
        <time>2022-04-19T08:28:08Z</time>
      </trkpt>
      <trkpt lat="48.93606" lon="2.03651">
        <ele>14.6</ele>
        <time>2022-04-19T08:28:11Z</time>
      </trkpt>
      <trkpt lat="48.93609" lon="2.03657">
        <ele>15.9</ele>
        <time>2022-04-19T08:28:15Z</time>
      </trkpt>
      <trkpt lat="48.93612" lon="2.03662">
        <ele>15.6</ele>
        <time>2022-04-19T08:28:18Z</time>
      </trkpt>
      <trkpt lat="48.93616" lon="2.03668">
        <ele>17.8</ele>
        <time>2022-04-19T08:28:22Z</time>
      </trkpt>
      <trkpt lat="48.93619" lon="2.03674">
        <ele>18.7</ele>
        <time>2022-04-19T08:28:26Z</time>
      </trkpt>
      <trkpt lat="48.93622" lon="2.0368">
        <ele>18.1</ele>
        <time>2022-04-19T08:28:30Z</time>
      </trkpt>
      <trkpt lat="48.93625" lon="2.03685">
        <ele>17.5</ele>
        <time>2022-04-19T08:28:34Z</time>
      </trkpt>
      <trkpt lat="48.93629" lon="2.03692">
        <ele>16.2</ele>
        <time>2022-04-19T08:28:39Z</time>
      </trkpt>
      <trkpt lat="48.93634" lon="2.03696">
        <ele>17</ele>
        <time>2022-04-19T08:28:43Z</time>
      </trkpt>
      <trkpt lat="48.93638" lon="2.03701">
        <ele>14.6</ele>
        <time>2022-04-19T08:28:47Z</time>
      </trkpt>
      <trkpt lat="48.93642" lon="2.03706">
        <ele>14.1</ele>
        <time>2022-04-19T08:28:51Z</time>
      </trkpt>
      <trkpt lat="48.93646" lon="2.03709">
        <ele>12.8</ele>
        <time>2022-04-19T08:28:55Z</time>
      </trkpt>
      <trkpt lat="48.9365" lon="2.03714">
        <ele>11.8</ele>
        <time>2022-04-19T08:28:59Z</time>
      </trkpt>
      <trkpt lat="48.93653" lon="2.0372">
        <ele>12.4</ele>
        <time>2022-04-19T08:29:03Z</time>
      </trkpt>
      <trkpt lat="48.93657" lon="2.03726">
        <ele>14.2</ele>
        <time>2022-04-19T08:29:07Z</time>
      </trkpt>
      <trkpt lat="48.93661" lon="2.03731">
        <ele>15.2</ele>
        <time>2022-04-19T08:29:10Z</time>
      </trkpt>
      <trkpt lat="48.93665" lon="2.03736">
        <ele>15.1</ele>
        <time>2022-04-19T08:29:14Z</time>
      </trkpt>
      <trkpt lat="48.93668" lon="2.03741">
        <ele>15.2</ele>
        <time>2022-04-19T08:29:17Z</time>
      </trkpt>
      <trkpt lat="48.93673" lon="2.03745">
        <ele>13.4</ele>
        <time>2022-04-19T08:29:21Z</time>
      </trkpt>
      <trkpt lat="48.93677" lon="2.03749">
        <ele>13.8</ele>
        <time>2022-04-19T08:29:24Z</time>
      </trkpt>
      <trkpt lat="48.93681" lon="2.03754">
        <ele>13.6</ele>
        <time>2022-04-19T08:29:28Z</time>
      </trkpt>
      <trkpt lat="48.93686" lon="2.03758">
        <ele>11.9</ele>
        <time>2022-04-19T08:29:32Z</time>
      </trkpt>
      <trkpt lat="48.9369" lon="2.03762">
        <ele>14.4</ele>
        <time>2022-04-19T08:29:36Z</time>
      </trkpt>
      <trkpt lat="48.93693" lon="2.03768">
        <ele>14.1</ele>
        <time>2022-04-19T08:29:40Z</time>
      </trkpt>
      <trkpt lat="48.93696" lon="2.03773">
        <ele>15.2</ele>
        <time>2022-04-19T08:29:44Z</time>
      </trkpt>
      <trkpt lat="48.937" lon="2.03778">
        <ele>14.6</ele>
        <time>2022-04-19T08:29:47Z</time>
      </trkpt>
      <trkpt lat="48.93704" lon="2.03784">
        <ele>14.6</ele>
        <time>2022-04-19T08:29:51Z</time>
      </trkpt>
      <trkpt lat="48.93707" lon="2.03789">
        <ele>13.4</ele>
        <time>2022-04-19T08:29:55Z</time>
      </trkpt>
      <trkpt lat="48.9371" lon="2.03795">
        <ele>13</ele>
        <time>2022-04-19T08:29:59Z</time>
      </trkpt>
      <trkpt lat="48.93713" lon="2.038">
        <ele>13.5</ele>
        <time>2022-04-19T08:30:03Z</time>
      </trkpt>
      <trkpt lat="48.93717" lon="2.03805">
        <ele>10.3</ele>
        <time>2022-04-19T08:30:07Z</time>
      </trkpt>
      <trkpt lat="48.93721" lon="2.0381">
        <ele>7.3</ele>
        <time>2022-04-19T08:30:11Z</time>
      </trkpt>
      <trkpt lat="48.93725" lon="2.03814">
        <ele>8.4</ele>
        <time>2022-04-19T08:30:15Z</time>
      </trkpt>
      <trkpt lat="48.93729" lon="2.03817">
        <ele>8.2</ele>
        <time>2022-04-19T08:30:19Z</time>
      </trkpt>
      <trkpt lat="48.93733" lon="2.0382">
        <ele>10.2</ele>
        <time>2022-04-19T08:30:23Z</time>
      </trkpt>
      <trkpt lat="48.93738" lon="2.03823">
        <ele>10.3</ele>
        <time>2022-04-19T08:30:27Z</time>
      </trkpt>
      <trkpt lat="48.93742" lon="2.03825">
        <ele>11.5</ele>
        <time>2022-04-19T08:30:31Z</time>
      </trkpt>
      <trkpt lat="48.93747" lon="2.03826">
        <ele>9.9</ele>
        <time>2022-04-19T08:30:35Z</time>
      </trkpt>
      <trkpt lat="48.93752" lon="2.03829">
        <ele>10.6</ele>
        <time>2022-04-19T08:30:40Z</time>
      </trkpt>
      <trkpt lat="48.93757" lon="2.03833">
        <ele>9.6</ele>
        <time>2022-04-19T08:30:44Z</time>
      </trkpt>
      <trkpt lat="48.93761" lon="2.03837">
        <ele>10.5</ele>
        <time>2022-04-19T08:30:47Z</time>
      </trkpt>
      <trkpt lat="48.93765" lon="2.03843">
        <ele>11</ele>
        <time>2022-04-19T08:30:51Z</time>
      </trkpt>
      <trkpt lat="48.93769" lon="2.03848">
        <ele>12.9</ele>
        <time>2022-04-19T08:30:55Z</time>
      </trkpt>
      <trkpt lat="48.93773" lon="2.03853">
        <ele>13</ele>
        <time>2022-04-19T08:30:59Z</time>
      </trkpt>
      <trkpt lat="48.93777" lon="2.0386">
        <ele>13.4</ele>
        <time>2022-04-19T08:31:04Z</time>
      </trkpt>
      <trkpt lat="48.93782" lon="2.03863">
        <ele>13.1</ele>
        <time>2022-04-19T08:31:07Z</time>
      </trkpt>
      <trkpt lat="48.93787" lon="2.03865">
        <ele>12.3</ele>
        <time>2022-04-19T08:31:11Z</time>
      </trkpt>
      <trkpt lat="48.93792" lon="2.03869">
        <ele>12.6</ele>
        <time>2022-04-19T08:31:14Z</time>
      </trkpt>
      <trkpt lat="48.93797" lon="2.03872">
        <ele>13.7</ele>
        <time>2022-04-19T08:31:18Z</time>
      </trkpt>
      <trkpt lat="48.93801" lon="2.03875">
        <ele>13.3</ele>
        <time>2022-04-19T08:31:21Z</time>
      </trkpt>
      <trkpt lat="48.93805" lon="2.03878">
        <ele>13.9</ele>
        <time>2022-04-19T08:31:25Z</time>
      </trkpt>
      <trkpt lat="48.9381" lon="2.03883">
        <ele>13.7</ele>
        <time>2022-04-19T08:31:29Z</time>
      </trkpt>
      <trkpt lat="48.93815" lon="2.03886">
        <ele>16.1</ele>
        <time>2022-04-19T08:31:32Z</time>
      </trkpt>
      <trkpt lat="48.9382" lon="2.0389">
        <ele>17.9</ele>
        <time>2022-04-19T08:31:36Z</time>
      </trkpt>
      <trkpt lat="48.93824" lon="2.03893">
        <ele>17.3</ele>
        <time>2022-04-19T08:31:39Z</time>
      </trkpt>
      <trkpt lat="48.93829" lon="2.03897">
        <ele>15.8</ele>
        <time>2022-04-19T08:31:44Z</time>
      </trkpt>
      <trkpt lat="48.93834" lon="2.039">
        <ele>14.8</ele>
        <time>2022-04-19T08:31:47Z</time>
      </trkpt>
      <trkpt lat="48.9384" lon="2.03904">
        <ele>14.1</ele>
        <time>2022-04-19T08:31:51Z</time>
      </trkpt>
      <trkpt lat="48.93845" lon="2.03907">
        <ele>14.1</ele>
        <time>2022-04-19T08:31:56Z</time>
      </trkpt>
      <trkpt lat="48.9385" lon="2.0391">
        <ele>13.1</ele>
        <time>2022-04-19T08:32:00Z</time>
      </trkpt>
      <trkpt lat="48.93855" lon="2.03915">
        <ele>14.6</ele>
        <time>2022-04-19T08:32:04Z</time>
      </trkpt>
      <trkpt lat="48.93858" lon="2.03922">
        <ele>13.9</ele>
        <time>2022-04-19T08:32:08Z</time>
      </trkpt>
      <trkpt lat="48.93861" lon="2.03927">
        <ele>15.6</ele>
        <time>2022-04-19T08:32:12Z</time>
      </trkpt>
      <trkpt lat="48.93865" lon="2.03932">
        <ele>15.6</ele>
        <time>2022-04-19T08:32:16Z</time>
      </trkpt>
      <trkpt lat="48.93869" lon="2.03936">
        <ele>15.5</ele>
        <time>2022-04-19T08:32:20Z</time>
      </trkpt>
      <trkpt lat="48.93874" lon="2.03938">
        <ele>14.8</ele>
        <time>2022-04-19T08:32:24Z</time>
      </trkpt>
      <trkpt lat="48.93879" lon="2.03939">
        <ele>13.6</ele>
        <time>2022-04-19T08:32:27Z</time>
      </trkpt>
      <trkpt lat="48.93885" lon="2.0394">
        <ele>13.8</ele>
        <time>2022-04-19T08:32:32Z</time>
      </trkpt>
      <trkpt lat="48.93889" lon="2.03946">
        <ele>13.6</ele>
        <time>2022-04-19T08:32:36Z</time>
      </trkpt>
      <trkpt lat="48.93893" lon="2.03952">
        <ele>13.8</ele>
        <time>2022-04-19T08:32:40Z</time>
      </trkpt>
      <trkpt lat="48.93898" lon="2.03957">
        <ele>13.4</ele>
        <time>2022-04-19T08:32:45Z</time>
      </trkpt>
      <trkpt lat="48.93903" lon="2.0396">
        <ele>12.5</ele>
        <time>2022-04-19T08:32:49Z</time>
      </trkpt>
      <trkpt lat="48.93908" lon="2.03963">
        <ele>12.3</ele>
        <time>2022-04-19T08:32:53Z</time>
      </trkpt>
      <trkpt lat="48.93913" lon="2.03966">
        <ele>11.7</ele>
        <time>2022-04-19T08:32:56Z</time>
      </trkpt>
      <trkpt lat="48.93916" lon="2.0397">
        <ele>12.4</ele>
        <time>2022-04-19T08:32:59Z</time>
      </trkpt>
      <trkpt lat="48.93921" lon="2.03973">
        <ele>12.8</ele>
        <time>2022-04-19T08:33:03Z</time>
      </trkpt>
      <trkpt lat="48.93927" lon="2.03976">
        <ele>13.5</ele>
        <time>2022-04-19T08:33:07Z</time>
      </trkpt>
      <trkpt lat="48.93932" lon="2.03979">
        <ele>15.2</ele>
        <time>2022-04-19T08:33:11Z</time>
      </trkpt>
      <trkpt lat="48.93937" lon="2.03982">
        <ele>15.9</ele>
        <time>2022-04-19T08:33:14Z</time>
      </trkpt>
      <trkpt lat="48.93941" lon="2.03986">
        <ele>15.3</ele>
        <time>2022-04-19T08:33:18Z</time>
      </trkpt>
      <trkpt lat="48.93946" lon="2.03989">
        <ele>15.5</ele>
        <time>2022-04-19T08:33:21Z</time>
      </trkpt>
      <trkpt lat="48.9395" lon="2.03992">
        <ele>15.2</ele>
        <time>2022-04-19T08:33:26Z</time>
      </trkpt>
      <trkpt lat="48.93955" lon="2.03994">
        <ele>16.2</ele>
        <time>2022-04-19T08:33:29Z</time>
      </trkpt>
      <trkpt lat="48.9396" lon="2.03998">
        <ele>16.7</ele>
        <time>2022-04-19T08:33:34Z</time>
      </trkpt>
      <trkpt lat="48.93964" lon="2.04001">
        <ele>16.6</ele>
        <time>2022-04-19T08:33:38Z</time>
      </trkpt>
      <trkpt lat="48.93969" lon="2.04006">
        <ele>14.2</ele>
        <time>2022-04-19T08:33:42Z</time>
      </trkpt>
      <trkpt lat="48.93974" lon="2.04009">
        <ele>14.1</ele>
        <time>2022-04-19T08:33:45Z</time>
      </trkpt>
      <trkpt lat="48.93978" lon="2.04013">
        <ele>14.5</ele>
        <time>2022-04-19T08:33:48Z</time>
      </trkpt>
      <trkpt lat="48.93982" lon="2.04017">
        <ele>15.1</ele>
        <time>2022-04-19T08:33:52Z</time>
      </trkpt>
      <trkpt lat="48.93986" lon="2.04022">
        <ele>14.8</ele>
        <time>2022-04-19T08:33:55Z</time>
      </trkpt>
      <trkpt lat="48.93991" lon="2.04024">
        <ele>15.1</ele>
        <time>2022-04-19T08:33:59Z</time>
      </trkpt>
      <trkpt lat="48.93996" lon="2.04029">
        <ele>16</ele>
        <time>2022-04-19T08:34:03Z</time>
      </trkpt>
      <trkpt lat="48.94001" lon="2.04033">
        <ele>17</ele>
        <time>2022-04-19T08:34:07Z</time>
      </trkpt>
      <trkpt lat="48.94006" lon="2.04036">
        <ele>17.6</ele>
        <time>2022-04-19T08:34:11Z</time>
      </trkpt>
      <trkpt lat="48.9401" lon="2.04042">
        <ele>19.2</ele>
        <time>2022-04-19T08:34:14Z</time>
      </trkpt>
      <trkpt lat="48.94014" lon="2.04046">
        <ele>19.6</ele>
        <time>2022-04-19T08:34:17Z</time>
      </trkpt>
      <trkpt lat="48.94018" lon="2.04049">
        <ele>17.7</ele>
        <time>2022-04-19T08:34:20Z</time>
      </trkpt>
      <trkpt lat="48.94022" lon="2.04051">
        <ele>15.8</ele>
        <time>2022-04-19T08:34:24Z</time>
      </trkpt>
      <trkpt lat="48.94027" lon="2.04054">
        <ele>15.9</ele>
        <time>2022-04-19T08:34:28Z</time>
      </trkpt>
      <trkpt lat="48.94032" lon="2.04056">
        <ele>15.3</ele>
        <time>2022-04-19T08:34:31Z</time>
      </trkpt>
      <trkpt lat="48.94036" lon="2.04058">
        <ele>15.2</ele>
        <time>2022-04-19T08:34:34Z</time>
      </trkpt>
      <trkpt lat="48.94041" lon="2.04062">
        <ele>15.5</ele>
        <time>2022-04-19T08:34:38Z</time>
      </trkpt>
      <trkpt lat="48.94045" lon="2.04068">
        <ele>15.6</ele>
        <time>2022-04-19T08:34:42Z</time>
      </trkpt>
      <trkpt lat="48.94049" lon="2.04072">
        <ele>15.6</ele>
        <time>2022-04-19T08:34:45Z</time>
      </trkpt>
      <trkpt lat="48.94053" lon="2.04075">
        <ele>15</ele>
        <time>2022-04-19T08:34:48Z</time>
      </trkpt>
      <trkpt lat="48.94058" lon="2.04078">
        <ele>15</ele>
        <time>2022-04-19T08:34:52Z</time>
      </trkpt>
      <trkpt lat="48.94063" lon="2.0408">
        <ele>13.7</ele>
        <time>2022-04-19T08:34:56Z</time>
      </trkpt>
      <trkpt lat="48.94068" lon="2.04082">
        <ele>14.6</ele>
        <time>2022-04-19T08:35:00Z</time>
      </trkpt>
      <trkpt lat="48.94072" lon="2.04086">
        <ele>13.4</ele>
        <time>2022-04-19T08:35:03Z</time>
      </trkpt>
      <trkpt lat="48.94077" lon="2.04089">
        <ele>13.8</ele>
        <time>2022-04-19T08:35:06Z</time>
      </trkpt>
      <trkpt lat="48.94081" lon="2.04093">
        <ele>13.8</ele>
        <time>2022-04-19T08:35:10Z</time>
      </trkpt>
      <trkpt lat="48.94086" lon="2.04096">
        <ele>14.1</ele>
        <time>2022-04-19T08:35:15Z</time>
      </trkpt>
      <trkpt lat="48.94091" lon="2.041">
        <ele>14.7</ele>
        <time>2022-04-19T08:35:18Z</time>
      </trkpt>
      <trkpt lat="48.94095" lon="2.04103">
        <ele>14.4</ele>
        <time>2022-04-19T08:35:22Z</time>
      </trkpt>
      <trkpt lat="48.941" lon="2.04107">
        <ele>13.9</ele>
        <time>2022-04-19T08:35:25Z</time>
      </trkpt>
      <trkpt lat="48.94105" lon="2.04109">
        <ele>13.7</ele>
        <time>2022-04-19T08:35:29Z</time>
      </trkpt>
      <trkpt lat="48.9411" lon="2.04109">
        <ele>12.5</ele>
        <time>2022-04-19T08:35:33Z</time>
      </trkpt>
      <trkpt lat="48.94116" lon="2.04112">
        <ele>14.4</ele>
        <time>2022-04-19T08:35:38Z</time>
      </trkpt>
      <trkpt lat="48.94121" lon="2.04116">
        <ele>14.8</ele>
        <time>2022-04-19T08:35:42Z</time>
      </trkpt>
      <trkpt lat="48.94125" lon="2.0412">
        <ele>16.1</ele>
        <time>2022-04-19T08:35:46Z</time>
      </trkpt>
      <trkpt lat="48.94129" lon="2.04125">
        <ele>17</ele>
        <time>2022-04-19T08:35:50Z</time>
      </trkpt>
      <trkpt lat="48.94134" lon="2.04127">
        <ele>18.6</ele>
        <time>2022-04-19T08:35:54Z</time>
      </trkpt>
      <trkpt lat="48.94139" lon="2.0413">
        <ele>18.1</ele>
        <time>2022-04-19T08:35:58Z</time>
      </trkpt>
      <trkpt lat="48.94143" lon="2.04135">
        <ele>17</ele>
        <time>2022-04-19T08:36:01Z</time>
      </trkpt>
      <trkpt lat="48.94147" lon="2.04139">
        <ele>18.3</ele>
        <time>2022-04-19T08:36:05Z</time>
      </trkpt>
      <trkpt lat="48.94152" lon="2.04143">
        <ele>19.2</ele>
        <time>2022-04-19T08:36:09Z</time>
      </trkpt>
      <trkpt lat="48.94157" lon="2.04146">
        <ele>19.4</ele>
        <time>2022-04-19T08:36:13Z</time>
      </trkpt>
      <trkpt lat="48.94161" lon="2.0415">
        <ele>20</ele>
        <time>2022-04-19T08:36:18Z</time>
      </trkpt>
      <trkpt lat="48.94165" lon="2.04154">
        <ele>20.5</ele>
        <time>2022-04-19T08:36:22Z</time>
      </trkpt>
      <trkpt lat="48.9417" lon="2.04158">
        <ele>21.7</ele>
        <time>2022-04-19T08:36:27Z</time>
      </trkpt>
      <trkpt lat="48.94175" lon="2.04157">
        <ele>20.3</ele>
        <time>2022-04-19T08:36:30Z</time>
      </trkpt>
      <trkpt lat="48.9418" lon="2.04157">
        <ele>19.7</ele>
        <time>2022-04-19T08:36:34Z</time>
      </trkpt>
      <trkpt lat="48.94184" lon="2.04158">
        <ele>18.2</ele>
        <time>2022-04-19T08:36:38Z</time>
      </trkpt>
      <trkpt lat="48.94189" lon="2.04159">
        <ele>16.5</ele>
        <time>2022-04-19T08:36:42Z</time>
      </trkpt>
      <trkpt lat="48.94194" lon="2.04162">
        <ele>14.5</ele>
        <time>2022-04-19T08:36:47Z</time>
      </trkpt>
      <trkpt lat="48.94194" lon="2.0417">
        <ele>13.3</ele>
        <time>2022-04-19T08:36:50Z</time>
      </trkpt>
      <trkpt lat="48.94199" lon="2.04172">
        <ele>15.2</ele>
        <time>2022-04-19T08:36:55Z</time>
      </trkpt>
      <trkpt lat="48.94205" lon="2.04173">
        <ele>13</ele>
        <time>2022-04-19T08:36:59Z</time>
      </trkpt>
      <trkpt lat="48.94209" lon="2.04175">
        <ele>13</ele>
        <time>2022-04-19T08:37:03Z</time>
      </trkpt>
      <trkpt lat="48.94214" lon="2.0418">
        <ele>14</ele>
        <time>2022-04-19T08:37:08Z</time>
      </trkpt>
      <trkpt lat="48.94218" lon="2.04183">
        <ele>15.5</ele>
        <time>2022-04-19T08:37:11Z</time>
      </trkpt>
      <trkpt lat="48.94223" lon="2.04184">
        <ele>16</ele>
        <time>2022-04-19T08:37:15Z</time>
      </trkpt>
      <trkpt lat="48.94228" lon="2.04185">
        <ele>16.7</ele>
        <time>2022-04-19T08:37:19Z</time>
      </trkpt>
      <trkpt lat="48.94233" lon="2.04187">
        <ele>14.7</ele>
        <time>2022-04-19T08:37:24Z</time>
      </trkpt>
      <trkpt lat="48.94239" lon="2.04189">
        <ele>15.4</ele>
        <time>2022-04-19T08:37:29Z</time>
      </trkpt>
      <trkpt lat="48.94244" lon="2.04192">
        <ele>16.1</ele>
        <time>2022-04-19T08:37:32Z</time>
      </trkpt>
      <trkpt lat="48.94248" lon="2.04195">
        <ele>15.7</ele>
        <time>2022-04-19T08:37:36Z</time>
      </trkpt>
      <trkpt lat="48.94254" lon="2.04198">
        <ele>15.3</ele>
        <time>2022-04-19T08:37:41Z</time>
      </trkpt>
      <trkpt lat="48.94259" lon="2.042">
        <ele>13.8</ele>
        <time>2022-04-19T08:37:45Z</time>
      </trkpt>
      <trkpt lat="48.94265" lon="2.04203">
        <ele>12.7</ele>
        <time>2022-04-19T08:37:50Z</time>
      </trkpt>
      <trkpt lat="48.94271" lon="2.04205">
        <ele>14.4</ele>
        <time>2022-04-19T08:37:54Z</time>
      </trkpt>
      <trkpt lat="48.94276" lon="2.04205">
        <ele>16.4</ele>
        <time>2022-04-19T08:37:59Z</time>
      </trkpt>
      <trkpt lat="48.94281" lon="2.04205">
        <ele>15.9</ele>
        <time>2022-04-19T08:38:03Z</time>
      </trkpt>
      <trkpt lat="48.94286" lon="2.04208">
        <ele>16.1</ele>
        <time>2022-04-19T08:38:07Z</time>
      </trkpt>
      <trkpt lat="48.94291" lon="2.04212">
        <ele>16.2</ele>
        <time>2022-04-19T08:38:10Z</time>
      </trkpt>
      <trkpt lat="48.94297" lon="2.04212">
        <ele>16.2</ele>
        <time>2022-04-19T08:38:14Z</time>
      </trkpt>
      <trkpt lat="48.94303" lon="2.04212">
        <ele>16.2</ele>
        <time>2022-04-19T08:38:18Z</time>
      </trkpt>
      <trkpt lat="48.94308" lon="2.04212">
        <ele>17.3</ele>
        <time>2022-04-19T08:38:22Z</time>
      </trkpt>
      <trkpt lat="48.94313" lon="2.04213">
        <ele>16</ele>
        <time>2022-04-19T08:38:26Z</time>
      </trkpt>
      <trkpt lat="48.94318" lon="2.04215">
        <ele>16.4</ele>
        <time>2022-04-19T08:38:30Z</time>
      </trkpt>
      <trkpt lat="48.94321" lon="2.0422">
        <ele>16.2</ele>
        <time>2022-04-19T08:38:33Z</time>
      </trkpt>
      <trkpt lat="48.94326" lon="2.04224">
        <ele>16</ele>
        <time>2022-04-19T08:38:38Z</time>
      </trkpt>
      <trkpt lat="48.94331" lon="2.04227">
        <ele>16.3</ele>
        <time>2022-04-19T08:38:42Z</time>
      </trkpt>
      <trkpt lat="48.94335" lon="2.0423">
        <ele>15.1</ele>
        <time>2022-04-19T08:38:46Z</time>
      </trkpt>
      <trkpt lat="48.9434" lon="2.04231">
        <ele>14.3</ele>
        <time>2022-04-19T08:38:50Z</time>
      </trkpt>
      <trkpt lat="48.94346" lon="2.04231">
        <ele>14.9</ele>
        <time>2022-04-19T08:38:53Z</time>
      </trkpt>
      <trkpt lat="48.94351" lon="2.04234">
        <ele>18.4</ele>
        <time>2022-04-19T08:38:57Z</time>
      </trkpt>
      <trkpt lat="48.94356" lon="2.04238">
        <ele>18.1</ele>
        <time>2022-04-19T08:39:01Z</time>
      </trkpt>
      <trkpt lat="48.94361" lon="2.04242">
        <ele>16.9</ele>
        <time>2022-04-19T08:39:05Z</time>
      </trkpt>
      <trkpt lat="48.94366" lon="2.04245">
        <ele>16.8</ele>
        <time>2022-04-19T08:39:09Z</time>
      </trkpt>
      <trkpt lat="48.9437" lon="2.04247">
        <ele>15.4</ele>
        <time>2022-04-19T08:39:13Z</time>
      </trkpt>
      <trkpt lat="48.94375" lon="2.04249">
        <ele>18.3</ele>
        <time>2022-04-19T08:39:17Z</time>
      </trkpt>
      <trkpt lat="48.9438" lon="2.04252">
        <ele>16.4</ele>
        <time>2022-04-19T08:39:21Z</time>
      </trkpt>
      <trkpt lat="48.94386" lon="2.04254">
        <ele>17.5</ele>
        <time>2022-04-19T08:39:24Z</time>
      </trkpt>
      <trkpt lat="48.94391" lon="2.04257">
        <ele>16.2</ele>
        <time>2022-04-19T08:39:28Z</time>
      </trkpt>
      <trkpt lat="48.94395" lon="2.04259">
        <ele>16.7</ele>
        <time>2022-04-19T08:39:32Z</time>
      </trkpt>
      <trkpt lat="48.944" lon="2.04262">
        <ele>16.6</ele>
        <time>2022-04-19T08:39:36Z</time>
      </trkpt>
      <trkpt lat="48.94405" lon="2.04262">
        <ele>16.7</ele>
        <time>2022-04-19T08:39:39Z</time>
      </trkpt>
      <trkpt lat="48.9441" lon="2.04263">
        <ele>16.3</ele>
        <time>2022-04-19T08:39:44Z</time>
      </trkpt>
      <trkpt lat="48.94415" lon="2.04266">
        <ele>17</ele>
        <time>2022-04-19T08:39:47Z</time>
      </trkpt>
      <trkpt lat="48.9442" lon="2.04269">
        <ele>16.5</ele>
        <time>2022-04-19T08:39:51Z</time>
      </trkpt>
      <trkpt lat="48.94425" lon="2.04271">
        <ele>17</ele>
        <time>2022-04-19T08:39:55Z</time>
      </trkpt>
      <trkpt lat="48.94429" lon="2.04275">
        <ele>15.8</ele>
        <time>2022-04-19T08:39:59Z</time>
      </trkpt>
      <trkpt lat="48.94434" lon="2.04276">
        <ele>14.9</ele>
        <time>2022-04-19T08:40:03Z</time>
      </trkpt>
      <trkpt lat="48.94439" lon="2.04277">
        <ele>14.6</ele>
        <time>2022-04-19T08:40:06Z</time>
      </trkpt>
      <trkpt lat="48.94444" lon="2.04279">
        <ele>14.1</ele>
        <time>2022-04-19T08:40:10Z</time>
      </trkpt>
      <trkpt lat="48.94449" lon="2.04282">
        <ele>13.2</ele>
        <time>2022-04-19T08:40:13Z</time>
      </trkpt>
      <trkpt lat="48.94454" lon="2.04285">
        <ele>13.2</ele>
        <time>2022-04-19T08:40:17Z</time>
      </trkpt>
      <trkpt lat="48.94459" lon="2.04286">
        <ele>10</ele>
        <time>2022-04-19T08:40:21Z</time>
      </trkpt>
      <trkpt lat="48.94464" lon="2.04289">
        <ele>11.5</ele>
        <time>2022-04-19T08:40:25Z</time>
      </trkpt>
      <trkpt lat="48.94468" lon="2.04293">
        <ele>11.9</ele>
        <time>2022-04-19T08:40:29Z</time>
      </trkpt>
      <trkpt lat="48.94472" lon="2.04296">
        <ele>13.2</ele>
        <time>2022-04-19T08:40:32Z</time>
      </trkpt>
      <trkpt lat="48.94477" lon="2.043">
        <ele>15.6</ele>
        <time>2022-04-19T08:40:36Z</time>
      </trkpt>
      <trkpt lat="48.94482" lon="2.04302">
        <ele>15.5</ele>
        <time>2022-04-19T08:40:41Z</time>
      </trkpt>
      <trkpt lat="48.94486" lon="2.04303">
        <ele>15.6</ele>
        <time>2022-04-19T08:40:45Z</time>
      </trkpt>
      <trkpt lat="48.94492" lon="2.04305">
        <ele>15.2</ele>
        <time>2022-04-19T08:40:49Z</time>
      </trkpt>
      <trkpt lat="48.94497" lon="2.04307">
        <ele>15</ele>
        <time>2022-04-19T08:40:52Z</time>
      </trkpt>
      <trkpt lat="48.94501" lon="2.0431">
        <ele>16.1</ele>
        <time>2022-04-19T08:40:56Z</time>
      </trkpt>
      <trkpt lat="48.94505" lon="2.04312">
        <ele>13.9</ele>
        <time>2022-04-19T08:40:59Z</time>
      </trkpt>
      <trkpt lat="48.9451" lon="2.04315">
        <ele>13.1</ele>
        <time>2022-04-19T08:41:03Z</time>
      </trkpt>
      <trkpt lat="48.94516" lon="2.04316">
        <ele>16</ele>
        <time>2022-04-19T08:41:08Z</time>
      </trkpt>
      <trkpt lat="48.94522" lon="2.04318">
        <ele>16.3</ele>
        <time>2022-04-19T08:41:13Z</time>
      </trkpt>
      <trkpt lat="48.94526" lon="2.04321">
        <ele>15.1</ele>
        <time>2022-04-19T08:41:16Z</time>
      </trkpt>
      <trkpt lat="48.94531" lon="2.04323">
        <ele>14.7</ele>
        <time>2022-04-19T08:41:20Z</time>
      </trkpt>
      <trkpt lat="48.94536" lon="2.04326">
        <ele>12.9</ele>
        <time>2022-04-19T08:41:24Z</time>
      </trkpt>
      <trkpt lat="48.94541" lon="2.04328">
        <ele>12.1</ele>
        <time>2022-04-19T08:41:28Z</time>
      </trkpt>
      <trkpt lat="48.94546" lon="2.0433">
        <ele>13.3</ele>
        <time>2022-04-19T08:41:32Z</time>
      </trkpt>
      <trkpt lat="48.94552" lon="2.04332">
        <ele>12.1</ele>
        <time>2022-04-19T08:41:37Z</time>
      </trkpt>
      <trkpt lat="48.94556" lon="2.04333">
        <ele>12.3</ele>
        <time>2022-04-19T08:41:40Z</time>
      </trkpt>
      <trkpt lat="48.94561" lon="2.04334">
        <ele>12.9</ele>
        <time>2022-04-19T08:41:44Z</time>
      </trkpt>
      <trkpt lat="48.94566" lon="2.04337">
        <ele>13.1</ele>
        <time>2022-04-19T08:41:48Z</time>
      </trkpt>
      <trkpt lat="48.94571" lon="2.0434">
        <ele>13</ele>
        <time>2022-04-19T08:41:51Z</time>
      </trkpt>
      <trkpt lat="48.94576" lon="2.04342">
        <ele>13.8</ele>
        <time>2022-04-19T08:41:55Z</time>
      </trkpt>
      <trkpt lat="48.94581" lon="2.04344">
        <ele>14.2</ele>
        <time>2022-04-19T08:41:59Z</time>
      </trkpt>
      <trkpt lat="48.94586" lon="2.04347">
        <ele>14</ele>
        <time>2022-04-19T08:42:03Z</time>
      </trkpt>
      <trkpt lat="48.94591" lon="2.04348">
        <ele>17.3</ele>
        <time>2022-04-19T08:42:07Z</time>
      </trkpt>
      <trkpt lat="48.94596" lon="2.04353">
        <ele>16.5</ele>
        <time>2022-04-19T08:42:11Z</time>
      </trkpt>
      <trkpt lat="48.94602" lon="2.04358">
        <ele>13.2</ele>
        <time>2022-04-19T08:42:16Z</time>
      </trkpt>
      <trkpt lat="48.94607" lon="2.04361">
        <ele>14.7</ele>
        <time>2022-04-19T08:42:20Z</time>
      </trkpt>
      <trkpt lat="48.94612" lon="2.04363">
        <ele>14.4</ele>
        <time>2022-04-19T08:42:24Z</time>
      </trkpt>
      <trkpt lat="48.94617" lon="2.04363">
        <ele>16.6</ele>
        <time>2022-04-19T08:42:27Z</time>
      </trkpt>
      <trkpt lat="48.94622" lon="2.04363">
        <ele>17.2</ele>
        <time>2022-04-19T08:42:31Z</time>
      </trkpt>
      <trkpt lat="48.94627" lon="2.04365">
        <ele>17.5</ele>
        <time>2022-04-19T08:42:35Z</time>
      </trkpt>
      <trkpt lat="48.94632" lon="2.04367">
        <ele>15.7</ele>
        <time>2022-04-19T08:42:39Z</time>
      </trkpt>
      <trkpt lat="48.94637" lon="2.04371">
        <ele>17.6</ele>
        <time>2022-04-19T08:42:43Z</time>
      </trkpt>
      <trkpt lat="48.94642" lon="2.04374">
        <ele>15.8</ele>
        <time>2022-04-19T08:42:48Z</time>
      </trkpt>
      <trkpt lat="48.94647" lon="2.04377">
        <ele>13.3</ele>
        <time>2022-04-19T08:42:53Z</time>
      </trkpt>
      <trkpt lat="48.94653" lon="2.04379">
        <ele>12.5</ele>
        <time>2022-04-19T08:42:57Z</time>
      </trkpt>
      <trkpt lat="48.94658" lon="2.04382">
        <ele>14.4</ele>
        <time>2022-04-19T08:43:00Z</time>
      </trkpt>
      <trkpt lat="48.94663" lon="2.04385">
        <ele>13.8</ele>
        <time>2022-04-19T08:43:04Z</time>
      </trkpt>
      <trkpt lat="48.94667" lon="2.04387">
        <ele>15</ele>
        <time>2022-04-19T08:43:08Z</time>
      </trkpt>
      <trkpt lat="48.94672" lon="2.04389">
        <ele>16.8</ele>
        <time>2022-04-19T08:43:12Z</time>
      </trkpt>
      <trkpt lat="48.94677" lon="2.0439">
        <ele>15.9</ele>
        <time>2022-04-19T08:43:15Z</time>
      </trkpt>
      <trkpt lat="48.94681" lon="2.04393">
        <ele>15.7</ele>
        <time>2022-04-19T08:43:18Z</time>
      </trkpt>
      <trkpt lat="48.94686" lon="2.04395">
        <ele>14.6</ele>
        <time>2022-04-19T08:43:23Z</time>
      </trkpt>
      <trkpt lat="48.94691" lon="2.04398">
        <ele>15</ele>
        <time>2022-04-19T08:43:27Z</time>
      </trkpt>
      <trkpt lat="48.94696" lon="2.044">
        <ele>16.6</ele>
        <time>2022-04-19T08:43:31Z</time>
      </trkpt>
      <trkpt lat="48.94701" lon="2.04402">
        <ele>15.4</ele>
        <time>2022-04-19T08:43:35Z</time>
      </trkpt>
      <trkpt lat="48.94707" lon="2.04405">
        <ele>16.8</ele>
        <time>2022-04-19T08:43:39Z</time>
      </trkpt>
      <trkpt lat="48.94712" lon="2.04407">
        <ele>16.5</ele>
        <time>2022-04-19T08:43:43Z</time>
      </trkpt>
      <trkpt lat="48.94717" lon="2.04409">
        <ele>17.1</ele>
        <time>2022-04-19T08:43:47Z</time>
      </trkpt>
      <trkpt lat="48.94722" lon="2.0441">
        <ele>16.9</ele>
        <time>2022-04-19T08:43:51Z</time>
      </trkpt>
      <trkpt lat="48.94726" lon="2.04414">
        <ele>16.2</ele>
        <time>2022-04-19T08:43:55Z</time>
      </trkpt>
      <trkpt lat="48.94731" lon="2.04417">
        <ele>17.1</ele>
        <time>2022-04-19T08:43:59Z</time>
      </trkpt>
      <trkpt lat="48.94736" lon="2.04421">
        <ele>17.1</ele>
        <time>2022-04-19T08:44:05Z</time>
      </trkpt>
      <trkpt lat="48.9474" lon="2.04426">
        <ele>17.3</ele>
        <time>2022-04-19T08:44:11Z</time>
      </trkpt>
      <trkpt lat="48.94744" lon="2.0443">
        <ele>17.5</ele>
        <time>2022-04-19T08:44:16Z</time>
      </trkpt>
      <trkpt lat="48.94747" lon="2.04425">
        <ele>19.4</ele>
        <time>2022-04-19T08:44:22Z</time>
      </trkpt>
      <trkpt lat="48.94752" lon="2.04428">
        <ele>19.9</ele>
        <time>2022-04-19T08:44:29Z</time>
      </trkpt>
      <trkpt lat="48.94757" lon="2.04427">
        <ele>20.1</ele>
        <time>2022-04-19T08:44:39Z</time>
      </trkpt>
      <trkpt lat="48.94759" lon="2.04434">
        <ele>20.2</ele>
        <time>2022-04-19T08:44:45Z</time>
      </trkpt>
      <trkpt lat="48.9476" lon="2.04441">
        <ele>18.8</ele>
        <time>2022-04-19T08:44:51Z</time>
      </trkpt>
      <trkpt lat="48.94762" lon="2.04449">
        <ele>17.1</ele>
        <time>2022-04-19T08:44:58Z</time>
      </trkpt>
      <trkpt lat="48.94767" lon="2.04443">
        <ele>19</ele>
        <time>2022-04-19T08:45:59Z</time>
      </trkpt>
      <trkpt lat="48.9477" lon="2.04449">
        <ele>17.8</ele>
        <time>2022-04-19T08:47:53Z</time>
      </trkpt>
      <trkpt lat="48.94775" lon="2.04451">
        <ele>17.8</ele>
        <time>2022-04-19T08:47:57Z</time>
      </trkpt>
      <trkpt lat="48.9478" lon="2.04454">
        <ele>18.4</ele>
        <time>2022-04-19T08:48:01Z</time>
      </trkpt>
      <trkpt lat="48.94785" lon="2.04459">
        <ele>18.9</ele>
        <time>2022-04-19T08:48:05Z</time>
      </trkpt>
      <trkpt lat="48.9479" lon="2.04462">
        <ele>18.1</ele>
        <time>2022-04-19T08:48:09Z</time>
      </trkpt>
      <trkpt lat="48.94794" lon="2.04462">
        <ele>17.5</ele>
        <time>2022-04-19T08:48:12Z</time>
      </trkpt>
      <trkpt lat="48.94799" lon="2.04464">
        <ele>18</ele>
        <time>2022-04-19T08:48:16Z</time>
      </trkpt>
      <trkpt lat="48.94805" lon="2.04465">
        <ele>19</ele>
        <time>2022-04-19T08:48:20Z</time>
      </trkpt>
      <trkpt lat="48.94809" lon="2.04468">
        <ele>18.7</ele>
        <time>2022-04-19T08:48:24Z</time>
      </trkpt>
      <trkpt lat="48.94814" lon="2.0447">
        <ele>19.3</ele>
        <time>2022-04-19T08:48:28Z</time>
      </trkpt>
      <trkpt lat="48.94819" lon="2.04471">
        <ele>18.8</ele>
        <time>2022-04-19T08:48:32Z</time>
      </trkpt>
      <trkpt lat="48.94825" lon="2.04472">
        <ele>20.1</ele>
        <time>2022-04-19T08:48:36Z</time>
      </trkpt>
      <trkpt lat="48.94829" lon="2.04474">
        <ele>19.2</ele>
        <time>2022-04-19T08:48:39Z</time>
      </trkpt>
      <trkpt lat="48.94835" lon="2.04475">
        <ele>18.5</ele>
        <time>2022-04-19T08:48:44Z</time>
      </trkpt>
      <trkpt lat="48.9484" lon="2.04476">
        <ele>17.4</ele>
        <time>2022-04-19T08:48:47Z</time>
      </trkpt>
      <trkpt lat="48.94845" lon="2.04477">
        <ele>18.4</ele>
        <time>2022-04-19T08:48:51Z</time>
      </trkpt>
      <trkpt lat="48.9485" lon="2.04479">
        <ele>18.2</ele>
        <time>2022-04-19T08:48:55Z</time>
      </trkpt>
      <trkpt lat="48.94856" lon="2.04479">
        <ele>18</ele>
        <time>2022-04-19T08:48:59Z</time>
      </trkpt>
      <trkpt lat="48.94861" lon="2.04482">
        <ele>17.9</ele>
        <time>2022-04-19T08:49:03Z</time>
      </trkpt>
      <trkpt lat="48.94866" lon="2.04484">
        <ele>18.7</ele>
        <time>2022-04-19T08:49:07Z</time>
      </trkpt>
      <trkpt lat="48.94871" lon="2.04484">
        <ele>17.4</ele>
        <time>2022-04-19T08:49:12Z</time>
      </trkpt>
      <trkpt lat="48.94877" lon="2.04485">
        <ele>19</ele>
        <time>2022-04-19T08:49:17Z</time>
      </trkpt>
      <trkpt lat="48.94883" lon="2.04487">
        <ele>18.7</ele>
        <time>2022-04-19T08:49:20Z</time>
      </trkpt>
      <trkpt lat="48.94888" lon="2.04488">
        <ele>20.1</ele>
        <time>2022-04-19T08:49:24Z</time>
      </trkpt>
      <trkpt lat="48.94893" lon="2.04489">
        <ele>20.7</ele>
        <time>2022-04-19T08:49:28Z</time>
      </trkpt>
      <trkpt lat="48.94898" lon="2.04491">
        <ele>20.6</ele>
        <time>2022-04-19T08:49:31Z</time>
      </trkpt>
      <trkpt lat="48.94903" lon="2.04494">
        <ele>20.3</ele>
        <time>2022-04-19T08:49:35Z</time>
      </trkpt>
      <trkpt lat="48.94908" lon="2.04495">
        <ele>20.1</ele>
        <time>2022-04-19T08:49:38Z</time>
      </trkpt>
      <trkpt lat="48.94913" lon="2.04497">
        <ele>20.6</ele>
        <time>2022-04-19T08:49:42Z</time>
      </trkpt>
      <trkpt lat="48.94918" lon="2.04498">
        <ele>19.9</ele>
        <time>2022-04-19T08:49:46Z</time>
      </trkpt>
      <trkpt lat="48.94924" lon="2.04496">
        <ele>19</ele>
        <time>2022-04-19T08:49:49Z</time>
      </trkpt>
      <trkpt lat="48.9493" lon="2.04495">
        <ele>19.7</ele>
        <time>2022-04-19T08:49:53Z</time>
      </trkpt>
      <trkpt lat="48.94933" lon="2.045">
        <ele>19</ele>
        <time>2022-04-19T08:49:58Z</time>
      </trkpt>
      <trkpt lat="48.94938" lon="2.04503">
        <ele>17.9</ele>
        <time>2022-04-19T08:50:02Z</time>
      </trkpt>
      <trkpt lat="48.94942" lon="2.04506">
        <ele>17.9</ele>
        <time>2022-04-19T08:50:06Z</time>
      </trkpt>
      <trkpt lat="48.94948" lon="2.04508">
        <ele>15.9</ele>
        <time>2022-04-19T08:50:10Z</time>
      </trkpt>
      <trkpt lat="48.94953" lon="2.04509">
        <ele>18</ele>
        <time>2022-04-19T08:50:15Z</time>
      </trkpt>
      <trkpt lat="48.94958" lon="2.0451">
        <ele>17.3</ele>
        <time>2022-04-19T08:50:19Z</time>
      </trkpt>
      <trkpt lat="48.94964" lon="2.04512">
        <ele>16.7</ele>
        <time>2022-04-19T08:50:22Z</time>
      </trkpt>
      <trkpt lat="48.94969" lon="2.04512">
        <ele>16.8</ele>
        <time>2022-04-19T08:50:26Z</time>
      </trkpt>
      <trkpt lat="48.94975" lon="2.04513">
        <ele>16.7</ele>
        <time>2022-04-19T08:50:30Z</time>
      </trkpt>
      <trkpt lat="48.94979" lon="2.04515">
        <ele>16.2</ele>
        <time>2022-04-19T08:50:34Z</time>
      </trkpt>
      <trkpt lat="48.94984" lon="2.04517">
        <ele>17.2</ele>
        <time>2022-04-19T08:50:37Z</time>
      </trkpt>
      <trkpt lat="48.9499" lon="2.04518">
        <ele>15.9</ele>
        <time>2022-04-19T08:50:42Z</time>
      </trkpt>
      <trkpt lat="48.94995" lon="2.04519">
        <ele>15.5</ele>
        <time>2022-04-19T08:50:46Z</time>
      </trkpt>
      <trkpt lat="48.95" lon="2.0452">
        <ele>17.1</ele>
        <time>2022-04-19T08:50:50Z</time>
      </trkpt>
      <trkpt lat="48.95006" lon="2.04521">
        <ele>16.2</ele>
        <time>2022-04-19T08:50:55Z</time>
      </trkpt>
      <trkpt lat="48.95011" lon="2.04522">
        <ele>15.2</ele>
        <time>2022-04-19T08:50:59Z</time>
      </trkpt>
      <trkpt lat="48.95016" lon="2.04524">
        <ele>14.7</ele>
        <time>2022-04-19T08:51:03Z</time>
      </trkpt>
      <trkpt lat="48.95021" lon="2.04527">
        <ele>15.4</ele>
        <time>2022-04-19T08:51:07Z</time>
      </trkpt>
      <trkpt lat="48.95026" lon="2.04529">
        <ele>15.3</ele>
        <time>2022-04-19T08:51:10Z</time>
      </trkpt>
      <trkpt lat="48.95031" lon="2.04532">
        <ele>14.4</ele>
        <time>2022-04-19T08:51:14Z</time>
      </trkpt>
      <trkpt lat="48.95036" lon="2.04533">
        <ele>14.7</ele>
        <time>2022-04-19T08:51:18Z</time>
      </trkpt>
      <trkpt lat="48.95041" lon="2.04534">
        <ele>14.4</ele>
        <time>2022-04-19T08:51:22Z</time>
      </trkpt>
      <trkpt lat="48.95046" lon="2.04535">
        <ele>14.1</ele>
        <time>2022-04-19T08:51:26Z</time>
      </trkpt>
      <trkpt lat="48.95051" lon="2.04536">
        <ele>13.3</ele>
        <time>2022-04-19T08:51:30Z</time>
      </trkpt>
      <trkpt lat="48.95056" lon="2.04538">
        <ele>12.5</ele>
        <time>2022-04-19T08:51:35Z</time>
      </trkpt>
      <trkpt lat="48.95061" lon="2.04539">
        <ele>13.4</ele>
        <time>2022-04-19T08:51:38Z</time>
      </trkpt>
      <trkpt lat="48.95066" lon="2.0454">
        <ele>12.9</ele>
        <time>2022-04-19T08:51:42Z</time>
      </trkpt>
      <trkpt lat="48.95072" lon="2.04542">
        <ele>13</ele>
        <time>2022-04-19T08:51:46Z</time>
      </trkpt>
      <trkpt lat="48.95076" lon="2.04544">
        <ele>15</ele>
        <time>2022-04-19T08:51:50Z</time>
      </trkpt>
      <trkpt lat="48.95081" lon="2.04545">
        <ele>16.8</ele>
        <time>2022-04-19T08:51:54Z</time>
      </trkpt>
      <trkpt lat="48.95086" lon="2.04547">
        <ele>15.9</ele>
        <time>2022-04-19T08:51:58Z</time>
      </trkpt>
      <trkpt lat="48.95092" lon="2.04548">
        <ele>16.2</ele>
        <time>2022-04-19T08:52:03Z</time>
      </trkpt>
      <trkpt lat="48.95098" lon="2.04548">
        <ele>17.1</ele>
        <time>2022-04-19T08:52:06Z</time>
      </trkpt>
      <trkpt lat="48.95103" lon="2.04548">
        <ele>17.1</ele>
        <time>2022-04-19T08:52:10Z</time>
      </trkpt>
      <trkpt lat="48.95108" lon="2.0455">
        <ele>17.3</ele>
        <time>2022-04-19T08:52:14Z</time>
      </trkpt>
      <trkpt lat="48.95113" lon="2.04551">
        <ele>17.2</ele>
        <time>2022-04-19T08:52:18Z</time>
      </trkpt>
      <trkpt lat="48.95118" lon="2.04553">
        <ele>17.7</ele>
        <time>2022-04-19T08:52:21Z</time>
      </trkpt>
      <trkpt lat="48.95123" lon="2.04553">
        <ele>16.6</ele>
        <time>2022-04-19T08:52:25Z</time>
      </trkpt>
      <trkpt lat="48.95128" lon="2.04553">
        <ele>16.2</ele>
        <time>2022-04-19T08:52:29Z</time>
      </trkpt>
      <trkpt lat="48.95133" lon="2.04554">
        <ele>16.3</ele>
        <time>2022-04-19T08:52:32Z</time>
      </trkpt>
      <trkpt lat="48.95139" lon="2.04556">
        <ele>18.6</ele>
        <time>2022-04-19T08:52:37Z</time>
      </trkpt>
      <trkpt lat="48.95145" lon="2.04553">
        <ele>17.4</ele>
        <time>2022-04-19T08:52:42Z</time>
      </trkpt>
      <trkpt lat="48.9515" lon="2.04548">
        <ele>17.6</ele>
        <time>2022-04-19T08:52:46Z</time>
      </trkpt>
      <trkpt lat="48.95149" lon="2.0454">
        <ele>17.5</ele>
        <time>2022-04-19T08:52:50Z</time>
      </trkpt>
      <trkpt lat="48.95148" lon="2.04533">
        <ele>19</ele>
        <time>2022-04-19T08:52:53Z</time>
      </trkpt>
      <trkpt lat="48.95145" lon="2.04527">
        <ele>19.7</ele>
        <time>2022-04-19T08:52:58Z</time>
      </trkpt>
      <trkpt lat="48.95144" lon="2.04535">
        <ele>20.1</ele>
        <time>2022-04-19T08:53:06Z</time>
      </trkpt>
      <trkpt lat="48.95142" lon="2.04542">
        <ele>20.9</ele>
        <time>2022-04-19T08:53:10Z</time>
      </trkpt>
      <trkpt lat="48.95141" lon="2.04549">
        <ele>20.6</ele>
        <time>2022-04-19T08:53:17Z</time>
      </trkpt>
      <trkpt lat="48.9514" lon="2.04556">
        <ele>23.8</ele>
        <time>2022-04-19T08:53:24Z</time>
      </trkpt>
      <trkpt lat="48.95141" lon="2.04563">
        <ele>23.5</ele>
        <time>2022-04-19T08:53:30Z</time>
      </trkpt>
      <trkpt lat="48.95141" lon="2.0457">
        <ele>21.4</ele>
        <time>2022-04-19T08:53:35Z</time>
      </trkpt>
      <trkpt lat="48.9514" lon="2.04577">
        <ele>23.4</ele>
        <time>2022-04-19T08:53:39Z</time>
      </trkpt>
      <trkpt lat="48.95139" lon="2.04584">
        <ele>23.6</ele>
        <time>2022-04-19T08:53:43Z</time>
      </trkpt>
      <trkpt lat="48.95138" lon="2.04591">
        <ele>24.3</ele>
        <time>2022-04-19T08:53:47Z</time>
      </trkpt>
      <trkpt lat="48.95136" lon="2.04599">
        <ele>24</ele>
        <time>2022-04-19T08:53:51Z</time>
      </trkpt>
      <trkpt lat="48.95136" lon="2.04607">
        <ele>23.6</ele>
        <time>2022-04-19T08:53:55Z</time>
      </trkpt>
      <trkpt lat="48.95137" lon="2.04615">
        <ele>23.4</ele>
        <time>2022-04-19T08:54:01Z</time>
      </trkpt>
      <trkpt lat="48.95136" lon="2.04623">
        <ele>22.7</ele>
        <time>2022-04-19T08:54:07Z</time>
      </trkpt>
      <trkpt lat="48.95135" lon="2.0463">
        <ele>21.4</ele>
        <time>2022-04-19T08:54:11Z</time>
      </trkpt>
      <trkpt lat="48.95132" lon="2.04638">
        <ele>22.8</ele>
        <time>2022-04-19T08:54:17Z</time>
      </trkpt>
      <trkpt lat="48.95133" lon="2.04645">
        <ele>20</ele>
        <time>2022-04-19T08:54:21Z</time>
      </trkpt>
      <trkpt lat="48.95138" lon="2.04645">
        <ele>18.1</ele>
        <time>2022-04-19T08:54:24Z</time>
      </trkpt>
      <trkpt lat="48.95143" lon="2.04643">
        <ele>16.8</ele>
        <time>2022-04-19T08:54:28Z</time>
      </trkpt>
      <trkpt lat="48.95149" lon="2.04643">
        <ele>18.9</ele>
        <time>2022-04-19T08:54:32Z</time>
      </trkpt>
      <trkpt lat="48.95155" lon="2.04646">
        <ele>19.7</ele>
        <time>2022-04-19T08:54:37Z</time>
      </trkpt>
      <trkpt lat="48.95159" lon="2.04647">
        <ele>20.5</ele>
        <time>2022-04-19T08:54:41Z</time>
      </trkpt>
      <trkpt lat="48.95164" lon="2.04649">
        <ele>21.3</ele>
        <time>2022-04-19T08:54:45Z</time>
      </trkpt>
      <trkpt lat="48.95168" lon="2.04652">
        <ele>21.7</ele>
        <time>2022-04-19T08:54:49Z</time>
      </trkpt>
      <trkpt lat="48.95172" lon="2.04657">
        <ele>19.8</ele>
        <time>2022-04-19T08:54:53Z</time>
      </trkpt>
      <trkpt lat="48.95173" lon="2.04665">
        <ele>20.7</ele>
        <time>2022-04-19T08:54:57Z</time>
      </trkpt>
      <trkpt lat="48.95175" lon="2.04674">
        <ele>20</ele>
        <time>2022-04-19T08:55:01Z</time>
      </trkpt>
      <trkpt lat="48.95177" lon="2.04681">
        <ele>19.1</ele>
        <time>2022-04-19T08:55:05Z</time>
      </trkpt>
      <trkpt lat="48.95182" lon="2.04686">
        <ele>19.2</ele>
        <time>2022-04-19T08:55:10Z</time>
      </trkpt>
      <trkpt lat="48.95187" lon="2.04687">
        <ele>21.2</ele>
        <time>2022-04-19T08:55:15Z</time>
      </trkpt>
      <trkpt lat="48.95193" lon="2.04688">
        <ele>22.1</ele>
        <time>2022-04-19T08:55:20Z</time>
      </trkpt>
      <trkpt lat="48.95198" lon="2.04689">
        <ele>23</ele>
        <time>2022-04-19T08:55:25Z</time>
      </trkpt>
      <trkpt lat="48.95204" lon="2.04689">
        <ele>24.5</ele>
        <time>2022-04-19T08:55:29Z</time>
      </trkpt>
      <trkpt lat="48.95209" lon="2.0469">
        <ele>24.2</ele>
        <time>2022-04-19T08:55:33Z</time>
      </trkpt>
      <trkpt lat="48.95214" lon="2.04691">
        <ele>23.6</ele>
        <time>2022-04-19T08:55:37Z</time>
      </trkpt>
      <trkpt lat="48.95219" lon="2.04692">
        <ele>22.7</ele>
        <time>2022-04-19T08:55:41Z</time>
      </trkpt>
      <trkpt lat="48.95224" lon="2.04693">
        <ele>22</ele>
        <time>2022-04-19T08:55:45Z</time>
      </trkpt>
      <trkpt lat="48.95229" lon="2.04695">
        <ele>21.1</ele>
        <time>2022-04-19T08:55:50Z</time>
      </trkpt>
      <trkpt lat="48.95235" lon="2.04696">
        <ele>20.1</ele>
        <time>2022-04-19T08:55:54Z</time>
      </trkpt>
      <trkpt lat="48.95241" lon="2.04699">
        <ele>20</ele>
        <time>2022-04-19T08:55:59Z</time>
      </trkpt>
      <trkpt lat="48.95247" lon="2.04699">
        <ele>18.7</ele>
        <time>2022-04-19T08:56:03Z</time>
      </trkpt>
      <trkpt lat="48.95252" lon="2.047">
        <ele>19.3</ele>
        <time>2022-04-19T08:56:08Z</time>
      </trkpt>
      <trkpt lat="48.95258" lon="2.04701">
        <ele>18.9</ele>
        <time>2022-04-19T08:56:13Z</time>
      </trkpt>
      <trkpt lat="48.95263" lon="2.04702">
        <ele>20.2</ele>
        <time>2022-04-19T08:56:17Z</time>
      </trkpt>
      <trkpt lat="48.95269" lon="2.04703">
        <ele>20.2</ele>
        <time>2022-04-19T08:56:21Z</time>
      </trkpt>
      <trkpt lat="48.95274" lon="2.04704">
        <ele>19.6</ele>
        <time>2022-04-19T08:56:25Z</time>
      </trkpt>
      <trkpt lat="48.95279" lon="2.04704">
        <ele>18.3</ele>
        <time>2022-04-19T08:56:28Z</time>
      </trkpt>
      <trkpt lat="48.95284" lon="2.04705">
        <ele>17.6</ele>
        <time>2022-04-19T08:56:32Z</time>
      </trkpt>
      <trkpt lat="48.95289" lon="2.04705">
        <ele>18</ele>
        <time>2022-04-19T08:56:36Z</time>
      </trkpt>
      <trkpt lat="48.95294" lon="2.04705">
        <ele>18.9</ele>
        <time>2022-04-19T08:56:40Z</time>
      </trkpt>
      <trkpt lat="48.953" lon="2.04705">
        <ele>20.4</ele>
        <time>2022-04-19T08:56:44Z</time>
      </trkpt>
      <trkpt lat="48.95304" lon="2.04706">
        <ele>21.3</ele>
        <time>2022-04-19T08:56:48Z</time>
      </trkpt>
      <trkpt lat="48.9531" lon="2.04708">
        <ele>21.1</ele>
        <time>2022-04-19T08:56:52Z</time>
      </trkpt>
      <trkpt lat="48.95315" lon="2.04708">
        <ele>21.6</ele>
        <time>2022-04-19T08:56:55Z</time>
      </trkpt>
      <trkpt lat="48.9532" lon="2.04709">
        <ele>21.1</ele>
        <time>2022-04-19T08:56:59Z</time>
      </trkpt>
      <trkpt lat="48.95325" lon="2.04711">
        <ele>20.6</ele>
        <time>2022-04-19T08:57:03Z</time>
      </trkpt>
      <trkpt lat="48.9533" lon="2.04712">
        <ele>20.5</ele>
        <time>2022-04-19T08:57:07Z</time>
      </trkpt>
      <trkpt lat="48.95335" lon="2.04712">
        <ele>20.3</ele>
        <time>2022-04-19T08:57:11Z</time>
      </trkpt>
      <trkpt lat="48.95341" lon="2.04712">
        <ele>19.7</ele>
        <time>2022-04-19T08:57:16Z</time>
      </trkpt>
      <trkpt lat="48.95346" lon="2.04713">
        <ele>19.8</ele>
        <time>2022-04-19T08:57:20Z</time>
      </trkpt>
      <trkpt lat="48.95351" lon="2.04712">
        <ele>19.2</ele>
        <time>2022-04-19T08:57:23Z</time>
      </trkpt>
      <trkpt lat="48.95357" lon="2.04713">
        <ele>20.1</ele>
        <time>2022-04-19T08:57:27Z</time>
      </trkpt>
      <trkpt lat="48.95362" lon="2.04712">
        <ele>20.9</ele>
        <time>2022-04-19T08:57:31Z</time>
      </trkpt>
      <trkpt lat="48.95367" lon="2.04712">
        <ele>19.8</ele>
        <time>2022-04-19T08:57:35Z</time>
      </trkpt>
      <trkpt lat="48.95373" lon="2.04713">
        <ele>18.7</ele>
        <time>2022-04-19T08:57:40Z</time>
      </trkpt>
      <trkpt lat="48.95379" lon="2.04712">
        <ele>18.8</ele>
        <time>2022-04-19T08:57:45Z</time>
      </trkpt>
      <trkpt lat="48.95384" lon="2.04712">
        <ele>18.4</ele>
        <time>2022-04-19T08:57:48Z</time>
      </trkpt>
      <trkpt lat="48.95389" lon="2.04712">
        <ele>20.5</ele>
        <time>2022-04-19T08:57:52Z</time>
      </trkpt>
      <trkpt lat="48.95394" lon="2.04714">
        <ele>19.8</ele>
        <time>2022-04-19T08:57:55Z</time>
      </trkpt>
      <trkpt lat="48.95399" lon="2.04714">
        <ele>20.2</ele>
        <time>2022-04-19T08:57:59Z</time>
      </trkpt>
      <trkpt lat="48.95404" lon="2.04714">
        <ele>20.8</ele>
        <time>2022-04-19T08:58:04Z</time>
      </trkpt>
      <trkpt lat="48.95409" lon="2.04714">
        <ele>21.5</ele>
        <time>2022-04-19T08:58:08Z</time>
      </trkpt>
      <trkpt lat="48.95415" lon="2.04714">
        <ele>19.2</ele>
        <time>2022-04-19T08:58:13Z</time>
      </trkpt>
      <trkpt lat="48.95421" lon="2.04714">
        <ele>18.3</ele>
        <time>2022-04-19T08:58:17Z</time>
      </trkpt>
      <trkpt lat="48.95427" lon="2.04715">
        <ele>17.1</ele>
        <time>2022-04-19T08:58:20Z</time>
      </trkpt>
      <trkpt lat="48.95432" lon="2.04715">
        <ele>18.4</ele>
        <time>2022-04-19T08:58:24Z</time>
      </trkpt>
      <trkpt lat="48.95438" lon="2.04716">
        <ele>18.1</ele>
        <time>2022-04-19T08:58:28Z</time>
      </trkpt>
      <trkpt lat="48.95443" lon="2.04716">
        <ele>20.4</ele>
        <time>2022-04-19T08:58:32Z</time>
      </trkpt>
      <trkpt lat="48.95449" lon="2.04717">
        <ele>21.1</ele>
        <time>2022-04-19T08:58:37Z</time>
      </trkpt>
      <trkpt lat="48.95455" lon="2.04718">
        <ele>19.2</ele>
        <time>2022-04-19T08:58:41Z</time>
      </trkpt>
      <trkpt lat="48.9546" lon="2.04718">
        <ele>19.1</ele>
        <time>2022-04-19T08:58:44Z</time>
      </trkpt>
      <trkpt lat="48.95465" lon="2.04717">
        <ele>20.7</ele>
        <time>2022-04-19T08:58:48Z</time>
      </trkpt>
      <trkpt lat="48.95471" lon="2.04717">
        <ele>18.9</ele>
        <time>2022-04-19T08:58:52Z</time>
      </trkpt>
      <trkpt lat="48.95476" lon="2.04717">
        <ele>20</ele>
        <time>2022-04-19T08:58:56Z</time>
      </trkpt>
      <trkpt lat="48.95481" lon="2.04717">
        <ele>18.3</ele>
        <time>2022-04-19T08:59:00Z</time>
      </trkpt>
      <trkpt lat="48.95486" lon="2.04718">
        <ele>16.1</ele>
        <time>2022-04-19T08:59:03Z</time>
      </trkpt>
      <trkpt lat="48.95491" lon="2.04717">
        <ele>18.3</ele>
        <time>2022-04-19T08:59:07Z</time>
      </trkpt>
      <trkpt lat="48.95496" lon="2.04716">
        <ele>18.4</ele>
        <time>2022-04-19T08:59:11Z</time>
      </trkpt>
      <trkpt lat="48.95502" lon="2.04716">
        <ele>20.6</ele>
        <time>2022-04-19T08:59:15Z</time>
      </trkpt>
      <trkpt lat="48.95507" lon="2.04716">
        <ele>20.7</ele>
        <time>2022-04-19T08:59:19Z</time>
      </trkpt>
      <trkpt lat="48.95512" lon="2.04716">
        <ele>20.4</ele>
        <time>2022-04-19T08:59:23Z</time>
      </trkpt>
      <trkpt lat="48.95517" lon="2.04716">
        <ele>19.8</ele>
        <time>2022-04-19T08:59:26Z</time>
      </trkpt>
      <trkpt lat="48.95522" lon="2.04718">
        <ele>20.6</ele>
        <time>2022-04-19T08:59:30Z</time>
      </trkpt>
      <trkpt lat="48.95526" lon="2.04718">
        <ele>20.8</ele>
        <time>2022-04-19T08:59:34Z</time>
      </trkpt>
      <trkpt lat="48.95532" lon="2.04718">
        <ele>20.9</ele>
        <time>2022-04-19T08:59:38Z</time>
      </trkpt>
      <trkpt lat="48.95536" lon="2.04716">
        <ele>21.7</ele>
        <time>2022-04-19T08:59:42Z</time>
      </trkpt>
      <trkpt lat="48.95541" lon="2.04717">
        <ele>21.2</ele>
        <time>2022-04-19T08:59:45Z</time>
      </trkpt>
      <trkpt lat="48.95546" lon="2.04718">
        <ele>18.2</ele>
        <time>2022-04-19T08:59:49Z</time>
      </trkpt>
      <trkpt lat="48.95551" lon="2.04718">
        <ele>17.1</ele>
        <time>2022-04-19T08:59:53Z</time>
      </trkpt>
      <trkpt lat="48.95556" lon="2.04719">
        <ele>18.7</ele>
        <time>2022-04-19T08:59:57Z</time>
      </trkpt>
      <trkpt lat="48.95561" lon="2.04719">
        <ele>19.6</ele>
        <time>2022-04-19T09:00:01Z</time>
      </trkpt>
      <trkpt lat="48.95566" lon="2.04718">
        <ele>20.3</ele>
        <time>2022-04-19T09:00:04Z</time>
      </trkpt>
      <trkpt lat="48.95571" lon="2.04718">
        <ele>19.1</ele>
        <time>2022-04-19T09:00:08Z</time>
      </trkpt>
      <trkpt lat="48.95576" lon="2.04717">
        <ele>17.8</ele>
        <time>2022-04-19T09:00:12Z</time>
      </trkpt>
      <trkpt lat="48.9558" lon="2.04718">
        <ele>18</ele>
        <time>2022-04-19T09:00:16Z</time>
      </trkpt>
      <trkpt lat="48.95586" lon="2.04719">
        <ele>18.2</ele>
        <time>2022-04-19T09:00:20Z</time>
      </trkpt>
      <trkpt lat="48.95591" lon="2.04719">
        <ele>17.3</ele>
        <time>2022-04-19T09:00:24Z</time>
      </trkpt>
      <trkpt lat="48.95596" lon="2.04717">
        <ele>15.4</ele>
        <time>2022-04-19T09:00:29Z</time>
      </trkpt>
      <trkpt lat="48.956" lon="2.04718">
        <ele>15.9</ele>
        <time>2022-04-19T09:00:45Z</time>
      </trkpt>
      <trkpt lat="48.95605" lon="2.0472">
        <ele>15.7</ele>
        <time>2022-04-19T09:00:48Z</time>
      </trkpt>
      <trkpt lat="48.9561" lon="2.04722">
        <ele>19.2</ele>
        <time>2022-04-19T09:00:52Z</time>
      </trkpt>
      <trkpt lat="48.95615" lon="2.04722">
        <ele>22.2</ele>
        <time>2022-04-19T09:00:55Z</time>
      </trkpt>
      <trkpt lat="48.9562" lon="2.04722">
        <ele>22</ele>
        <time>2022-04-19T09:00:59Z</time>
      </trkpt>
      <trkpt lat="48.95625" lon="2.04722">
        <ele>21.1</ele>
        <time>2022-04-19T09:01:02Z</time>
      </trkpt>
      <trkpt lat="48.9563" lon="2.04722">
        <ele>20.3</ele>
        <time>2022-04-19T09:01:06Z</time>
      </trkpt>
      <trkpt lat="48.95636" lon="2.04722">
        <ele>20.3</ele>
        <time>2022-04-19T09:01:10Z</time>
      </trkpt>
      <trkpt lat="48.95641" lon="2.04721">
        <ele>19</ele>
        <time>2022-04-19T09:01:15Z</time>
      </trkpt>
      <trkpt lat="48.95646" lon="2.04721">
        <ele>17.4</ele>
        <time>2022-04-19T09:01:19Z</time>
      </trkpt>
      <trkpt lat="48.95651" lon="2.04722">
        <ele>17.8</ele>
        <time>2022-04-19T09:01:22Z</time>
      </trkpt>
      <trkpt lat="48.95656" lon="2.04723">
        <ele>19.2</ele>
        <time>2022-04-19T09:01:25Z</time>
      </trkpt>
      <trkpt lat="48.95661" lon="2.04723">
        <ele>18.9</ele>
        <time>2022-04-19T09:01:29Z</time>
      </trkpt>
      <trkpt lat="48.95666" lon="2.04722">
        <ele>19.2</ele>
        <time>2022-04-19T09:01:33Z</time>
      </trkpt>
      <trkpt lat="48.95671" lon="2.0472">
        <ele>17.8</ele>
        <time>2022-04-19T09:01:36Z</time>
      </trkpt>
      <trkpt lat="48.95676" lon="2.04718">
        <ele>18.1</ele>
        <time>2022-04-19T09:01:40Z</time>
      </trkpt>
      <trkpt lat="48.95681" lon="2.04718">
        <ele>17.5</ele>
        <time>2022-04-19T09:01:44Z</time>
      </trkpt>
      <trkpt lat="48.95687" lon="2.04718">
        <ele>17.1</ele>
        <time>2022-04-19T09:01:49Z</time>
      </trkpt>
      <trkpt lat="48.95692" lon="2.04719">
        <ele>19.8</ele>
        <time>2022-04-19T09:01:53Z</time>
      </trkpt>
      <trkpt lat="48.95697" lon="2.04719">
        <ele>19.6</ele>
        <time>2022-04-19T09:01:56Z</time>
      </trkpt>
      <trkpt lat="48.95702" lon="2.04718">
        <ele>18.2</ele>
        <time>2022-04-19T09:02:00Z</time>
      </trkpt>
      <trkpt lat="48.95707" lon="2.04718">
        <ele>19.4</ele>
        <time>2022-04-19T09:02:04Z</time>
      </trkpt>
      <trkpt lat="48.95712" lon="2.04717">
        <ele>20.2</ele>
        <time>2022-04-19T09:02:08Z</time>
      </trkpt>
      <trkpt lat="48.95717" lon="2.04718">
        <ele>18.9</ele>
        <time>2022-04-19T09:02:13Z</time>
      </trkpt>
      <trkpt lat="48.95723" lon="2.04717">
        <ele>18.7</ele>
        <time>2022-04-19T09:02:17Z</time>
      </trkpt>
      <trkpt lat="48.95729" lon="2.04716">
        <ele>19</ele>
        <time>2022-04-19T09:02:21Z</time>
      </trkpt>
      <trkpt lat="48.95734" lon="2.04716">
        <ele>18.9</ele>
        <time>2022-04-19T09:02:25Z</time>
      </trkpt>
      <trkpt lat="48.95739" lon="2.04718">
        <ele>18.5</ele>
        <time>2022-04-19T09:02:28Z</time>
      </trkpt>
      <trkpt lat="48.95745" lon="2.04719">
        <ele>21</ele>
        <time>2022-04-19T09:02:32Z</time>
      </trkpt>
      <trkpt lat="48.9575" lon="2.04721">
        <ele>20.3</ele>
        <time>2022-04-19T09:02:36Z</time>
      </trkpt>
      <trkpt lat="48.95755" lon="2.0472">
        <ele>19.3</ele>
        <time>2022-04-19T09:02:40Z</time>
      </trkpt>
      <trkpt lat="48.95759" lon="2.04719">
        <ele>17.8</ele>
        <time>2022-04-19T09:02:44Z</time>
      </trkpt>
      <trkpt lat="48.95764" lon="2.04719">
        <ele>16.7</ele>
        <time>2022-04-19T09:02:48Z</time>
      </trkpt>
      <trkpt lat="48.9577" lon="2.0472">
        <ele>17.6</ele>
        <time>2022-04-19T09:02:52Z</time>
      </trkpt>
      <trkpt lat="48.95775" lon="2.04721">
        <ele>16.5</ele>
        <time>2022-04-19T09:02:57Z</time>
      </trkpt>
      <trkpt lat="48.9578" lon="2.04721">
        <ele>16.1</ele>
        <time>2022-04-19T09:03:01Z</time>
      </trkpt>
      <trkpt lat="48.95785" lon="2.04721">
        <ele>15.3</ele>
        <time>2022-04-19T09:03:06Z</time>
      </trkpt>
      <trkpt lat="48.9579" lon="2.04722">
        <ele>16.5</ele>
        <time>2022-04-19T09:03:10Z</time>
      </trkpt>
      <trkpt lat="48.95795" lon="2.04721">
        <ele>17.4</ele>
        <time>2022-04-19T09:03:14Z</time>
      </trkpt>
      <trkpt lat="48.958" lon="2.04719">
        <ele>18.1</ele>
        <time>2022-04-19T09:03:17Z</time>
      </trkpt>
      <trkpt lat="48.95806" lon="2.04718">
        <ele>17.6</ele>
        <time>2022-04-19T09:03:21Z</time>
      </trkpt>
      <trkpt lat="48.95811" lon="2.04718">
        <ele>17.3</ele>
        <time>2022-04-19T09:03:25Z</time>
      </trkpt>
      <trkpt lat="48.95817" lon="2.04719">
        <ele>20.3</ele>
        <time>2022-04-19T09:03:30Z</time>
      </trkpt>
      <trkpt lat="48.95823" lon="2.04721">
        <ele>20</ele>
        <time>2022-04-19T09:03:34Z</time>
      </trkpt>
      <trkpt lat="48.95828" lon="2.04722">
        <ele>18.2</ele>
        <time>2022-04-19T09:03:37Z</time>
      </trkpt>
      <trkpt lat="48.95832" lon="2.04721">
        <ele>20.7</ele>
        <time>2022-04-19T09:03:41Z</time>
      </trkpt>
      <trkpt lat="48.95838" lon="2.0472">
        <ele>22.4</ele>
        <time>2022-04-19T09:03:45Z</time>
      </trkpt>
      <trkpt lat="48.95843" lon="2.0472">
        <ele>22.5</ele>
        <time>2022-04-19T09:03:48Z</time>
      </trkpt>
      <trkpt lat="48.95848" lon="2.04721">
        <ele>21.8</ele>
        <time>2022-04-19T09:03:52Z</time>
      </trkpt>
      <trkpt lat="48.95853" lon="2.04721">
        <ele>20</ele>
        <time>2022-04-19T09:03:56Z</time>
      </trkpt>
      <trkpt lat="48.95857" lon="2.0472">
        <ele>20.7</ele>
        <time>2022-04-19T09:04:00Z</time>
      </trkpt>
      <trkpt lat="48.95862" lon="2.04719">
        <ele>21.3</ele>
        <time>2022-04-19T09:04:04Z</time>
      </trkpt>
      <trkpt lat="48.95867" lon="2.04718">
        <ele>18.5</ele>
        <time>2022-04-19T09:04:08Z</time>
      </trkpt>
      <trkpt lat="48.95872" lon="2.04719">
        <ele>18.8</ele>
        <time>2022-04-19T09:04:12Z</time>
      </trkpt>
      <trkpt lat="48.95876" lon="2.04719">
        <ele>19.2</ele>
        <time>2022-04-19T09:04:16Z</time>
      </trkpt>
      <trkpt lat="48.95882" lon="2.04719">
        <ele>18.8</ele>
        <time>2022-04-19T09:04:21Z</time>
      </trkpt>
      <trkpt lat="48.95887" lon="2.04718">
        <ele>19.4</ele>
        <time>2022-04-19T09:04:25Z</time>
      </trkpt>
      <trkpt lat="48.95892" lon="2.04718">
        <ele>19.2</ele>
        <time>2022-04-19T09:04:29Z</time>
      </trkpt>
      <trkpt lat="48.95898" lon="2.04718">
        <ele>18.1</ele>
        <time>2022-04-19T09:04:33Z</time>
      </trkpt>
      <trkpt lat="48.95902" lon="2.04725">
        <ele>16.6</ele>
        <time>2022-04-19T09:05:32Z</time>
      </trkpt>
      <trkpt lat="48.95903" lon="2.04731">
        <ele>15.2</ele>
        <time>2022-04-19T09:05:49Z</time>
      </trkpt>
      <trkpt lat="48.95899" lon="2.04735">
        <ele>13.6</ele>
        <time>2022-04-19T09:06:32Z</time>
      </trkpt>
      <trkpt lat="48.95895" lon="2.04742">
        <ele>14.2</ele>
        <time>2022-04-19T09:06:36Z</time>
      </trkpt>
      <trkpt lat="48.95894" lon="2.04749">
        <ele>14.5</ele>
        <time>2022-04-19T09:06:39Z</time>
      </trkpt>
      <trkpt lat="48.9589" lon="2.04756">
        <ele>10.7</ele>
        <time>2022-04-19T09:06:44Z</time>
      </trkpt>
      <trkpt lat="48.95889" lon="2.04763">
        <ele>12.5</ele>
        <time>2022-04-19T09:06:49Z</time>
      </trkpt>
      <trkpt lat="48.95887" lon="2.0477">
        <ele>14.2</ele>
        <time>2022-04-19T09:06:53Z</time>
      </trkpt>
      <trkpt lat="48.95884" lon="2.04777">
        <ele>13.9</ele>
        <time>2022-04-19T09:06:58Z</time>
      </trkpt>
      <trkpt lat="48.95886" lon="2.04785">
        <ele>16.3</ele>
        <time>2022-04-19T09:07:02Z</time>
      </trkpt>
      <trkpt lat="48.9589" lon="2.04786">
        <ele>13.4</ele>
        <time>2022-04-19T09:07:05Z</time>
      </trkpt>
      <trkpt lat="48.95896" lon="2.04783">
        <ele>13.8</ele>
        <time>2022-04-19T09:07:09Z</time>
      </trkpt>
      <trkpt lat="48.95901" lon="2.04783">
        <ele>13</ele>
        <time>2022-04-19T09:07:13Z</time>
      </trkpt>
      <trkpt lat="48.95906" lon="2.04784">
        <ele>13.7</ele>
        <time>2022-04-19T09:07:17Z</time>
      </trkpt>
      <trkpt lat="48.9591" lon="2.04785">
        <ele>16.5</ele>
        <time>2022-04-19T09:07:20Z</time>
      </trkpt>
      <trkpt lat="48.95915" lon="2.04785">
        <ele>16.5</ele>
        <time>2022-04-19T09:07:24Z</time>
      </trkpt>
      <trkpt lat="48.9592" lon="2.04783">
        <ele>16.5</ele>
        <time>2022-04-19T09:07:28Z</time>
      </trkpt>
      <trkpt lat="48.95925" lon="2.04784">
        <ele>15.9</ele>
        <time>2022-04-19T09:07:33Z</time>
      </trkpt>
      <trkpt lat="48.9593" lon="2.04782">
        <ele>14.9</ele>
        <time>2022-04-19T09:07:36Z</time>
      </trkpt>
      <trkpt lat="48.95934" lon="2.04779">
        <ele>17.1</ele>
        <time>2022-04-19T09:07:41Z</time>
      </trkpt>
      <trkpt lat="48.95938" lon="2.04776">
        <ele>17.6</ele>
        <time>2022-04-19T09:07:45Z</time>
      </trkpt>
      <trkpt lat="48.95942" lon="2.04772">
        <ele>16.3</ele>
        <time>2022-04-19T09:07:50Z</time>
      </trkpt>
      <trkpt lat="48.95944" lon="2.04764">
        <ele>13.8</ele>
        <time>2022-04-19T09:07:55Z</time>
      </trkpt>
      <trkpt lat="48.95949" lon="2.04761">
        <ele>13.4</ele>
        <time>2022-04-19T09:08:00Z</time>
      </trkpt>
      <trkpt lat="48.95954" lon="2.0476">
        <ele>14.3</ele>
        <time>2022-04-19T09:08:04Z</time>
      </trkpt>
      <trkpt lat="48.95957" lon="2.04754">
        <ele>12.9</ele>
        <time>2022-04-19T09:08:09Z</time>
      </trkpt>
      <trkpt lat="48.95956" lon="2.04747">
        <ele>13.6</ele>
        <time>2022-04-19T09:08:14Z</time>
      </trkpt>
      <trkpt lat="48.95962" lon="2.04745">
        <ele>11.6</ele>
        <time>2022-04-19T09:08:19Z</time>
      </trkpt>
      <trkpt lat="48.95966" lon="2.04744">
        <ele>12.1</ele>
        <time>2022-04-19T09:08:24Z</time>
      </trkpt>
      <trkpt lat="48.95971" lon="2.0474">
        <ele>14.9</ele>
        <time>2022-04-19T09:08:29Z</time>
      </trkpt>
      <trkpt lat="48.9597" lon="2.04733">
        <ele>16.1</ele>
        <time>2022-04-19T09:08:34Z</time>
      </trkpt>
      <trkpt lat="48.95975" lon="2.04733">
        <ele>17</ele>
        <time>2022-04-19T09:09:05Z</time>
      </trkpt>
      <trkpt lat="48.9598" lon="2.04731">
        <ele>15.5</ele>
        <time>2022-04-19T09:09:10Z</time>
      </trkpt>
      <trkpt lat="48.95984" lon="2.04735">
        <ele>19.6</ele>
        <time>2022-04-19T09:09:15Z</time>
      </trkpt>
      <trkpt lat="48.95988" lon="2.04742">
        <ele>17.8</ele>
        <time>2022-04-19T09:09:20Z</time>
      </trkpt>
      <trkpt lat="48.95992" lon="2.04746">
        <ele>17.6</ele>
        <time>2022-04-19T09:09:25Z</time>
      </trkpt>
      <trkpt lat="48.95997" lon="2.04749">
        <ele>17.1</ele>
        <time>2022-04-19T09:09:31Z</time>
      </trkpt>
      <trkpt lat="48.96" lon="2.04743">
        <ele>15.7</ele>
        <time>2022-04-19T09:09:35Z</time>
      </trkpt>
      <trkpt lat="48.96003" lon="2.04738">
        <ele>14.9</ele>
        <time>2022-04-19T09:09:40Z</time>
      </trkpt>
      <trkpt lat="48.96008" lon="2.04736">
        <ele>14.4</ele>
        <time>2022-04-19T09:09:44Z</time>
      </trkpt>
      <trkpt lat="48.96014" lon="2.04737">
        <ele>12.8</ele>
        <time>2022-04-19T09:09:50Z</time>
      </trkpt>
      <trkpt lat="48.96018" lon="2.04735">
        <ele>13.9</ele>
        <time>2022-04-19T09:09:55Z</time>
      </trkpt>
      <trkpt lat="48.96021" lon="2.04728">
        <ele>11.9</ele>
        <time>2022-04-19T09:10:01Z</time>
      </trkpt>
      <trkpt lat="48.96025" lon="2.04724">
        <ele>12.2</ele>
        <time>2022-04-19T09:10:06Z</time>
      </trkpt>
      <trkpt lat="48.96029" lon="2.04721">
        <ele>13.8</ele>
        <time>2022-04-19T09:10:10Z</time>
      </trkpt>
      <trkpt lat="48.96034" lon="2.0472">
        <ele>13.4</ele>
        <time>2022-04-19T09:10:18Z</time>
      </trkpt>
      <trkpt lat="48.96038" lon="2.04716">
        <ele>13.2</ele>
        <time>2022-04-19T09:10:23Z</time>
      </trkpt>
      <trkpt lat="48.96043" lon="2.04713">
        <ele>14.1</ele>
        <time>2022-04-19T09:10:29Z</time>
      </trkpt>
      <trkpt lat="48.96048" lon="2.04714">
        <ele>13.8</ele>
        <time>2022-04-19T09:10:35Z</time>
      </trkpt>
      <trkpt lat="48.96053" lon="2.04714">
        <ele>13.1</ele>
        <time>2022-04-19T09:10:42Z</time>
      </trkpt>
      <trkpt lat="48.96058" lon="2.04713">
        <ele>13.5</ele>
        <time>2022-04-19T09:10:49Z</time>
      </trkpt>
      <trkpt lat="48.96063" lon="2.04714">
        <ele>12.4</ele>
        <time>2022-04-19T09:10:56Z</time>
      </trkpt>
      <trkpt lat="48.96067" lon="2.0471">
        <ele>10.1</ele>
        <time>2022-04-19T09:11:02Z</time>
      </trkpt>
      <trkpt lat="48.96071" lon="2.04705">
        <ele>11</ele>
        <time>2022-04-19T09:11:09Z</time>
      </trkpt>
      <trkpt lat="48.96076" lon="2.04705">
        <ele>13.3</ele>
        <time>2022-04-19T09:11:31Z</time>
      </trkpt>
      <trkpt lat="48.96078" lon="2.04698">
        <ele>14.7</ele>
        <time>2022-04-19T09:12:16Z</time>
      </trkpt>
      <trkpt lat="48.96077" lon="2.04689">
        <ele>15.2</ele>
        <time>2022-04-19T09:12:22Z</time>
      </trkpt>
      <trkpt lat="48.96077" lon="2.04682">
        <ele>19</ele>
        <time>2022-04-19T09:12:28Z</time>
      </trkpt>
      <trkpt lat="48.9608" lon="2.04675">
        <ele>19.6</ele>
        <time>2022-04-19T09:12:34Z</time>
      </trkpt>
      <trkpt lat="48.96082" lon="2.04668">
        <ele>15.9</ele>
        <time>2022-04-19T09:12:40Z</time>
      </trkpt>
      <trkpt lat="48.96086" lon="2.04663">
        <ele>14.7</ele>
        <time>2022-04-19T09:12:47Z</time>
      </trkpt>
      <trkpt lat="48.96091" lon="2.04662">
        <ele>18</ele>
        <time>2022-04-19T09:13:10Z</time>
      </trkpt>
      <trkpt lat="48.96086" lon="2.0466">
        <ele>13</ele>
        <time>2022-04-19T09:13:42Z</time>
      </trkpt>
      <trkpt lat="48.96083" lon="2.04655">
        <ele>10.6</ele>
        <time>2022-04-19T09:13:49Z</time>
      </trkpt>
      <trkpt lat="48.96079" lon="2.04659">
        <ele>14.9</ele>
        <time>2022-04-19T09:14:20Z</time>
      </trkpt>
      <trkpt lat="48.96074" lon="2.0466">
        <ele>14.9</ele>
        <time>2022-04-19T09:14:24Z</time>
      </trkpt>
      <trkpt lat="48.96072" lon="2.04666">
        <ele>13.9</ele>
        <time>2022-04-19T09:14:28Z</time>
      </trkpt>
      <trkpt lat="48.96071" lon="2.04675">
        <ele>12.3</ele>
        <time>2022-04-19T09:14:33Z</time>
      </trkpt>
      <trkpt lat="48.96072" lon="2.04682">
        <ele>12.5</ele>
        <time>2022-04-19T09:14:38Z</time>
      </trkpt>
      <trkpt lat="48.96074" lon="2.04676">
        <ele>16.4</ele>
        <time>2022-04-19T09:15:33Z</time>
      </trkpt>
      <trkpt lat="48.96079" lon="2.04672">
        <ele>16.8</ele>
        <time>2022-04-19T09:15:37Z</time>
      </trkpt>
      <trkpt lat="48.96081" lon="2.04679">
        <ele>16.1</ele>
        <time>2022-04-19T09:16:37Z</time>
      </trkpt>
      <trkpt lat="48.96078" lon="2.04685">
        <ele>17.5</ele>
        <time>2022-04-19T09:20:18Z</time>
      </trkpt>
      <trkpt lat="48.96077" lon="2.04692">
        <ele>15.7</ele>
        <time>2022-04-19T09:20:39Z</time>
      </trkpt>
      <trkpt lat="48.96074" lon="2.047">
        <ele>16.6</ele>
        <time>2022-04-19T09:20:44Z</time>
      </trkpt>
      <trkpt lat="48.96072" lon="2.04706">
        <ele>17</ele>
        <time>2022-04-19T09:20:50Z</time>
      </trkpt>
      <trkpt lat="48.96069" lon="2.04711">
        <ele>16.6</ele>
        <time>2022-04-19T09:20:58Z</time>
      </trkpt>
      <trkpt lat="48.96064" lon="2.04713">
        <ele>12.6</ele>
        <time>2022-04-19T09:21:04Z</time>
      </trkpt>
      <trkpt lat="48.9606" lon="2.04709">
        <ele>9.5</ele>
        <time>2022-04-19T09:21:10Z</time>
      </trkpt>
      <trkpt lat="48.96058" lon="2.04701">
        <ele>8.8</ele>
        <time>2022-04-19T09:21:15Z</time>
      </trkpt>
      <trkpt lat="48.96056" lon="2.04694">
        <ele>10.3</ele>
        <time>2022-04-19T09:21:20Z</time>
      </trkpt>
      <trkpt lat="48.96054" lon="2.04686">
        <ele>13.6</ele>
        <time>2022-04-19T09:21:25Z</time>
      </trkpt>
      <trkpt lat="48.96052" lon="2.0468">
        <ele>11.8</ele>
        <time>2022-04-19T09:21:29Z</time>
      </trkpt>
      <trkpt lat="48.9605" lon="2.04674">
        <ele>12.7</ele>
        <time>2022-04-19T09:21:34Z</time>
      </trkpt>
      <trkpt lat="48.96046" lon="2.04668">
        <ele>12</ele>
        <time>2022-04-19T09:21:40Z</time>
      </trkpt>
      <trkpt lat="48.96042" lon="2.04665">
        <ele>11.4</ele>
        <time>2022-04-19T09:21:44Z</time>
      </trkpt>
      <trkpt lat="48.96035" lon="2.04664">
        <ele>12.2</ele>
        <time>2022-04-19T09:21:56Z</time>
      </trkpt>
      <trkpt lat="48.9603" lon="2.0466">
        <ele>11.2</ele>
        <time>2022-04-19T09:22:01Z</time>
      </trkpt>
      <trkpt lat="48.96026" lon="2.04659">
        <ele>13.4</ele>
        <time>2022-04-19T09:22:05Z</time>
      </trkpt>
      <trkpt lat="48.9602" lon="2.04658">
        <ele>9.4</ele>
        <time>2022-04-19T09:22:09Z</time>
      </trkpt>
      <trkpt lat="48.96015" lon="2.04658">
        <ele>11</ele>
        <time>2022-04-19T09:22:13Z</time>
      </trkpt>
      <trkpt lat="48.9601" lon="2.04658">
        <ele>9.9</ele>
        <time>2022-04-19T09:22:17Z</time>
      </trkpt>
      <trkpt lat="48.96005" lon="2.04658">
        <ele>10.1</ele>
        <time>2022-04-19T09:22:21Z</time>
      </trkpt>
      <trkpt lat="48.95999" lon="2.04659">
        <ele>8.8</ele>
        <time>2022-04-19T09:22:26Z</time>
      </trkpt>
      <trkpt lat="48.95994" lon="2.0466">
        <ele>10.4</ele>
        <time>2022-04-19T09:22:30Z</time>
      </trkpt>
      <trkpt lat="48.95989" lon="2.0466">
        <ele>9</ele>
        <time>2022-04-19T09:22:34Z</time>
      </trkpt>
      <trkpt lat="48.95984" lon="2.0466">
        <ele>10.8</ele>
        <time>2022-04-19T09:22:38Z</time>
      </trkpt>
      <trkpt lat="48.95979" lon="2.04661">
        <ele>10.9</ele>
        <time>2022-04-19T09:22:41Z</time>
      </trkpt>
      <trkpt lat="48.95973" lon="2.04661">
        <ele>13.2</ele>
        <time>2022-04-19T09:22:46Z</time>
      </trkpt>
      <trkpt lat="48.95969" lon="2.0466">
        <ele>13.1</ele>
        <time>2022-04-19T09:22:49Z</time>
      </trkpt>
      <trkpt lat="48.95963" lon="2.04662">
        <ele>14.9</ele>
        <time>2022-04-19T09:22:54Z</time>
      </trkpt>
      <trkpt lat="48.95958" lon="2.04665">
        <ele>12.8</ele>
        <time>2022-04-19T09:23:00Z</time>
      </trkpt>
      <trkpt lat="48.95953" lon="2.04665">
        <ele>12</ele>
        <time>2022-04-19T09:23:04Z</time>
      </trkpt>
      <trkpt lat="48.95948" lon="2.04665">
        <ele>11.5</ele>
        <time>2022-04-19T09:23:08Z</time>
      </trkpt>
      <trkpt lat="48.95943" lon="2.04663">
        <ele>13</ele>
        <time>2022-04-19T09:23:12Z</time>
      </trkpt>
      <trkpt lat="48.95938" lon="2.04659">
        <ele>13.3</ele>
        <time>2022-04-19T09:23:16Z</time>
      </trkpt>
      <trkpt lat="48.95932" lon="2.04657">
        <ele>10.9</ele>
        <time>2022-04-19T09:23:20Z</time>
      </trkpt>
      <trkpt lat="48.95927" lon="2.04655">
        <ele>11.3</ele>
        <time>2022-04-19T09:23:25Z</time>
      </trkpt>
      <trkpt lat="48.95923" lon="2.04656">
        <ele>10.1</ele>
        <time>2022-04-19T09:23:29Z</time>
      </trkpt>
      <trkpt lat="48.95919" lon="2.04661">
        <ele>7.1</ele>
        <time>2022-04-19T09:23:34Z</time>
      </trkpt>
      <trkpt lat="48.95913" lon="2.04662">
        <ele>6.4</ele>
        <time>2022-04-19T09:23:38Z</time>
      </trkpt>
      <trkpt lat="48.95908" lon="2.04662">
        <ele>6.4</ele>
        <time>2022-04-19T09:23:43Z</time>
      </trkpt>
      <trkpt lat="48.95906" lon="2.04668">
        <ele>8.3</ele>
        <time>2022-04-19T09:23:49Z</time>
      </trkpt>
      <trkpt lat="48.95904" lon="2.04676">
        <ele>17</ele>
        <time>2022-04-19T09:24:40Z</time>
      </trkpt>
      <trkpt lat="48.95903" lon="2.04683">
        <ele>17.2</ele>
        <time>2022-04-19T09:24:45Z</time>
      </trkpt>
      <trkpt lat="48.95901" lon="2.04692">
        <ele>16</ele>
        <time>2022-04-19T09:24:51Z</time>
      </trkpt>
      <trkpt lat="48.95902" lon="2.04685">
        <ele>15.5</ele>
        <time>2022-04-19T09:25:09Z</time>
      </trkpt>
      <trkpt lat="48.95903" lon="2.04675">
        <ele>15.1</ele>
        <time>2022-04-19T09:25:14Z</time>
      </trkpt>
      <trkpt lat="48.95906" lon="2.04669">
        <ele>16.5</ele>
        <time>2022-04-19T09:25:19Z</time>
      </trkpt>
      <trkpt lat="48.95901" lon="2.04666">
        <ele>11.9</ele>
        <time>2022-04-19T09:25:31Z</time>
      </trkpt>
      <trkpt lat="48.95898" lon="2.04661">
        <ele>13.7</ele>
        <time>2022-04-19T09:26:09Z</time>
      </trkpt>
      <trkpt lat="48.95892" lon="2.0466">
        <ele>14.3</ele>
        <time>2022-04-19T09:26:13Z</time>
      </trkpt>
      <trkpt lat="48.95887" lon="2.04662">
        <ele>12.9</ele>
        <time>2022-04-19T09:26:17Z</time>
      </trkpt>
      <trkpt lat="48.95882" lon="2.04663">
        <ele>13.4</ele>
        <time>2022-04-19T09:26:22Z</time>
      </trkpt>
      <trkpt lat="48.95877" lon="2.04663">
        <ele>13.4</ele>
        <time>2022-04-19T09:26:27Z</time>
      </trkpt>
      <trkpt lat="48.95871" lon="2.04663">
        <ele>13.5</ele>
        <time>2022-04-19T09:26:32Z</time>
      </trkpt>
      <trkpt lat="48.95866" lon="2.04663">
        <ele>13.2</ele>
        <time>2022-04-19T09:26:37Z</time>
      </trkpt>
      <trkpt lat="48.9586" lon="2.04661">
        <ele>13.2</ele>
        <time>2022-04-19T09:26:44Z</time>
      </trkpt>
      <trkpt lat="48.95854" lon="2.04662">
        <ele>13.7</ele>
        <time>2022-04-19T09:27:01Z</time>
      </trkpt>
      <trkpt lat="48.95849" lon="2.04663">
        <ele>11.7</ele>
        <time>2022-04-19T09:27:06Z</time>
      </trkpt>
      <trkpt lat="48.95843" lon="2.04662">
        <ele>13.1</ele>
        <time>2022-04-19T09:27:11Z</time>
      </trkpt>
      <trkpt lat="48.95838" lon="2.04659">
        <ele>10.4</ele>
        <time>2022-04-19T09:27:15Z</time>
      </trkpt>
      <trkpt lat="48.95833" lon="2.04657">
        <ele>10.1</ele>
        <time>2022-04-19T09:27:19Z</time>
      </trkpt>
      <trkpt lat="48.95828" lon="2.04658">
        <ele>11.9</ele>
        <time>2022-04-19T09:27:23Z</time>
      </trkpt>
      <trkpt lat="48.95822" lon="2.04658">
        <ele>12.5</ele>
        <time>2022-04-19T09:27:27Z</time>
      </trkpt>
      <trkpt lat="48.95817" lon="2.0466">
        <ele>13.6</ele>
        <time>2022-04-19T09:27:31Z</time>
      </trkpt>
      <trkpt lat="48.95812" lon="2.04661">
        <ele>12.2</ele>
        <time>2022-04-19T09:27:35Z</time>
      </trkpt>
      <trkpt lat="48.95807" lon="2.04662">
        <ele>13.3</ele>
        <time>2022-04-19T09:27:40Z</time>
      </trkpt>
      <trkpt lat="48.95801" lon="2.04661">
        <ele>12.3</ele>
        <time>2022-04-19T09:27:44Z</time>
      </trkpt>
      <trkpt lat="48.95796" lon="2.0466">
        <ele>12.3</ele>
        <time>2022-04-19T09:27:47Z</time>
      </trkpt>
      <trkpt lat="48.95792" lon="2.04659">
        <ele>13.7</ele>
        <time>2022-04-19T09:27:50Z</time>
      </trkpt>
      <trkpt lat="48.95786" lon="2.04656">
        <ele>14.1</ele>
        <time>2022-04-19T09:27:54Z</time>
      </trkpt>
      <trkpt lat="48.9578" lon="2.04655">
        <ele>14.2</ele>
        <time>2022-04-19T09:27:58Z</time>
      </trkpt>
      <trkpt lat="48.95775" lon="2.04658">
        <ele>14</ele>
        <time>2022-04-19T09:28:02Z</time>
      </trkpt>
      <trkpt lat="48.95771" lon="2.04659">
        <ele>14.4</ele>
        <time>2022-04-19T09:28:06Z</time>
      </trkpt>
      <trkpt lat="48.95765" lon="2.04659">
        <ele>14.6</ele>
        <time>2022-04-19T09:28:11Z</time>
      </trkpt>
      <trkpt lat="48.9576" lon="2.04656">
        <ele>18.2</ele>
        <time>2022-04-19T09:28:15Z</time>
      </trkpt>
      <trkpt lat="48.95754" lon="2.04655">
        <ele>18.4</ele>
        <time>2022-04-19T09:28:19Z</time>
      </trkpt>
      <trkpt lat="48.95749" lon="2.04656">
        <ele>17.8</ele>
        <time>2022-04-19T09:28:24Z</time>
      </trkpt>
      <trkpt lat="48.95744" lon="2.04657">
        <ele>15.3</ele>
        <time>2022-04-19T09:28:28Z</time>
      </trkpt>
      <trkpt lat="48.95739" lon="2.04658">
        <ele>13.1</ele>
        <time>2022-04-19T09:28:33Z</time>
      </trkpt>
      <trkpt lat="48.95734" lon="2.04658">
        <ele>14.6</ele>
        <time>2022-04-19T09:28:37Z</time>
      </trkpt>
      <trkpt lat="48.95729" lon="2.04656">
        <ele>15.6</ele>
        <time>2022-04-19T09:28:42Z</time>
      </trkpt>
      <trkpt lat="48.95724" lon="2.04656">
        <ele>15.7</ele>
        <time>2022-04-19T09:28:46Z</time>
      </trkpt>
      <trkpt lat="48.95719" lon="2.04656">
        <ele>16.7</ele>
        <time>2022-04-19T09:28:50Z</time>
      </trkpt>
      <trkpt lat="48.95714" lon="2.04657">
        <ele>16</ele>
        <time>2022-04-19T09:28:54Z</time>
      </trkpt>
      <trkpt lat="48.95709" lon="2.04658">
        <ele>15.7</ele>
        <time>2022-04-19T09:28:59Z</time>
      </trkpt>
      <trkpt lat="48.95704" lon="2.04659">
        <ele>15.9</ele>
        <time>2022-04-19T09:29:03Z</time>
      </trkpt>
      <trkpt lat="48.95699" lon="2.0466">
        <ele>11.5</ele>
        <time>2022-04-19T09:29:07Z</time>
      </trkpt>
      <trkpt lat="48.95694" lon="2.04661">
        <ele>13.1</ele>
        <time>2022-04-19T09:29:11Z</time>
      </trkpt>
      <trkpt lat="48.95689" lon="2.04662">
        <ele>13.2</ele>
        <time>2022-04-19T09:29:15Z</time>
      </trkpt>
      <trkpt lat="48.95684" lon="2.04661">
        <ele>13.7</ele>
        <time>2022-04-19T09:29:20Z</time>
      </trkpt>
      <trkpt lat="48.95679" lon="2.0466">
        <ele>12.5</ele>
        <time>2022-04-19T09:29:23Z</time>
      </trkpt>
      <trkpt lat="48.95674" lon="2.0466">
        <ele>15</ele>
        <time>2022-04-19T09:29:28Z</time>
      </trkpt>
      <trkpt lat="48.9567" lon="2.04661">
        <ele>13.9</ele>
        <time>2022-04-19T09:29:31Z</time>
      </trkpt>
      <trkpt lat="48.95665" lon="2.04661">
        <ele>13.6</ele>
        <time>2022-04-19T09:29:35Z</time>
      </trkpt>
      <trkpt lat="48.9566" lon="2.04661">
        <ele>13.7</ele>
        <time>2022-04-19T09:29:40Z</time>
      </trkpt>
      <trkpt lat="48.95655" lon="2.0466">
        <ele>14.7</ele>
        <time>2022-04-19T09:29:44Z</time>
      </trkpt>
      <trkpt lat="48.9565" lon="2.0466">
        <ele>14.2</ele>
        <time>2022-04-19T09:29:48Z</time>
      </trkpt>
      <trkpt lat="48.95645" lon="2.04661">
        <ele>14.3</ele>
        <time>2022-04-19T09:29:53Z</time>
      </trkpt>
      <trkpt lat="48.9564" lon="2.04659">
        <ele>14.5</ele>
        <time>2022-04-19T09:29:57Z</time>
      </trkpt>
      <trkpt lat="48.95636" lon="2.04658">
        <ele>15.1</ele>
        <time>2022-04-19T09:30:01Z</time>
      </trkpt>
      <trkpt lat="48.95631" lon="2.04658">
        <ele>15</ele>
        <time>2022-04-19T09:30:06Z</time>
      </trkpt>
      <trkpt lat="48.95626" lon="2.04664">
        <ele>13.6</ele>
        <time>2022-04-19T09:30:11Z</time>
      </trkpt>
      <trkpt lat="48.95621" lon="2.04665">
        <ele>14.7</ele>
        <time>2022-04-19T09:30:15Z</time>
      </trkpt>
      <trkpt lat="48.95616" lon="2.04664">
        <ele>13.3</ele>
        <time>2022-04-19T09:30:19Z</time>
      </trkpt>
      <trkpt lat="48.95611" lon="2.04664">
        <ele>13.1</ele>
        <time>2022-04-19T09:30:24Z</time>
      </trkpt>
      <trkpt lat="48.95606" lon="2.04663">
        <ele>13.6</ele>
        <time>2022-04-19T09:30:28Z</time>
      </trkpt>
      <trkpt lat="48.956" lon="2.04661">
        <ele>15.2</ele>
        <time>2022-04-19T09:30:32Z</time>
      </trkpt>
      <trkpt lat="48.95595" lon="2.04661">
        <ele>15.7</ele>
        <time>2022-04-19T09:30:36Z</time>
      </trkpt>
      <trkpt lat="48.95591" lon="2.04663">
        <ele>14.3</ele>
        <time>2022-04-19T09:30:40Z</time>
      </trkpt>
      <trkpt lat="48.95586" lon="2.04663">
        <ele>14.4</ele>
        <time>2022-04-19T09:30:45Z</time>
      </trkpt>
      <trkpt lat="48.95581" lon="2.04662">
        <ele>16.2</ele>
        <time>2022-04-19T09:30:48Z</time>
      </trkpt>
      <trkpt lat="48.95576" lon="2.04662">
        <ele>18.5</ele>
        <time>2022-04-19T09:30:52Z</time>
      </trkpt>
      <trkpt lat="48.9557" lon="2.04662">
        <ele>16.6</ele>
        <time>2022-04-19T09:30:56Z</time>
      </trkpt>
      <trkpt lat="48.95566" lon="2.04663">
        <ele>17.4</ele>
        <time>2022-04-19T09:30:59Z</time>
      </trkpt>
      <trkpt lat="48.95561" lon="2.04663">
        <ele>16.9</ele>
        <time>2022-04-19T09:31:03Z</time>
      </trkpt>
      <trkpt lat="48.95556" lon="2.04662">
        <ele>16.1</ele>
        <time>2022-04-19T09:31:07Z</time>
      </trkpt>
      <trkpt lat="48.95551" lon="2.04663">
        <ele>17.4</ele>
        <time>2022-04-19T09:31:12Z</time>
      </trkpt>
      <trkpt lat="48.95546" lon="2.04662">
        <ele>16.9</ele>
        <time>2022-04-19T09:31:16Z</time>
      </trkpt>
      <trkpt lat="48.95542" lon="2.0466">
        <ele>17.9</ele>
        <time>2022-04-19T09:31:20Z</time>
      </trkpt>
      <trkpt lat="48.95537" lon="2.04659">
        <ele>16.4</ele>
        <time>2022-04-19T09:31:24Z</time>
      </trkpt>
      <trkpt lat="48.95532" lon="2.04657">
        <ele>15.6</ele>
        <time>2022-04-19T09:31:28Z</time>
      </trkpt>
      <trkpt lat="48.95527" lon="2.04655">
        <ele>15.2</ele>
        <time>2022-04-19T09:31:32Z</time>
      </trkpt>
      <trkpt lat="48.95521" lon="2.04656">
        <ele>17.3</ele>
        <time>2022-04-19T09:31:37Z</time>
      </trkpt>
      <trkpt lat="48.95516" lon="2.04657">
        <ele>16.3</ele>
        <time>2022-04-19T09:31:41Z</time>
      </trkpt>
      <trkpt lat="48.9551" lon="2.04656">
        <ele>16.1</ele>
        <time>2022-04-19T09:31:45Z</time>
      </trkpt>
      <trkpt lat="48.95505" lon="2.04656">
        <ele>17</ele>
        <time>2022-04-19T09:31:49Z</time>
      </trkpt>
      <trkpt lat="48.95499" lon="2.04655">
        <ele>15.9</ele>
        <time>2022-04-19T09:31:54Z</time>
      </trkpt>
      <trkpt lat="48.95494" lon="2.04654">
        <ele>14.2</ele>
        <time>2022-04-19T09:31:58Z</time>
      </trkpt>
      <trkpt lat="48.95489" lon="2.04653">
        <ele>15.3</ele>
        <time>2022-04-19T09:32:02Z</time>
      </trkpt>
      <trkpt lat="48.95483" lon="2.04653">
        <ele>15.5</ele>
        <time>2022-04-19T09:32:06Z</time>
      </trkpt>
      <trkpt lat="48.95478" lon="2.04653">
        <ele>15.3</ele>
        <time>2022-04-19T09:32:10Z</time>
      </trkpt>
      <trkpt lat="48.95473" lon="2.04653">
        <ele>13.4</ele>
        <time>2022-04-19T09:32:14Z</time>
      </trkpt>
      <trkpt lat="48.95468" lon="2.04653">
        <ele>14.1</ele>
        <time>2022-04-19T09:32:18Z</time>
      </trkpt>
      <trkpt lat="48.95463" lon="2.04652">
        <ele>13.8</ele>
        <time>2022-04-19T09:32:23Z</time>
      </trkpt>
      <trkpt lat="48.95458" lon="2.04652">
        <ele>13.4</ele>
        <time>2022-04-19T09:32:27Z</time>
      </trkpt>
      <trkpt lat="48.95453" lon="2.04652">
        <ele>14.1</ele>
        <time>2022-04-19T09:32:31Z</time>
      </trkpt>
      <trkpt lat="48.95448" lon="2.0465">
        <ele>14.9</ele>
        <time>2022-04-19T09:32:35Z</time>
      </trkpt>
      <trkpt lat="48.95442" lon="2.0465">
        <ele>14.7</ele>
        <time>2022-04-19T09:32:39Z</time>
      </trkpt>
      <trkpt lat="48.95438" lon="2.0465">
        <ele>12.9</ele>
        <time>2022-04-19T09:32:43Z</time>
      </trkpt>
      <trkpt lat="48.95432" lon="2.04651">
        <ele>12.4</ele>
        <time>2022-04-19T09:32:48Z</time>
      </trkpt>
      <trkpt lat="48.95427" lon="2.04653">
        <ele>12.9</ele>
        <time>2022-04-19T09:32:52Z</time>
      </trkpt>
      <trkpt lat="48.95422" lon="2.04654">
        <ele>13.4</ele>
        <time>2022-04-19T09:32:57Z</time>
      </trkpt>
      <trkpt lat="48.95417" lon="2.04654">
        <ele>15.6</ele>
        <time>2022-04-19T09:33:01Z</time>
      </trkpt>
      <trkpt lat="48.95411" lon="2.04654">
        <ele>13.4</ele>
        <time>2022-04-19T09:33:05Z</time>
      </trkpt>
      <trkpt lat="48.95406" lon="2.04653">
        <ele>13.6</ele>
        <time>2022-04-19T09:33:09Z</time>
      </trkpt>
      <trkpt lat="48.954" lon="2.04652">
        <ele>13.6</ele>
        <time>2022-04-19T09:33:13Z</time>
      </trkpt>
      <trkpt lat="48.95395" lon="2.04651">
        <ele>14.4</ele>
        <time>2022-04-19T09:33:18Z</time>
      </trkpt>
      <trkpt lat="48.9539" lon="2.04651">
        <ele>14.2</ele>
        <time>2022-04-19T09:33:22Z</time>
      </trkpt>
      <trkpt lat="48.95385" lon="2.0465">
        <ele>14.5</ele>
        <time>2022-04-19T09:33:26Z</time>
      </trkpt>
      <trkpt lat="48.9538" lon="2.04652">
        <ele>13.4</ele>
        <time>2022-04-19T09:33:30Z</time>
      </trkpt>
      <trkpt lat="48.95375" lon="2.04652">
        <ele>13.9</ele>
        <time>2022-04-19T09:33:35Z</time>
      </trkpt>
      <trkpt lat="48.95371" lon="2.0465">
        <ele>11.9</ele>
        <time>2022-04-19T09:33:39Z</time>
      </trkpt>
      <trkpt lat="48.95365" lon="2.0465">
        <ele>11.3</ele>
        <time>2022-04-19T09:33:43Z</time>
      </trkpt>
      <trkpt lat="48.95361" lon="2.0465">
        <ele>13.8</ele>
        <time>2022-04-19T09:33:47Z</time>
      </trkpt>
      <trkpt lat="48.95355" lon="2.0465">
        <ele>13.7</ele>
        <time>2022-04-19T09:33:51Z</time>
      </trkpt>
      <trkpt lat="48.9535" lon="2.04649">
        <ele>15.6</ele>
        <time>2022-04-19T09:33:54Z</time>
      </trkpt>
      <trkpt lat="48.95345" lon="2.04648">
        <ele>13.6</ele>
        <time>2022-04-19T09:33:59Z</time>
      </trkpt>
      <trkpt lat="48.95339" lon="2.04647">
        <ele>13</ele>
        <time>2022-04-19T09:34:03Z</time>
      </trkpt>
      <trkpt lat="48.95334" lon="2.04646">
        <ele>12.9</ele>
        <time>2022-04-19T09:34:08Z</time>
      </trkpt>
      <trkpt lat="48.95328" lon="2.04645">
        <ele>14.7</ele>
        <time>2022-04-19T09:34:12Z</time>
      </trkpt>
      <trkpt lat="48.95323" lon="2.04646">
        <ele>15.1</ele>
        <time>2022-04-19T09:34:16Z</time>
      </trkpt>
      <trkpt lat="48.95318" lon="2.04647">
        <ele>16.7</ele>
        <time>2022-04-19T09:34:20Z</time>
      </trkpt>
      <trkpt lat="48.95313" lon="2.04647">
        <ele>18.2</ele>
        <time>2022-04-19T09:34:25Z</time>
      </trkpt>
      <trkpt lat="48.95308" lon="2.04647">
        <ele>18.5</ele>
        <time>2022-04-19T09:34:30Z</time>
      </trkpt>
      <trkpt lat="48.95302" lon="2.04646">
        <ele>18.1</ele>
        <time>2022-04-19T09:34:34Z</time>
      </trkpt>
      <trkpt lat="48.95298" lon="2.04645">
        <ele>17.9</ele>
        <time>2022-04-19T09:34:38Z</time>
      </trkpt>
      <trkpt lat="48.95293" lon="2.04645">
        <ele>17.9</ele>
        <time>2022-04-19T09:34:42Z</time>
      </trkpt>
      <trkpt lat="48.95288" lon="2.04643">
        <ele>18.6</ele>
        <time>2022-04-19T09:34:46Z</time>
      </trkpt>
      <trkpt lat="48.95283" lon="2.04644">
        <ele>18.4</ele>
        <time>2022-04-19T09:34:49Z</time>
      </trkpt>
      <trkpt lat="48.95278" lon="2.04644">
        <ele>19.3</ele>
        <time>2022-04-19T09:34:53Z</time>
      </trkpt>
      <trkpt lat="48.95274" lon="2.04643">
        <ele>19.4</ele>
        <time>2022-04-19T09:34:57Z</time>
      </trkpt>
      <trkpt lat="48.95268" lon="2.04643">
        <ele>20.1</ele>
        <time>2022-04-19T09:35:01Z</time>
      </trkpt>
      <trkpt lat="48.95263" lon="2.04643">
        <ele>19.3</ele>
        <time>2022-04-19T09:35:06Z</time>
      </trkpt>
      <trkpt lat="48.95258" lon="2.04642">
        <ele>18.6</ele>
        <time>2022-04-19T09:35:10Z</time>
      </trkpt>
      <trkpt lat="48.95253" lon="2.0464">
        <ele>18.5</ele>
        <time>2022-04-19T09:35:14Z</time>
      </trkpt>
      <trkpt lat="48.95248" lon="2.04638">
        <ele>18.2</ele>
        <time>2022-04-19T09:35:19Z</time>
      </trkpt>
      <trkpt lat="48.95242" lon="2.04638">
        <ele>19</ele>
        <time>2022-04-19T09:35:23Z</time>
      </trkpt>
      <trkpt lat="48.95236" lon="2.04638">
        <ele>18.5</ele>
        <time>2022-04-19T09:35:27Z</time>
      </trkpt>
      <trkpt lat="48.95231" lon="2.04637">
        <ele>20.6</ele>
        <time>2022-04-19T09:35:31Z</time>
      </trkpt>
      <trkpt lat="48.95226" lon="2.04635">
        <ele>21.3</ele>
        <time>2022-04-19T09:35:35Z</time>
      </trkpt>
      <trkpt lat="48.95221" lon="2.04634">
        <ele>20.1</ele>
        <time>2022-04-19T09:35:39Z</time>
      </trkpt>
      <trkpt lat="48.95216" lon="2.04633">
        <ele>19.8</ele>
        <time>2022-04-19T09:35:44Z</time>
      </trkpt>
      <trkpt lat="48.95212" lon="2.04632">
        <ele>17.4</ele>
        <time>2022-04-19T09:35:48Z</time>
      </trkpt>
      <trkpt lat="48.95206" lon="2.04632">
        <ele>18.2</ele>
        <time>2022-04-19T09:35:52Z</time>
      </trkpt>
      <trkpt lat="48.95201" lon="2.04632">
        <ele>18.5</ele>
        <time>2022-04-19T09:35:55Z</time>
      </trkpt>
      <trkpt lat="48.95196" lon="2.04632">
        <ele>18.6</ele>
        <time>2022-04-19T09:36:00Z</time>
      </trkpt>
      <trkpt lat="48.9519" lon="2.04632">
        <ele>18.6</ele>
        <time>2022-04-19T09:36:04Z</time>
      </trkpt>
      <trkpt lat="48.95185" lon="2.04632">
        <ele>18.3</ele>
        <time>2022-04-19T09:36:08Z</time>
      </trkpt>
      <trkpt lat="48.9518" lon="2.04631">
        <ele>19.3</ele>
        <time>2022-04-19T09:36:14Z</time>
      </trkpt>
      <trkpt lat="48.95174" lon="2.04633">
        <ele>17.9</ele>
        <time>2022-04-19T09:36:18Z</time>
      </trkpt>
      <trkpt lat="48.9517" lon="2.04633">
        <ele>17.8</ele>
        <time>2022-04-19T09:36:22Z</time>
      </trkpt>
      <trkpt lat="48.95164" lon="2.04632">
        <ele>17.5</ele>
        <time>2022-04-19T09:36:27Z</time>
      </trkpt>
      <trkpt lat="48.95159" lon="2.04629">
        <ele>16.5</ele>
        <time>2022-04-19T09:36:31Z</time>
      </trkpt>
      <trkpt lat="48.95155" lon="2.04625">
        <ele>17.2</ele>
        <time>2022-04-19T09:36:36Z</time>
      </trkpt>
      <trkpt lat="48.9515" lon="2.04623">
        <ele>17</ele>
        <time>2022-04-19T09:36:40Z</time>
      </trkpt>
      <trkpt lat="48.95145" lon="2.04628">
        <ele>17.4</ele>
        <time>2022-04-19T09:36:44Z</time>
      </trkpt>
      <trkpt lat="48.95148" lon="2.04636">
        <ele>14.8</ele>
        <time>2022-04-19T09:36:48Z</time>
      </trkpt>
      <trkpt lat="48.95153" lon="2.04639">
        <ele>15.8</ele>
        <time>2022-04-19T09:36:52Z</time>
      </trkpt>
      <trkpt lat="48.95158" lon="2.04644">
        <ele>16.2</ele>
        <time>2022-04-19T09:36:56Z</time>
      </trkpt>
      <trkpt lat="48.95154" lon="2.04647">
        <ele>16.1</ele>
        <time>2022-04-19T09:37:00Z</time>
      </trkpt>
      <trkpt lat="48.95149" lon="2.04645">
        <ele>17.2</ele>
        <time>2022-04-19T09:37:03Z</time>
      </trkpt>
      <trkpt lat="48.95144" lon="2.04644">
        <ele>17.9</ele>
        <time>2022-04-19T09:37:06Z</time>
      </trkpt>
      <trkpt lat="48.95139" lon="2.04643">
        <ele>17.2</ele>
        <time>2022-04-19T09:37:10Z</time>
      </trkpt>
      <trkpt lat="48.95134" lon="2.04643">
        <ele>18.9</ele>
        <time>2022-04-19T09:37:15Z</time>
      </trkpt>
      <trkpt lat="48.95132" lon="2.04635">
        <ele>17.9</ele>
        <time>2022-04-19T09:37:20Z</time>
      </trkpt>
      <trkpt lat="48.95132" lon="2.04627">
        <ele>17.7</ele>
        <time>2022-04-19T09:37:25Z</time>
      </trkpt>
      <trkpt lat="48.95135" lon="2.0462">
        <ele>21.9</ele>
        <time>2022-04-19T09:37:39Z</time>
      </trkpt>
      <trkpt lat="48.95138" lon="2.04614">
        <ele>22.6</ele>
        <time>2022-04-19T09:37:44Z</time>
      </trkpt>
      <trkpt lat="48.95138" lon="2.04606">
        <ele>24.8</ele>
        <time>2022-04-19T09:37:50Z</time>
      </trkpt>
      <trkpt lat="48.95139" lon="2.04598">
        <ele>25</ele>
        <time>2022-04-19T09:37:56Z</time>
      </trkpt>
      <trkpt lat="48.95139" lon="2.0459">
        <ele>23.8</ele>
        <time>2022-04-19T09:38:00Z</time>
      </trkpt>
      <trkpt lat="48.9514" lon="2.04581">
        <ele>23.9</ele>
        <time>2022-04-19T09:38:04Z</time>
      </trkpt>
      <trkpt lat="48.95141" lon="2.04573">
        <ele>24.2</ele>
        <time>2022-04-19T09:38:08Z</time>
      </trkpt>
      <trkpt lat="48.95142" lon="2.04566">
        <ele>24.2</ele>
        <time>2022-04-19T09:38:13Z</time>
      </trkpt>
      <trkpt lat="48.95143" lon="2.04559">
        <ele>25.9</ele>
        <time>2022-04-19T09:38:17Z</time>
      </trkpt>
      <trkpt lat="48.95145" lon="2.04552">
        <ele>24.8</ele>
        <time>2022-04-19T09:38:23Z</time>
      </trkpt>
      <trkpt lat="48.95146" lon="2.04543">
        <ele>23.9</ele>
        <time>2022-04-19T09:38:28Z</time>
      </trkpt>
      <trkpt lat="48.95145" lon="2.04535">
        <ele>21.1</ele>
        <time>2022-04-19T09:38:35Z</time>
      </trkpt>
      <trkpt lat="48.95146" lon="2.04529">
        <ele>19.6</ele>
        <time>2022-04-19T09:38:41Z</time>
      </trkpt>
      <trkpt lat="48.95146" lon="2.04521">
        <ele>19.7</ele>
        <time>2022-04-19T09:38:49Z</time>
      </trkpt>
      <trkpt lat="48.95142" lon="2.04517">
        <ele>19.4</ele>
        <time>2022-04-19T09:38:56Z</time>
      </trkpt>
      <trkpt lat="48.95137" lon="2.04513">
        <ele>20.3</ele>
        <time>2022-04-19T09:39:00Z</time>
      </trkpt>
      <trkpt lat="48.95131" lon="2.04509">
        <ele>20.7</ele>
        <time>2022-04-19T09:39:04Z</time>
      </trkpt>
      <trkpt lat="48.95126" lon="2.04507">
        <ele>20.6</ele>
        <time>2022-04-19T09:39:07Z</time>
      </trkpt>
      <trkpt lat="48.95121" lon="2.04504">
        <ele>23.8</ele>
        <time>2022-04-19T09:39:11Z</time>
      </trkpt>
      <trkpt lat="48.95116" lon="2.04502">
        <ele>24.3</ele>
        <time>2022-04-19T09:39:15Z</time>
      </trkpt>
      <trkpt lat="48.9511" lon="2.04501">
        <ele>24.8</ele>
        <time>2022-04-19T09:39:18Z</time>
      </trkpt>
      <trkpt lat="48.95105" lon="2.04499">
        <ele>23.5</ele>
        <time>2022-04-19T09:39:22Z</time>
      </trkpt>
      <trkpt lat="48.951" lon="2.04499">
        <ele>24.3</ele>
        <time>2022-04-19T09:39:26Z</time>
      </trkpt>
      <trkpt lat="48.95096" lon="2.04498">
        <ele>24.1</ele>
        <time>2022-04-19T09:39:29Z</time>
      </trkpt>
      <trkpt lat="48.95091" lon="2.04497">
        <ele>25.4</ele>
        <time>2022-04-19T09:39:33Z</time>
      </trkpt>
      <trkpt lat="48.95086" lon="2.04497">
        <ele>25.7</ele>
        <time>2022-04-19T09:39:37Z</time>
      </trkpt>
      <trkpt lat="48.95082" lon="2.04496">
        <ele>24.1</ele>
        <time>2022-04-19T09:39:40Z</time>
      </trkpt>
      <trkpt lat="48.95077" lon="2.04495">
        <ele>22.7</ele>
        <time>2022-04-19T09:39:44Z</time>
      </trkpt>
      <trkpt lat="48.95071" lon="2.04495">
        <ele>22.7</ele>
        <time>2022-04-19T09:39:48Z</time>
      </trkpt>
      <trkpt lat="48.95066" lon="2.04494">
        <ele>21.3</ele>
        <time>2022-04-19T09:39:52Z</time>
      </trkpt>
      <trkpt lat="48.95061" lon="2.04492">
        <ele>21.3</ele>
        <time>2022-04-19T09:39:56Z</time>
      </trkpt>
      <trkpt lat="48.95056" lon="2.04492">
        <ele>19.3</ele>
        <time>2022-04-19T09:40:01Z</time>
      </trkpt>
      <trkpt lat="48.9505" lon="2.04491">
        <ele>17.9</ele>
        <time>2022-04-19T09:40:05Z</time>
      </trkpt>
      <trkpt lat="48.95046" lon="2.0449">
        <ele>19.3</ele>
        <time>2022-04-19T09:40:09Z</time>
      </trkpt>
      <trkpt lat="48.95041" lon="2.04488">
        <ele>19.7</ele>
        <time>2022-04-19T09:40:12Z</time>
      </trkpt>
      <trkpt lat="48.95036" lon="2.04488">
        <ele>19.3</ele>
        <time>2022-04-19T09:40:16Z</time>
      </trkpt>
      <trkpt lat="48.9503" lon="2.04486">
        <ele>18.5</ele>
        <time>2022-04-19T09:40:20Z</time>
      </trkpt>
      <trkpt lat="48.95025" lon="2.04485">
        <ele>19.9</ele>
        <time>2022-04-19T09:40:24Z</time>
      </trkpt>
      <trkpt lat="48.95019" lon="2.04484">
        <ele>20.6</ele>
        <time>2022-04-19T09:40:27Z</time>
      </trkpt>
      <trkpt lat="48.95014" lon="2.04483">
        <ele>20.6</ele>
        <time>2022-04-19T09:40:31Z</time>
      </trkpt>
      <trkpt lat="48.95009" lon="2.04482">
        <ele>22.9</ele>
        <time>2022-04-19T09:40:35Z</time>
      </trkpt>
      <trkpt lat="48.95004" lon="2.0448">
        <ele>24.8</ele>
        <time>2022-04-19T09:40:39Z</time>
      </trkpt>
      <trkpt lat="48.95" lon="2.04479">
        <ele>24.3</ele>
        <time>2022-04-19T09:40:43Z</time>
      </trkpt>
      <trkpt lat="48.94995" lon="2.04479">
        <ele>22.6</ele>
        <time>2022-04-19T09:40:47Z</time>
      </trkpt>
      <trkpt lat="48.94989" lon="2.04479">
        <ele>20.2</ele>
        <time>2022-04-19T09:40:52Z</time>
      </trkpt>
      <trkpt lat="48.94983" lon="2.04481">
        <ele>20.1</ele>
        <time>2022-04-19T09:40:56Z</time>
      </trkpt>
      <trkpt lat="48.94979" lon="2.0448">
        <ele>17.2</ele>
        <time>2022-04-19T09:41:00Z</time>
      </trkpt>
      <trkpt lat="48.94974" lon="2.04479">
        <ele>17.4</ele>
        <time>2022-04-19T09:41:03Z</time>
      </trkpt>
      <trkpt lat="48.94969" lon="2.04477">
        <ele>18.9</ele>
        <time>2022-04-19T09:41:08Z</time>
      </trkpt>
      <trkpt lat="48.94964" lon="2.04475">
        <ele>19.9</ele>
        <time>2022-04-19T09:41:12Z</time>
      </trkpt>
      <trkpt lat="48.94959" lon="2.04473">
        <ele>21.9</ele>
        <time>2022-04-19T09:41:15Z</time>
      </trkpt>
      <trkpt lat="48.94954" lon="2.04472">
        <ele>21.9</ele>
        <time>2022-04-19T09:41:19Z</time>
      </trkpt>
      <trkpt lat="48.94948" lon="2.04472">
        <ele>23.5</ele>
        <time>2022-04-19T09:41:24Z</time>
      </trkpt>
      <trkpt lat="48.94943" lon="2.04472">
        <ele>22.9</ele>
        <time>2022-04-19T09:41:28Z</time>
      </trkpt>
      <trkpt lat="48.94938" lon="2.04471">
        <ele>23.1</ele>
        <time>2022-04-19T09:41:32Z</time>
      </trkpt>
      <trkpt lat="48.94933" lon="2.04469">
        <ele>22.9</ele>
        <time>2022-04-19T09:41:36Z</time>
      </trkpt>
      <trkpt lat="48.94929" lon="2.04467">
        <ele>21.8</ele>
        <time>2022-04-19T09:41:40Z</time>
      </trkpt>
      <trkpt lat="48.94924" lon="2.04468">
        <ele>21</ele>
        <time>2022-04-19T09:41:44Z</time>
      </trkpt>
      <trkpt lat="48.94922" lon="2.04474">
        <ele>21.5</ele>
        <time>2022-04-19T09:41:47Z</time>
      </trkpt>
      <trkpt lat="48.9492" lon="2.04483">
        <ele>20.9</ele>
        <time>2022-04-19T09:41:51Z</time>
      </trkpt>
      <trkpt lat="48.94919" lon="2.0449">
        <ele>21.8</ele>
        <time>2022-04-19T09:41:55Z</time>
      </trkpt>
      <trkpt lat="48.94914" lon="2.04495">
        <ele>19.1</ele>
        <time>2022-04-19T09:42:00Z</time>
      </trkpt>
      <trkpt lat="48.94908" lon="2.04494">
        <ele>18.9</ele>
        <time>2022-04-19T09:42:04Z</time>
      </trkpt>
      <trkpt lat="48.94904" lon="2.04491">
        <ele>20.1</ele>
        <time>2022-04-19T09:42:08Z</time>
      </trkpt>
      <trkpt lat="48.94899" lon="2.04488">
        <ele>18.2</ele>
        <time>2022-04-19T09:42:12Z</time>
      </trkpt>
      <trkpt lat="48.94894" lon="2.04485">
        <ele>17.6</ele>
        <time>2022-04-19T09:42:16Z</time>
      </trkpt>
      <trkpt lat="48.94888" lon="2.04483">
        <ele>18.5</ele>
        <time>2022-04-19T09:42:20Z</time>
      </trkpt>
      <trkpt lat="48.94884" lon="2.04482">
        <ele>17.3</ele>
        <time>2022-04-19T09:42:24Z</time>
      </trkpt>
      <trkpt lat="48.94879" lon="2.04481">
        <ele>17.9</ele>
        <time>2022-04-19T09:42:28Z</time>
      </trkpt>
      <trkpt lat="48.94873" lon="2.04479">
        <ele>18.2</ele>
        <time>2022-04-19T09:42:32Z</time>
      </trkpt>
      <trkpt lat="48.94869" lon="2.04478">
        <ele>17.7</ele>
        <time>2022-04-19T09:42:36Z</time>
      </trkpt>
      <trkpt lat="48.94863" lon="2.04476">
        <ele>15.5</ele>
        <time>2022-04-19T09:42:41Z</time>
      </trkpt>
      <trkpt lat="48.94858" lon="2.04474">
        <ele>16</ele>
        <time>2022-04-19T09:42:45Z</time>
      </trkpt>
      <trkpt lat="48.94853" lon="2.04474">
        <ele>17</ele>
        <time>2022-04-19T09:42:49Z</time>
      </trkpt>
      <trkpt lat="48.94847" lon="2.04473">
        <ele>16.6</ele>
        <time>2022-04-19T09:42:53Z</time>
      </trkpt>
      <trkpt lat="48.94843" lon="2.04471">
        <ele>14.8</ele>
        <time>2022-04-19T09:42:56Z</time>
      </trkpt>
      <trkpt lat="48.94838" lon="2.04469">
        <ele>15.3</ele>
        <time>2022-04-19T09:43:00Z</time>
      </trkpt>
      <trkpt lat="48.94833" lon="2.04468">
        <ele>15</ele>
        <time>2022-04-19T09:43:04Z</time>
      </trkpt>
      <trkpt lat="48.94828" lon="2.04467">
        <ele>14.9</ele>
        <time>2022-04-19T09:43:08Z</time>
      </trkpt>
      <trkpt lat="48.94823" lon="2.04466">
        <ele>14.9</ele>
        <time>2022-04-19T09:43:11Z</time>
      </trkpt>
      <trkpt lat="48.94818" lon="2.04465">
        <ele>15.1</ele>
        <time>2022-04-19T09:43:15Z</time>
      </trkpt>
      <trkpt lat="48.94813" lon="2.04464">
        <ele>15.7</ele>
        <time>2022-04-19T09:43:20Z</time>
      </trkpt>
      <trkpt lat="48.94808" lon="2.04462">
        <ele>16.4</ele>
        <time>2022-04-19T09:43:23Z</time>
      </trkpt>
      <trkpt lat="48.94804" lon="2.04459">
        <ele>15.5</ele>
        <time>2022-04-19T09:43:27Z</time>
      </trkpt>
      <trkpt lat="48.94799" lon="2.04458">
        <ele>15.7</ele>
        <time>2022-04-19T09:43:31Z</time>
      </trkpt>
      <trkpt lat="48.94794" lon="2.04456">
        <ele>16</ele>
        <time>2022-04-19T09:43:34Z</time>
      </trkpt>
      <trkpt lat="48.9479" lon="2.04453">
        <ele>15.3</ele>
        <time>2022-04-19T09:43:38Z</time>
      </trkpt>
      <trkpt lat="48.94785" lon="2.04451">
        <ele>15.2</ele>
        <time>2022-04-19T09:43:42Z</time>
      </trkpt>
      <trkpt lat="48.9478" lon="2.0445">
        <ele>15.4</ele>
        <time>2022-04-19T09:43:46Z</time>
      </trkpt>
      <trkpt lat="48.94776" lon="2.04448">
        <ele>15.6</ele>
        <time>2022-04-19T09:43:50Z</time>
      </trkpt>
      <trkpt lat="48.94771" lon="2.04445">
        <ele>13.9</ele>
        <time>2022-04-19T09:43:54Z</time>
      </trkpt>
      <trkpt lat="48.94766" lon="2.04442">
        <ele>15.6</ele>
        <time>2022-04-19T09:43:59Z</time>
      </trkpt>
      <trkpt lat="48.94762" lon="2.04436">
        <ele>16.4</ele>
        <time>2022-04-19T09:44:04Z</time>
      </trkpt>
      <trkpt lat="48.94758" lon="2.04431">
        <ele>16.6</ele>
        <time>2022-04-19T09:44:08Z</time>
      </trkpt>
      <trkpt lat="48.94753" lon="2.04427">
        <ele>16.2</ele>
        <time>2022-04-19T09:44:13Z</time>
      </trkpt>
      <trkpt lat="48.94748" lon="2.04425">
        <ele>15.5</ele>
        <time>2022-04-19T09:44:17Z</time>
      </trkpt>
      <trkpt lat="48.94742" lon="2.04425">
        <ele>14.7</ele>
        <time>2022-04-19T09:44:22Z</time>
      </trkpt>
      <trkpt lat="48.94737" lon="2.04425">
        <ele>14.2</ele>
        <time>2022-04-19T09:44:27Z</time>
      </trkpt>
      <trkpt lat="48.94733" lon="2.04418">
        <ele>13.8</ele>
        <time>2022-04-19T09:44:31Z</time>
      </trkpt>
      <trkpt lat="48.94729" lon="2.04415">
        <ele>14.5</ele>
        <time>2022-04-19T09:44:35Z</time>
      </trkpt>
      <trkpt lat="48.94724" lon="2.04413">
        <ele>14.7</ele>
        <time>2022-04-19T09:44:39Z</time>
      </trkpt>
      <trkpt lat="48.9472" lon="2.04411">
        <ele>14.4</ele>
        <time>2022-04-19T09:44:43Z</time>
      </trkpt>
      <trkpt lat="48.94714" lon="2.04408">
        <ele>14.1</ele>
        <time>2022-04-19T09:44:48Z</time>
      </trkpt>
      <trkpt lat="48.94709" lon="2.04406">
        <ele>13.2</ele>
        <time>2022-04-19T09:44:52Z</time>
      </trkpt>
      <trkpt lat="48.94704" lon="2.04405">
        <ele>11.3</ele>
        <time>2022-04-19T09:44:56Z</time>
      </trkpt>
      <trkpt lat="48.947" lon="2.04402">
        <ele>11.1</ele>
        <time>2022-04-19T09:45:00Z</time>
      </trkpt>
      <trkpt lat="48.94695" lon="2.04401">
        <ele>9.9</ele>
        <time>2022-04-19T09:45:04Z</time>
      </trkpt>
      <trkpt lat="48.9469" lon="2.04399">
        <ele>8.9</ele>
        <time>2022-04-19T09:45:08Z</time>
      </trkpt>
      <trkpt lat="48.94686" lon="2.04396">
        <ele>10</ele>
        <time>2022-04-19T09:45:11Z</time>
      </trkpt>
      <trkpt lat="48.94681" lon="2.04392">
        <ele>9.6</ele>
        <time>2022-04-19T09:45:15Z</time>
      </trkpt>
      <trkpt lat="48.94676" lon="2.0439">
        <ele>10.7</ele>
        <time>2022-04-19T09:45:19Z</time>
      </trkpt>
      <trkpt lat="48.94672" lon="2.04389">
        <ele>10.6</ele>
        <time>2022-04-19T09:45:23Z</time>
      </trkpt>
      <trkpt lat="48.94667" lon="2.04387">
        <ele>11.1</ele>
        <time>2022-04-19T09:45:27Z</time>
      </trkpt>
      <trkpt lat="48.94662" lon="2.04385">
        <ele>10.8</ele>
        <time>2022-04-19T09:45:30Z</time>
      </trkpt>
      <trkpt lat="48.94657" lon="2.04382">
        <ele>12.7</ele>
        <time>2022-04-19T09:45:34Z</time>
      </trkpt>
      <trkpt lat="48.94652" lon="2.04378">
        <ele>11.9</ele>
        <time>2022-04-19T09:45:38Z</time>
      </trkpt>
      <trkpt lat="48.94647" lon="2.04375">
        <ele>12.3</ele>
        <time>2022-04-19T09:45:42Z</time>
      </trkpt>
      <trkpt lat="48.94643" lon="2.04373">
        <ele>13.2</ele>
        <time>2022-04-19T09:45:46Z</time>
      </trkpt>
      <trkpt lat="48.94638" lon="2.04369">
        <ele>14.8</ele>
        <time>2022-04-19T09:45:50Z</time>
      </trkpt>
      <trkpt lat="48.94633" lon="2.04367">
        <ele>14.1</ele>
        <time>2022-04-19T09:45:54Z</time>
      </trkpt>
      <trkpt lat="48.94627" lon="2.04364">
        <ele>17.8</ele>
        <time>2022-04-19T09:45:59Z</time>
      </trkpt>
      <trkpt lat="48.94622" lon="2.04362">
        <ele>16.3</ele>
        <time>2022-04-19T09:46:03Z</time>
      </trkpt>
      <trkpt lat="48.94617" lon="2.04359">
        <ele>18.2</ele>
        <time>2022-04-19T09:46:06Z</time>
      </trkpt>
      <trkpt lat="48.94612" lon="2.04357">
        <ele>17.6</ele>
        <time>2022-04-19T09:46:10Z</time>
      </trkpt>
      <trkpt lat="48.94608" lon="2.04354">
        <ele>19</ele>
        <time>2022-04-19T09:46:14Z</time>
      </trkpt>
      <trkpt lat="48.94603" lon="2.04352">
        <ele>18.9</ele>
        <time>2022-04-19T09:46:18Z</time>
      </trkpt>
      <trkpt lat="48.94598" lon="2.04351">
        <ele>20.6</ele>
        <time>2022-04-19T09:46:22Z</time>
      </trkpt>
      <trkpt lat="48.94593" lon="2.04349">
        <ele>19.9</ele>
        <time>2022-04-19T09:46:26Z</time>
      </trkpt>
      <trkpt lat="48.94588" lon="2.04347">
        <ele>18.1</ele>
        <time>2022-04-19T09:46:30Z</time>
      </trkpt>
      <trkpt lat="48.94582" lon="2.04345">
        <ele>17.2</ele>
        <time>2022-04-19T09:46:34Z</time>
      </trkpt>
      <trkpt lat="48.94577" lon="2.04343">
        <ele>14.9</ele>
        <time>2022-04-19T09:46:38Z</time>
      </trkpt>
      <trkpt lat="48.94572" lon="2.04341">
        <ele>15.1</ele>
        <time>2022-04-19T09:46:42Z</time>
      </trkpt>
      <trkpt lat="48.94568" lon="2.04339">
        <ele>15.6</ele>
        <time>2022-04-19T09:46:46Z</time>
      </trkpt>
      <trkpt lat="48.94562" lon="2.04337">
        <ele>16.9</ele>
        <time>2022-04-19T09:46:50Z</time>
      </trkpt>
      <trkpt lat="48.94558" lon="2.04335">
        <ele>13.4</ele>
        <time>2022-04-19T09:46:54Z</time>
      </trkpt>
      <trkpt lat="48.94552" lon="2.04331">
        <ele>12.9</ele>
        <time>2022-04-19T09:46:59Z</time>
      </trkpt>
      <trkpt lat="48.94547" lon="2.04328">
        <ele>14</ele>
        <time>2022-04-19T09:47:03Z</time>
      </trkpt>
      <trkpt lat="48.94542" lon="2.04326">
        <ele>15</ele>
        <time>2022-04-19T09:47:07Z</time>
      </trkpt>
      <trkpt lat="48.94537" lon="2.04323">
        <ele>15.2</ele>
        <time>2022-04-19T09:47:10Z</time>
      </trkpt>
      <trkpt lat="48.94532" lon="2.04321">
        <ele>14</ele>
        <time>2022-04-19T09:47:14Z</time>
      </trkpt>
      <trkpt lat="48.94528" lon="2.0432">
        <ele>12.5</ele>
        <time>2022-04-19T09:47:18Z</time>
      </trkpt>
      <trkpt lat="48.94523" lon="2.04319">
        <ele>11.9</ele>
        <time>2022-04-19T09:47:22Z</time>
      </trkpt>
      <trkpt lat="48.94518" lon="2.04316">
        <ele>11.8</ele>
        <time>2022-04-19T09:47:26Z</time>
      </trkpt>
      <trkpt lat="48.94513" lon="2.04314">
        <ele>13.2</ele>
        <time>2022-04-19T09:47:30Z</time>
      </trkpt>
      <trkpt lat="48.94508" lon="2.04312">
        <ele>14.2</ele>
        <time>2022-04-19T09:47:34Z</time>
      </trkpt>
      <trkpt lat="48.94503" lon="2.04308">
        <ele>13.5</ele>
        <time>2022-04-19T09:47:38Z</time>
      </trkpt>
      <trkpt lat="48.94499" lon="2.04306">
        <ele>12.6</ele>
        <time>2022-04-19T09:47:42Z</time>
      </trkpt>
      <trkpt lat="48.94493" lon="2.04303">
        <ele>12.1</ele>
        <time>2022-04-19T09:47:46Z</time>
      </trkpt>
      <trkpt lat="48.94488" lon="2.04301">
        <ele>13.3</ele>
        <time>2022-04-19T09:47:51Z</time>
      </trkpt>
      <trkpt lat="48.94483" lon="2.043">
        <ele>14.5</ele>
        <time>2022-04-19T09:47:54Z</time>
      </trkpt>
      <trkpt lat="48.94479" lon="2.04299">
        <ele>12.2</ele>
        <time>2022-04-19T09:47:59Z</time>
      </trkpt>
      <trkpt lat="48.94473" lon="2.04296">
        <ele>15.8</ele>
        <time>2022-04-19T09:48:03Z</time>
      </trkpt>
      <trkpt lat="48.94468" lon="2.04294">
        <ele>16.1</ele>
        <time>2022-04-19T09:48:08Z</time>
      </trkpt>
      <trkpt lat="48.94463" lon="2.04291">
        <ele>15.1</ele>
        <time>2022-04-19T09:48:13Z</time>
      </trkpt>
      <trkpt lat="48.94458" lon="2.04289">
        <ele>15.6</ele>
        <time>2022-04-19T09:48:17Z</time>
      </trkpt>
      <trkpt lat="48.94453" lon="2.04288">
        <ele>16.1</ele>
        <time>2022-04-19T09:48:21Z</time>
      </trkpt>
      <trkpt lat="48.94448" lon="2.04286">
        <ele>17.3</ele>
        <time>2022-04-19T09:48:25Z</time>
      </trkpt>
      <trkpt lat="48.94443" lon="2.04282">
        <ele>20.3</ele>
        <time>2022-04-19T09:48:28Z</time>
      </trkpt>
      <trkpt lat="48.94438" lon="2.04279">
        <ele>17.2</ele>
        <time>2022-04-19T09:48:32Z</time>
      </trkpt>
      <trkpt lat="48.94433" lon="2.04277">
        <ele>15.8</ele>
        <time>2022-04-19T09:48:38Z</time>
      </trkpt>
      <trkpt lat="48.94427" lon="2.04275">
        <ele>14.8</ele>
        <time>2022-04-19T09:48:43Z</time>
      </trkpt>
      <trkpt lat="48.94422" lon="2.04273">
        <ele>16.3</ele>
        <time>2022-04-19T09:48:47Z</time>
      </trkpt>
      <trkpt lat="48.94417" lon="2.04271">
        <ele>16.8</ele>
        <time>2022-04-19T09:48:51Z</time>
      </trkpt>
      <trkpt lat="48.94412" lon="2.04268">
        <ele>17.5</ele>
        <time>2022-04-19T09:48:55Z</time>
      </trkpt>
      <trkpt lat="48.94406" lon="2.04265">
        <ele>19.1</ele>
        <time>2022-04-19T09:48:59Z</time>
      </trkpt>
      <trkpt lat="48.94401" lon="2.04263">
        <ele>20.5</ele>
        <time>2022-04-19T09:49:03Z</time>
      </trkpt>
      <trkpt lat="48.94396" lon="2.04261">
        <ele>21</ele>
        <time>2022-04-19T09:49:07Z</time>
      </trkpt>
      <trkpt lat="48.94392" lon="2.04258">
        <ele>21.4</ele>
        <time>2022-04-19T09:49:12Z</time>
      </trkpt>
      <trkpt lat="48.94388" lon="2.04255">
        <ele>19.3</ele>
        <time>2022-04-19T09:49:16Z</time>
      </trkpt>
      <trkpt lat="48.94384" lon="2.04252">
        <ele>20.3</ele>
        <time>2022-04-19T09:49:20Z</time>
      </trkpt>
      <trkpt lat="48.94379" lon="2.04249">
        <ele>21.4</ele>
        <time>2022-04-19T09:49:24Z</time>
      </trkpt>
      <trkpt lat="48.94373" lon="2.04245">
        <ele>20</ele>
        <time>2022-04-19T09:49:29Z</time>
      </trkpt>
      <trkpt lat="48.94367" lon="2.04243">
        <ele>19</ele>
        <time>2022-04-19T09:49:34Z</time>
      </trkpt>
      <trkpt lat="48.94363" lon="2.04241">
        <ele>14.7</ele>
        <time>2022-04-19T09:49:38Z</time>
      </trkpt>
      <trkpt lat="48.94358" lon="2.04238">
        <ele>15.8</ele>
        <time>2022-04-19T09:49:42Z</time>
      </trkpt>
      <trkpt lat="48.94353" lon="2.04235">
        <ele>17.7</ele>
        <time>2022-04-19T09:49:46Z</time>
      </trkpt>
      <trkpt lat="48.94348" lon="2.04234">
        <ele>17.6</ele>
        <time>2022-04-19T09:49:50Z</time>
      </trkpt>
      <trkpt lat="48.94343" lon="2.04234">
        <ele>17.3</ele>
        <time>2022-04-19T09:49:53Z</time>
      </trkpt>
      <trkpt lat="48.94338" lon="2.04232">
        <ele>17.7</ele>
        <time>2022-04-19T09:49:57Z</time>
      </trkpt>
      <trkpt lat="48.94333" lon="2.0423">
        <ele>14.3</ele>
        <time>2022-04-19T09:50:01Z</time>
      </trkpt>
      <trkpt lat="48.94329" lon="2.04227">
        <ele>13.1</ele>
        <time>2022-04-19T09:50:05Z</time>
      </trkpt>
      <trkpt lat="48.94323" lon="2.04223">
        <ele>12.5</ele>
        <time>2022-04-19T09:50:09Z</time>
      </trkpt>
      <trkpt lat="48.94319" lon="2.04221">
        <ele>14.4</ele>
        <time>2022-04-19T09:50:13Z</time>
      </trkpt>
      <trkpt lat="48.94314" lon="2.04216">
        <ele>14.6</ele>
        <time>2022-04-19T09:50:18Z</time>
      </trkpt>
      <trkpt lat="48.94309" lon="2.04214">
        <ele>14.6</ele>
        <time>2022-04-19T09:50:22Z</time>
      </trkpt>
      <trkpt lat="48.94304" lon="2.04213">
        <ele>15.1</ele>
        <time>2022-04-19T09:50:26Z</time>
      </trkpt>
      <trkpt lat="48.94299" lon="2.04211">
        <ele>15.2</ele>
        <time>2022-04-19T09:50:30Z</time>
      </trkpt>
      <trkpt lat="48.94294" lon="2.04209">
        <ele>15.2</ele>
        <time>2022-04-19T09:50:34Z</time>
      </trkpt>
      <trkpt lat="48.94288" lon="2.04207">
        <ele>13.4</ele>
        <time>2022-04-19T09:50:39Z</time>
      </trkpt>
      <trkpt lat="48.94283" lon="2.04205">
        <ele>14.6</ele>
        <time>2022-04-19T09:50:42Z</time>
      </trkpt>
      <trkpt lat="48.94279" lon="2.04204">
        <ele>15.1</ele>
        <time>2022-04-19T09:50:46Z</time>
      </trkpt>
      <trkpt lat="48.94272" lon="2.04204">
        <ele>15.9</ele>
        <time>2022-04-19T09:50:51Z</time>
      </trkpt>
      <trkpt lat="48.94268" lon="2.04203">
        <ele>18.4</ele>
        <time>2022-04-19T09:50:55Z</time>
      </trkpt>
      <trkpt lat="48.94262" lon="2.04202">
        <ele>20.8</ele>
        <time>2022-04-19T09:50:59Z</time>
      </trkpt>
      <trkpt lat="48.94257" lon="2.04198">
        <ele>20.1</ele>
        <time>2022-04-19T09:51:04Z</time>
      </trkpt>
      <trkpt lat="48.94252" lon="2.04193">
        <ele>18.3</ele>
        <time>2022-04-19T09:51:09Z</time>
      </trkpt>
      <trkpt lat="48.94247" lon="2.0419">
        <ele>17.6</ele>
        <time>2022-04-19T09:51:13Z</time>
      </trkpt>
      <trkpt lat="48.94243" lon="2.04189">
        <ele>18.5</ele>
        <time>2022-04-19T09:51:17Z</time>
      </trkpt>
      <trkpt lat="48.94238" lon="2.04187">
        <ele>18.5</ele>
        <time>2022-04-19T09:51:21Z</time>
      </trkpt>
      <trkpt lat="48.94232" lon="2.04186">
        <ele>17</ele>
        <time>2022-04-19T09:51:25Z</time>
      </trkpt>
      <trkpt lat="48.94228" lon="2.04183">
        <ele>15.4</ele>
        <time>2022-04-19T09:51:29Z</time>
      </trkpt>
      <trkpt lat="48.94223" lon="2.04181">
        <ele>13.6</ele>
        <time>2022-04-19T09:51:33Z</time>
      </trkpt>
      <trkpt lat="48.94218" lon="2.04179">
        <ele>14.7</ele>
        <time>2022-04-19T09:51:37Z</time>
      </trkpt>
      <trkpt lat="48.94213" lon="2.04177">
        <ele>13.8</ele>
        <time>2022-04-19T09:51:41Z</time>
      </trkpt>
      <trkpt lat="48.94208" lon="2.04174">
        <ele>14.4</ele>
        <time>2022-04-19T09:51:45Z</time>
      </trkpt>
      <trkpt lat="48.94204" lon="2.04172">
        <ele>13.9</ele>
        <time>2022-04-19T09:51:48Z</time>
      </trkpt>
      <trkpt lat="48.94199" lon="2.04168">
        <ele>13.9</ele>
        <time>2022-04-19T09:51:52Z</time>
      </trkpt>
      <trkpt lat="48.94195" lon="2.04167">
        <ele>16.4</ele>
        <time>2022-04-19T09:51:56Z</time>
      </trkpt>
      <trkpt lat="48.9419" lon="2.04165">
        <ele>17.6</ele>
        <time>2022-04-19T09:52:00Z</time>
      </trkpt>
      <trkpt lat="48.94186" lon="2.04162">
        <ele>17.1</ele>
        <time>2022-04-19T09:52:05Z</time>
      </trkpt>
      <trkpt lat="48.94181" lon="2.04158">
        <ele>15.2</ele>
        <time>2022-04-19T09:52:08Z</time>
      </trkpt>
      <trkpt lat="48.94176" lon="2.04155">
        <ele>17.3</ele>
        <time>2022-04-19T09:52:13Z</time>
      </trkpt>
      <trkpt lat="48.94171" lon="2.04153">
        <ele>17.4</ele>
        <time>2022-04-19T09:52:17Z</time>
      </trkpt>
      <trkpt lat="48.94166" lon="2.04152">
        <ele>15.6</ele>
        <time>2022-04-19T09:52:22Z</time>
      </trkpt>
      <trkpt lat="48.94161" lon="2.0415">
        <ele>17.1</ele>
        <time>2022-04-19T09:52:26Z</time>
      </trkpt>
      <trkpt lat="48.94157" lon="2.04144">
        <ele>18</ele>
        <time>2022-04-19T09:52:31Z</time>
      </trkpt>
      <trkpt lat="48.94152" lon="2.0414">
        <ele>19.4</ele>
        <time>2022-04-19T09:52:36Z</time>
      </trkpt>
      <trkpt lat="48.94148" lon="2.04136">
        <ele>22.1</ele>
        <time>2022-04-19T09:52:40Z</time>
      </trkpt>
      <trkpt lat="48.94144" lon="2.04132">
        <ele>21.4</ele>
        <time>2022-04-19T09:52:44Z</time>
      </trkpt>
      <trkpt lat="48.94139" lon="2.04129">
        <ele>22.2</ele>
        <time>2022-04-19T09:52:48Z</time>
      </trkpt>
      <trkpt lat="48.94135" lon="2.04124">
        <ele>22</ele>
        <time>2022-04-19T09:52:52Z</time>
      </trkpt>
      <trkpt lat="48.9413" lon="2.04121">
        <ele>20.3</ele>
        <time>2022-04-19T09:52:56Z</time>
      </trkpt>
      <trkpt lat="48.94126" lon="2.04118">
        <ele>19</ele>
        <time>2022-04-19T09:53:00Z</time>
      </trkpt>
      <trkpt lat="48.9412" lon="2.04117">
        <ele>17.1</ele>
        <time>2022-04-19T09:53:04Z</time>
      </trkpt>
      <trkpt lat="48.94116" lon="2.04114">
        <ele>17.1</ele>
        <time>2022-04-19T09:53:08Z</time>
      </trkpt>
      <trkpt lat="48.94111" lon="2.0411">
        <ele>17.8</ele>
        <time>2022-04-19T09:53:12Z</time>
      </trkpt>
      <trkpt lat="48.94106" lon="2.04107">
        <ele>18.9</ele>
        <time>2022-04-19T09:53:16Z</time>
      </trkpt>
      <trkpt lat="48.94101" lon="2.04104">
        <ele>17.5</ele>
        <time>2022-04-19T09:53:20Z</time>
      </trkpt>
      <trkpt lat="48.94096" lon="2.04103">
        <ele>15.9</ele>
        <time>2022-04-19T09:53:24Z</time>
      </trkpt>
      <trkpt lat="48.94092" lon="2.041">
        <ele>16</ele>
        <time>2022-04-19T09:53:28Z</time>
      </trkpt>
      <trkpt lat="48.94087" lon="2.04097">
        <ele>15.9</ele>
        <time>2022-04-19T09:53:32Z</time>
      </trkpt>
      <trkpt lat="48.94083" lon="2.04094">
        <ele>14.5</ele>
        <time>2022-04-19T09:53:36Z</time>
      </trkpt>
      <trkpt lat="48.94078" lon="2.04093">
        <ele>15</ele>
        <time>2022-04-19T09:53:40Z</time>
      </trkpt>
      <trkpt lat="48.94074" lon="2.04089">
        <ele>19.1</ele>
        <time>2022-04-19T09:53:44Z</time>
      </trkpt>
      <trkpt lat="48.9407" lon="2.04085">
        <ele>21</ele>
        <time>2022-04-19T09:53:47Z</time>
      </trkpt>
      <trkpt lat="48.94065" lon="2.04081">
        <ele>20</ele>
        <time>2022-04-19T09:53:51Z</time>
      </trkpt>
      <trkpt lat="48.9406" lon="2.04079">
        <ele>20.7</ele>
        <time>2022-04-19T09:53:55Z</time>
      </trkpt>
      <trkpt lat="48.94055" lon="2.04076">
        <ele>19.1</ele>
        <time>2022-04-19T09:54:00Z</time>
      </trkpt>
      <trkpt lat="48.94051" lon="2.04072">
        <ele>18.5</ele>
        <time>2022-04-19T09:54:04Z</time>
      </trkpt>
      <trkpt lat="48.94046" lon="2.04069">
        <ele>16.7</ele>
        <time>2022-04-19T09:54:08Z</time>
      </trkpt>
      <trkpt lat="48.94042" lon="2.04066">
        <ele>17.2</ele>
        <time>2022-04-19T09:54:12Z</time>
      </trkpt>
      <trkpt lat="48.94037" lon="2.04063">
        <ele>16.3</ele>
        <time>2022-04-19T09:54:16Z</time>
      </trkpt>
      <trkpt lat="48.94033" lon="2.04061">
        <ele>17.8</ele>
        <time>2022-04-19T09:54:20Z</time>
      </trkpt>
      <trkpt lat="48.94029" lon="2.04057">
        <ele>17.8</ele>
        <time>2022-04-19T09:54:24Z</time>
      </trkpt>
      <trkpt lat="48.94024" lon="2.04053">
        <ele>17.3</ele>
        <time>2022-04-19T09:54:28Z</time>
      </trkpt>
      <trkpt lat="48.9402" lon="2.04049">
        <ele>18.2</ele>
        <time>2022-04-19T09:54:32Z</time>
      </trkpt>
      <trkpt lat="48.94016" lon="2.04045">
        <ele>19.8</ele>
        <time>2022-04-19T09:54:36Z</time>
      </trkpt>
      <trkpt lat="48.94012" lon="2.0404">
        <ele>22.4</ele>
        <time>2022-04-19T09:54:40Z</time>
      </trkpt>
      <trkpt lat="48.94008" lon="2.04037">
        <ele>22.1</ele>
        <time>2022-04-19T09:54:44Z</time>
      </trkpt>
      <trkpt lat="48.94003" lon="2.04033">
        <ele>24.4</ele>
        <time>2022-04-19T09:54:48Z</time>
      </trkpt>
      <trkpt lat="48.93999" lon="2.04027">
        <ele>25.7</ele>
        <time>2022-04-19T09:54:53Z</time>
      </trkpt>
      <trkpt lat="48.93995" lon="2.04022">
        <ele>26.6</ele>
        <time>2022-04-19T09:54:57Z</time>
      </trkpt>
      <trkpt lat="48.93991" lon="2.0402">
        <ele>29.1</ele>
        <time>2022-04-19T09:55:00Z</time>
      </trkpt>
      <trkpt lat="48.93986" lon="2.04017">
        <ele>32.2</ele>
        <time>2022-04-19T09:55:05Z</time>
      </trkpt>
      <trkpt lat="48.93981" lon="2.04014">
        <ele>29.1</ele>
        <time>2022-04-19T09:55:09Z</time>
      </trkpt>
      <trkpt lat="48.93977" lon="2.04009">
        <ele>27.3</ele>
        <time>2022-04-19T09:55:13Z</time>
      </trkpt>
      <trkpt lat="48.93972" lon="2.04005">
        <ele>28.3</ele>
        <time>2022-04-19T09:55:17Z</time>
      </trkpt>
      <trkpt lat="48.93968" lon="2.04002">
        <ele>28.9</ele>
        <time>2022-04-19T09:55:21Z</time>
      </trkpt>
      <trkpt lat="48.93963" lon="2.03999">
        <ele>27.4</ele>
        <time>2022-04-19T09:55:25Z</time>
      </trkpt>
      <trkpt lat="48.93959" lon="2.03995">
        <ele>29.2</ele>
        <time>2022-04-19T09:55:29Z</time>
      </trkpt>
      <trkpt lat="48.93955" lon="2.0399">
        <ele>30.4</ele>
        <time>2022-04-19T09:55:33Z</time>
      </trkpt>
      <trkpt lat="48.9395" lon="2.03987">
        <ele>30.7</ele>
        <time>2022-04-19T09:55:37Z</time>
      </trkpt>
      <trkpt lat="48.93946" lon="2.03984">
        <ele>30.8</ele>
        <time>2022-04-19T09:55:41Z</time>
      </trkpt>
      <trkpt lat="48.93942" lon="2.0398">
        <ele>29.3</ele>
        <time>2022-04-19T09:55:45Z</time>
      </trkpt>
      <trkpt lat="48.93937" lon="2.03977">
        <ele>25.9</ele>
        <time>2022-04-19T09:55:50Z</time>
      </trkpt>
      <trkpt lat="48.93932" lon="2.03974">
        <ele>28.4</ele>
        <time>2022-04-19T09:55:55Z</time>
      </trkpt>
      <trkpt lat="48.93928" lon="2.03971">
        <ele>30.5</ele>
        <time>2022-04-19T09:55:59Z</time>
      </trkpt>
      <trkpt lat="48.93924" lon="2.03967">
        <ele>32.1</ele>
        <time>2022-04-19T09:56:03Z</time>
      </trkpt>
      <trkpt lat="48.93919" lon="2.03963">
        <ele>30.8</ele>
        <time>2022-04-19T09:56:07Z</time>
      </trkpt>
      <trkpt lat="48.93915" lon="2.03961">
        <ele>29.9</ele>
        <time>2022-04-19T09:56:11Z</time>
      </trkpt>
      <trkpt lat="48.93909" lon="2.03958">
        <ele>29.9</ele>
        <time>2022-04-19T09:56:15Z</time>
      </trkpt>
      <trkpt lat="48.93904" lon="2.03955">
        <ele>26.7</ele>
        <time>2022-04-19T09:56:20Z</time>
      </trkpt>
      <trkpt lat="48.93899" lon="2.03952">
        <ele>22.6</ele>
        <time>2022-04-19T09:56:25Z</time>
      </trkpt>
      <trkpt lat="48.93895" lon="2.0395">
        <ele>18.5</ele>
        <time>2022-04-19T09:56:29Z</time>
      </trkpt>
      <trkpt lat="48.9389" lon="2.03945">
        <ele>18.2</ele>
        <time>2022-04-19T09:56:34Z</time>
      </trkpt>
      <trkpt lat="48.93886" lon="2.03942">
        <ele>16.8</ele>
        <time>2022-04-19T09:56:38Z</time>
      </trkpt>
      <trkpt lat="48.9388" lon="2.03939">
        <ele>15.7</ele>
        <time>2022-04-19T09:56:43Z</time>
      </trkpt>
      <trkpt lat="48.93876" lon="2.03936">
        <ele>15</ele>
        <time>2022-04-19T09:56:47Z</time>
      </trkpt>
      <trkpt lat="48.9387" lon="2.03932">
        <ele>14.5</ele>
        <time>2022-04-19T09:56:52Z</time>
      </trkpt>
      <trkpt lat="48.93866" lon="2.03928">
        <ele>14.7</ele>
        <time>2022-04-19T09:56:55Z</time>
      </trkpt>
      <trkpt lat="48.93862" lon="2.03924">
        <ele>13.9</ele>
        <time>2022-04-19T09:56:59Z</time>
      </trkpt>
      <trkpt lat="48.93857" lon="2.0392">
        <ele>14</ele>
        <time>2022-04-19T09:57:03Z</time>
      </trkpt>
      <trkpt lat="48.93853" lon="2.03914">
        <ele>13.2</ele>
        <time>2022-04-19T09:57:08Z</time>
      </trkpt>
      <trkpt lat="48.93849" lon="2.03909">
        <ele>15.5</ele>
        <time>2022-04-19T09:57:12Z</time>
      </trkpt>
      <trkpt lat="48.93844" lon="2.03906">
        <ele>16.2</ele>
        <time>2022-04-19T09:57:16Z</time>
      </trkpt>
      <trkpt lat="48.93839" lon="2.03903">
        <ele>15.2</ele>
        <time>2022-04-19T09:57:21Z</time>
      </trkpt>
      <trkpt lat="48.93834" lon="2.039">
        <ele>14.6</ele>
        <time>2022-04-19T09:57:25Z</time>
      </trkpt>
      <trkpt lat="48.9383" lon="2.03897">
        <ele>14.3</ele>
        <time>2022-04-19T09:57:29Z</time>
      </trkpt>
      <trkpt lat="48.93825" lon="2.03895">
        <ele>13.7</ele>
        <time>2022-04-19T09:57:32Z</time>
      </trkpt>
      <trkpt lat="48.93821" lon="2.03892">
        <ele>14.2</ele>
        <time>2022-04-19T09:57:36Z</time>
      </trkpt>
      <trkpt lat="48.93816" lon="2.03889">
        <ele>14.5</ele>
        <time>2022-04-19T09:57:40Z</time>
      </trkpt>
      <trkpt lat="48.93812" lon="2.03885">
        <ele>14.9</ele>
        <time>2022-04-19T09:57:44Z</time>
      </trkpt>
      <trkpt lat="48.93808" lon="2.03882">
        <ele>15.7</ele>
        <time>2022-04-19T09:57:49Z</time>
      </trkpt>
      <trkpt lat="48.93803" lon="2.03879">
        <ele>14</ele>
        <time>2022-04-19T09:57:53Z</time>
      </trkpt>
      <trkpt lat="48.93799" lon="2.03875">
        <ele>13.8</ele>
        <time>2022-04-19T09:57:57Z</time>
      </trkpt>
      <trkpt lat="48.93795" lon="2.0387">
        <ele>13.7</ele>
        <time>2022-04-19T09:58:01Z</time>
      </trkpt>
      <trkpt lat="48.9379" lon="2.03867">
        <ele>13.4</ele>
        <time>2022-04-19T09:58:05Z</time>
      </trkpt>
      <trkpt lat="48.93786" lon="2.03864">
        <ele>13.4</ele>
        <time>2022-04-19T09:58:09Z</time>
      </trkpt>
      <trkpt lat="48.93781" lon="2.03861">
        <ele>12.2</ele>
        <time>2022-04-19T09:58:13Z</time>
      </trkpt>
      <trkpt lat="48.93776" lon="2.03859">
        <ele>12.3</ele>
        <time>2022-04-19T09:58:17Z</time>
      </trkpt>
      <trkpt lat="48.93772" lon="2.03855">
        <ele>11.7</ele>
        <time>2022-04-19T09:58:21Z</time>
      </trkpt>
      <trkpt lat="48.93768" lon="2.03851">
        <ele>11.6</ele>
        <time>2022-04-19T09:58:25Z</time>
      </trkpt>
      <trkpt lat="48.93764" lon="2.03848">
        <ele>11.5</ele>
        <time>2022-04-19T09:58:29Z</time>
      </trkpt>
      <trkpt lat="48.9376" lon="2.03844">
        <ele>11.8</ele>
        <time>2022-04-19T09:58:33Z</time>
      </trkpt>
      <trkpt lat="48.93755" lon="2.0384">
        <ele>12.5</ele>
        <time>2022-04-19T09:58:37Z</time>
      </trkpt>
      <trkpt lat="48.93752" lon="2.03835">
        <ele>13.8</ele>
        <time>2022-04-19T09:58:41Z</time>
      </trkpt>
      <trkpt lat="48.93747" lon="2.03829">
        <ele>13.8</ele>
        <time>2022-04-19T09:58:46Z</time>
      </trkpt>
      <trkpt lat="48.93743" lon="2.03827">
        <ele>14.7</ele>
        <time>2022-04-19T09:58:50Z</time>
      </trkpt>
      <trkpt lat="48.93738" lon="2.03823">
        <ele>15.1</ele>
        <time>2022-04-19T09:58:54Z</time>
      </trkpt>
      <trkpt lat="48.93733" lon="2.0382">
        <ele>15.3</ele>
        <time>2022-04-19T09:58:58Z</time>
      </trkpt>
      <trkpt lat="48.93729" lon="2.03818">
        <ele>15.9</ele>
        <time>2022-04-19T09:59:01Z</time>
      </trkpt>
      <trkpt lat="48.93724" lon="2.03816">
        <ele>16.1</ele>
        <time>2022-04-19T09:59:06Z</time>
      </trkpt>
      <trkpt lat="48.93719" lon="2.03815">
        <ele>13.9</ele>
        <time>2022-04-19T09:59:10Z</time>
      </trkpt>
      <trkpt lat="48.93713" lon="2.03813">
        <ele>10.6</ele>
        <time>2022-04-19T09:59:15Z</time>
      </trkpt>
      <trkpt lat="48.93709" lon="2.03811">
        <ele>7.4</ele>
        <time>2022-04-19T09:59:20Z</time>
      </trkpt>
      <trkpt lat="48.93706" lon="2.03806">
        <ele>9.4</ele>
        <time>2022-04-19T09:59:24Z</time>
      </trkpt>
      <trkpt lat="48.93705" lon="2.03799">
        <ele>10.1</ele>
        <time>2022-04-19T09:59:27Z</time>
      </trkpt>
      <trkpt lat="48.93704" lon="2.03792">
        <ele>11.2</ele>
        <time>2022-04-19T09:59:30Z</time>
      </trkpt>
      <trkpt lat="48.93702" lon="2.03785">
        <ele>12.3</ele>
        <time>2022-04-19T09:59:34Z</time>
      </trkpt>
      <trkpt lat="48.93699" lon="2.03778">
        <ele>13</ele>
        <time>2022-04-19T09:59:38Z</time>
      </trkpt>
      <trkpt lat="48.93696" lon="2.03772">
        <ele>13.1</ele>
        <time>2022-04-19T09:59:42Z</time>
      </trkpt>
      <trkpt lat="48.93692" lon="2.03768">
        <ele>13.4</ele>
        <time>2022-04-19T09:59:46Z</time>
      </trkpt>
      <trkpt lat="48.93688" lon="2.03762">
        <ele>10.5</ele>
        <time>2022-04-19T09:59:51Z</time>
      </trkpt>
      <trkpt lat="48.93684" lon="2.03756">
        <ele>11.3</ele>
        <time>2022-04-19T09:59:55Z</time>
      </trkpt>
      <trkpt lat="48.9368" lon="2.03752">
        <ele>11.6</ele>
        <time>2022-04-19T09:59:59Z</time>
      </trkpt>
      <trkpt lat="48.93676" lon="2.03747">
        <ele>12.2</ele>
        <time>2022-04-19T10:00:03Z</time>
      </trkpt>
      <trkpt lat="48.93672" lon="2.03742">
        <ele>13.3</ele>
        <time>2022-04-19T10:00:07Z</time>
      </trkpt>
      <trkpt lat="48.93668" lon="2.03736">
        <ele>13.8</ele>
        <time>2022-04-19T10:00:11Z</time>
      </trkpt>
      <trkpt lat="48.93664" lon="2.03731">
        <ele>14</ele>
        <time>2022-04-19T10:00:15Z</time>
      </trkpt>
      <trkpt lat="48.9366" lon="2.03727">
        <ele>14.7</ele>
        <time>2022-04-19T10:00:19Z</time>
      </trkpt>
      <trkpt lat="48.93657" lon="2.03721">
        <ele>13.9</ele>
        <time>2022-04-19T10:00:23Z</time>
      </trkpt>
      <trkpt lat="48.93653" lon="2.03716">
        <ele>14</ele>
        <time>2022-04-19T10:00:27Z</time>
      </trkpt>
      <trkpt lat="48.93648" lon="2.03711">
        <ele>13.5</ele>
        <time>2022-04-19T10:00:31Z</time>
      </trkpt>
      <trkpt lat="48.93645" lon="2.03705">
        <ele>15.3</ele>
        <time>2022-04-19T10:00:35Z</time>
      </trkpt>
      <trkpt lat="48.93641" lon="2.03699">
        <ele>15.6</ele>
        <time>2022-04-19T10:00:40Z</time>
      </trkpt>
      <trkpt lat="48.93637" lon="2.03693">
        <ele>14.7</ele>
        <time>2022-04-19T10:00:45Z</time>
      </trkpt>
      <trkpt lat="48.93633" lon="2.03688">
        <ele>14.2</ele>
        <time>2022-04-19T10:00:49Z</time>
      </trkpt>
      <trkpt lat="48.9363" lon="2.03682">
        <ele>15.5</ele>
        <time>2022-04-19T10:00:53Z</time>
      </trkpt>
      <trkpt lat="48.93626" lon="2.03678">
        <ele>16.3</ele>
        <time>2022-04-19T10:00:58Z</time>
      </trkpt>
      <trkpt lat="48.93623" lon="2.03673">
        <ele>16.1</ele>
        <time>2022-04-19T10:01:02Z</time>
      </trkpt>
      <trkpt lat="48.93619" lon="2.03669">
        <ele>15.9</ele>
        <time>2022-04-19T10:01:06Z</time>
      </trkpt>
      <trkpt lat="48.93616" lon="2.03663">
        <ele>15.6</ele>
        <time>2022-04-19T10:01:10Z</time>
      </trkpt>
      <trkpt lat="48.93612" lon="2.03658">
        <ele>15.9</ele>
        <time>2022-04-19T10:01:14Z</time>
      </trkpt>
      <trkpt lat="48.93609" lon="2.03651">
        <ele>17.6</ele>
        <time>2022-04-19T10:01:18Z</time>
      </trkpt>
      <trkpt lat="48.93606" lon="2.03643">
        <ele>16.4</ele>
        <time>2022-04-19T10:01:22Z</time>
      </trkpt>
      <trkpt lat="48.93602" lon="2.03637">
        <ele>15.5</ele>
        <time>2022-04-19T10:01:26Z</time>
      </trkpt>
      <trkpt lat="48.93599" lon="2.03632">
        <ele>15.5</ele>
        <time>2022-04-19T10:01:30Z</time>
      </trkpt>
      <trkpt lat="48.93596" lon="2.03625">
        <ele>15.9</ele>
        <time>2022-04-19T10:01:34Z</time>
      </trkpt>
      <trkpt lat="48.93592" lon="2.03619">
        <ele>15.3</ele>
        <time>2022-04-19T10:01:38Z</time>
      </trkpt>
      <trkpt lat="48.93589" lon="2.03613">
        <ele>16.4</ele>
        <time>2022-04-19T10:01:42Z</time>
      </trkpt>
      <trkpt lat="48.93586" lon="2.03608">
        <ele>16.5</ele>
        <time>2022-04-19T10:01:45Z</time>
      </trkpt>
      <trkpt lat="48.93582" lon="2.03603">
        <ele>17.2</ele>
        <time>2022-04-19T10:01:49Z</time>
      </trkpt>
      <trkpt lat="48.93578" lon="2.03597">
        <ele>19.3</ele>
        <time>2022-04-19T10:01:54Z</time>
      </trkpt>
      <trkpt lat="48.93574" lon="2.03593">
        <ele>19.9</ele>
        <time>2022-04-19T10:01:57Z</time>
      </trkpt>
      <trkpt lat="48.93571" lon="2.03588">
        <ele>19.8</ele>
        <time>2022-04-19T10:02:01Z</time>
      </trkpt>
      <trkpt lat="48.93567" lon="2.03583">
        <ele>19.8</ele>
        <time>2022-04-19T10:02:05Z</time>
      </trkpt>
      <trkpt lat="48.93562" lon="2.03577">
        <ele>18.1</ele>
        <time>2022-04-19T10:02:09Z</time>
      </trkpt>
      <trkpt lat="48.93558" lon="2.03572">
        <ele>16.4</ele>
        <time>2022-04-19T10:02:14Z</time>
      </trkpt>
      <trkpt lat="48.93554" lon="2.03567">
        <ele>16.7</ele>
        <time>2022-04-19T10:02:17Z</time>
      </trkpt>
      <trkpt lat="48.93551" lon="2.03562">
        <ele>17.4</ele>
        <time>2022-04-19T10:02:20Z</time>
      </trkpt>
      <trkpt lat="48.93548" lon="2.03556">
        <ele>17</ele>
        <time>2022-04-19T10:02:24Z</time>
      </trkpt>
      <trkpt lat="48.93545" lon="2.03551">
        <ele>17.4</ele>
        <time>2022-04-19T10:02:27Z</time>
      </trkpt>
      <trkpt lat="48.93541" lon="2.03546">
        <ele>14.5</ele>
        <time>2022-04-19T10:02:32Z</time>
      </trkpt>
      <trkpt lat="48.93538" lon="2.0354">
        <ele>14.8</ele>
        <time>2022-04-19T10:02:36Z</time>
      </trkpt>
      <trkpt lat="48.93536" lon="2.03532">
        <ele>17</ele>
        <time>2022-04-19T10:02:40Z</time>
      </trkpt>
      <trkpt lat="48.93534" lon="2.03524">
        <ele>17.7</ele>
        <time>2022-04-19T10:02:44Z</time>
      </trkpt>
      <trkpt lat="48.93532" lon="2.03517">
        <ele>17.2</ele>
        <time>2022-04-19T10:02:48Z</time>
      </trkpt>
      <trkpt lat="48.93529" lon="2.03512">
        <ele>17.2</ele>
        <time>2022-04-19T10:02:52Z</time>
      </trkpt>
      <trkpt lat="48.93525" lon="2.03507">
        <ele>16.9</ele>
        <time>2022-04-19T10:02:56Z</time>
      </trkpt>
      <trkpt lat="48.93521" lon="2.03503">
        <ele>15.7</ele>
        <time>2022-04-19T10:03:00Z</time>
      </trkpt>
      <trkpt lat="48.93518" lon="2.03496">
        <ele>16.3</ele>
        <time>2022-04-19T10:03:04Z</time>
      </trkpt>
      <trkpt lat="48.93516" lon="2.0349">
        <ele>16.4</ele>
        <time>2022-04-19T10:03:08Z</time>
      </trkpt>
      <trkpt lat="48.93513" lon="2.03484">
        <ele>15.8</ele>
        <time>2022-04-19T10:03:12Z</time>
      </trkpt>
      <trkpt lat="48.9351" lon="2.03477">
        <ele>15.8</ele>
        <time>2022-04-19T10:03:16Z</time>
      </trkpt>
      <trkpt lat="48.93508" lon="2.0347">
        <ele>15.7</ele>
        <time>2022-04-19T10:03:20Z</time>
      </trkpt>
      <trkpt lat="48.93505" lon="2.03462">
        <ele>15</ele>
        <time>2022-04-19T10:03:24Z</time>
      </trkpt>
      <trkpt lat="48.93503" lon="2.03455">
        <ele>13.7</ele>
        <time>2022-04-19T10:03:28Z</time>
      </trkpt>
      <trkpt lat="48.935" lon="2.03448">
        <ele>15.8</ele>
        <time>2022-04-19T10:03:32Z</time>
      </trkpt>
      <trkpt lat="48.93498" lon="2.03442">
        <ele>17.9</ele>
        <time>2022-04-19T10:03:36Z</time>
      </trkpt>
      <trkpt lat="48.93496" lon="2.03435">
        <ele>18</ele>
        <time>2022-04-19T10:03:40Z</time>
      </trkpt>
      <trkpt lat="48.93493" lon="2.03428">
        <ele>15.7</ele>
        <time>2022-04-19T10:03:43Z</time>
      </trkpt>
      <trkpt lat="48.93491" lon="2.0342">
        <ele>14.6</ele>
        <time>2022-04-19T10:03:47Z</time>
      </trkpt>
      <trkpt lat="48.93488" lon="2.03414">
        <ele>15.7</ele>
        <time>2022-04-19T10:03:51Z</time>
      </trkpt>
      <trkpt lat="48.93485" lon="2.03408">
        <ele>15</ele>
        <time>2022-04-19T10:03:55Z</time>
      </trkpt>
      <trkpt lat="48.93481" lon="2.03402">
        <ele>14.6</ele>
        <time>2022-04-19T10:03:59Z</time>
      </trkpt>
      <trkpt lat="48.93478" lon="2.03394">
        <ele>14.2</ele>
        <time>2022-04-19T10:04:03Z</time>
      </trkpt>
      <trkpt lat="48.93475" lon="2.03387">
        <ele>14.5</ele>
        <time>2022-04-19T10:04:07Z</time>
      </trkpt>
      <trkpt lat="48.93473" lon="2.0338">
        <ele>14.7</ele>
        <time>2022-04-19T10:04:11Z</time>
      </trkpt>
      <trkpt lat="48.9347" lon="2.03374">
        <ele>16.1</ele>
        <time>2022-04-19T10:04:16Z</time>
      </trkpt>
      <trkpt lat="48.93468" lon="2.03366">
        <ele>15.8</ele>
        <time>2022-04-19T10:04:20Z</time>
      </trkpt>
      <trkpt lat="48.93472" lon="2.03361">
        <ele>12.6</ele>
        <time>2022-04-19T10:06:07Z</time>
      </trkpt>
      <trkpt lat="48.93477" lon="2.03356">
        <ele>12.4</ele>
        <time>2022-04-19T10:06:10Z</time>
      </trkpt>
      <trkpt lat="48.93481" lon="2.03351">
        <ele>11.9</ele>
        <time>2022-04-19T10:06:13Z</time>
      </trkpt>
      <trkpt lat="48.93485" lon="2.03345">
        <ele>10.5</ele>
        <time>2022-04-19T10:06:17Z</time>
      </trkpt>
      <trkpt lat="48.93489" lon="2.03339">
        <ele>11.9</ele>
        <time>2022-04-19T10:06:21Z</time>
      </trkpt>
      <trkpt lat="48.93492" lon="2.03332">
        <ele>10.5</ele>
        <time>2022-04-19T10:06:26Z</time>
      </trkpt>
      <trkpt lat="48.93495" lon="2.03325">
        <ele>11.4</ele>
        <time>2022-04-19T10:06:31Z</time>
      </trkpt>
      <trkpt lat="48.93499" lon="2.03319">
        <ele>12.7</ele>
        <time>2022-04-19T10:06:35Z</time>
      </trkpt>
      <trkpt lat="48.93503" lon="2.03314">
        <ele>13.9</ele>
        <time>2022-04-19T10:06:40Z</time>
      </trkpt>
      <trkpt lat="48.93507" lon="2.03309">
        <ele>12.1</ele>
        <time>2022-04-19T10:06:43Z</time>
      </trkpt>
      <trkpt lat="48.9351" lon="2.03303">
        <ele>11.8</ele>
        <time>2022-04-19T10:06:47Z</time>
      </trkpt>
      <trkpt lat="48.93514" lon="2.03297">
        <ele>12.7</ele>
        <time>2022-04-19T10:06:51Z</time>
      </trkpt>
      <trkpt lat="48.93518" lon="2.03293">
        <ele>15.6</ele>
        <time>2022-04-19T10:06:55Z</time>
      </trkpt>
      <trkpt lat="48.93523" lon="2.0329">
        <ele>14.1</ele>
        <time>2022-04-19T10:06:59Z</time>
      </trkpt>
      <trkpt lat="48.93527" lon="2.03286">
        <ele>12.6</ele>
        <time>2022-04-19T10:07:04Z</time>
      </trkpt>
      <trkpt lat="48.93527" lon="2.03278">
        <ele>11.2</ele>
        <time>2022-04-19T10:07:08Z</time>
      </trkpt>
      <trkpt lat="48.93529" lon="2.03266">
        <ele>12.7</ele>
        <time>2022-04-19T10:07:19Z</time>
      </trkpt>
      <trkpt lat="48.9353" lon="2.03259">
        <ele>11.6</ele>
        <time>2022-04-19T10:07:24Z</time>
      </trkpt>
      <trkpt lat="48.93535" lon="2.03253">
        <ele>11.3</ele>
        <time>2022-04-19T10:07:30Z</time>
      </trkpt>
      <trkpt lat="48.93539" lon="2.03249">
        <ele>13.3</ele>
        <time>2022-04-19T10:07:37Z</time>
      </trkpt>
      <trkpt lat="48.93544" lon="2.03246">
        <ele>15.4</ele>
        <time>2022-04-19T10:07:43Z</time>
      </trkpt>
      <trkpt lat="48.93549" lon="2.03244">
        <ele>15.8</ele>
        <time>2022-04-19T10:07:47Z</time>
      </trkpt>
      <trkpt lat="48.93553" lon="2.03239">
        <ele>16.4</ele>
        <time>2022-04-19T10:07:52Z</time>
      </trkpt>
      <trkpt lat="48.93557" lon="2.03234">
        <ele>17.1</ele>
        <time>2022-04-19T10:07:58Z</time>
      </trkpt>
      <trkpt lat="48.93561" lon="2.03231">
        <ele>17.1</ele>
        <time>2022-04-19T10:08:02Z</time>
      </trkpt>
      <trkpt lat="48.93564" lon="2.03227">
        <ele>17.3</ele>
        <time>2022-04-19T10:08:06Z</time>
      </trkpt>
      <trkpt lat="48.93568" lon="2.03222">
        <ele>17.2</ele>
        <time>2022-04-19T10:08:11Z</time>
      </trkpt>
      <trkpt lat="48.93572" lon="2.03218">
        <ele>16.8</ele>
        <time>2022-04-19T10:08:15Z</time>
      </trkpt>
      <trkpt lat="48.93575" lon="2.03213">
        <ele>16</ele>
        <time>2022-04-19T10:08:19Z</time>
      </trkpt>
      <trkpt lat="48.93579" lon="2.03209">
        <ele>16.8</ele>
        <time>2022-04-19T10:08:22Z</time>
      </trkpt>
      <trkpt lat="48.93583" lon="2.03202">
        <ele>17.5</ele>
        <time>2022-04-19T10:08:27Z</time>
      </trkpt>
      <trkpt lat="48.93587" lon="2.03196">
        <ele>18.1</ele>
        <time>2022-04-19T10:08:32Z</time>
      </trkpt>
      <trkpt lat="48.9359" lon="2.0319">
        <ele>17</ele>
        <time>2022-04-19T10:08:36Z</time>
      </trkpt>
      <trkpt lat="48.93593" lon="2.03183">
        <ele>16.8</ele>
        <time>2022-04-19T10:08:40Z</time>
      </trkpt>
      <trkpt lat="48.93596" lon="2.03177">
        <ele>17</ele>
        <time>2022-04-19T10:08:44Z</time>
      </trkpt>
      <trkpt lat="48.93599" lon="2.03171">
        <ele>17.2</ele>
        <time>2022-04-19T10:08:49Z</time>
      </trkpt>
      <trkpt lat="48.93603" lon="2.03167">
        <ele>16.5</ele>
        <time>2022-04-19T10:08:54Z</time>
      </trkpt>
      <trkpt lat="48.93607" lon="2.03164">
        <ele>16.4</ele>
        <time>2022-04-19T10:08:58Z</time>
      </trkpt>
      <trkpt lat="48.93612" lon="2.03161">
        <ele>15.4</ele>
        <time>2022-04-19T10:09:02Z</time>
      </trkpt>
      <trkpt lat="48.93616" lon="2.03157">
        <ele>15.7</ele>
        <time>2022-04-19T10:09:07Z</time>
      </trkpt>
      <trkpt lat="48.9362" lon="2.03153">
        <ele>15.5</ele>
        <time>2022-04-19T10:09:11Z</time>
      </trkpt>
      <trkpt lat="48.93625" lon="2.03147">
        <ele>16.4</ele>
        <time>2022-04-19T10:09:15Z</time>
      </trkpt>
      <trkpt lat="48.9363" lon="2.03144">
        <ele>15.4</ele>
        <time>2022-04-19T10:09:20Z</time>
      </trkpt>
      <trkpt lat="48.93633" lon="2.0314">
        <ele>15.1</ele>
        <time>2022-04-19T10:09:24Z</time>
      </trkpt>
      <trkpt lat="48.93638" lon="2.03136">
        <ele>15.9</ele>
        <time>2022-04-19T10:09:28Z</time>
      </trkpt>
      <trkpt lat="48.93643" lon="2.03136">
        <ele>14.5</ele>
        <time>2022-04-19T10:09:32Z</time>
      </trkpt>
      <trkpt lat="48.93648" lon="2.03134">
        <ele>14.1</ele>
        <time>2022-04-19T10:09:36Z</time>
      </trkpt>
      <trkpt lat="48.9365" lon="2.03128">
        <ele>13.3</ele>
        <time>2022-04-19T10:09:39Z</time>
      </trkpt>
      <trkpt lat="48.93651" lon="2.03119">
        <ele>12.9</ele>
        <time>2022-04-19T10:09:43Z</time>
      </trkpt>
      <trkpt lat="48.93652" lon="2.03111">
        <ele>10.2</ele>
        <time>2022-04-19T10:09:47Z</time>
      </trkpt>
      <trkpt lat="48.93652" lon="2.03104">
        <ele>8.8</ele>
        <time>2022-04-19T10:09:51Z</time>
      </trkpt>
      <trkpt lat="48.93653" lon="2.03097">
        <ele>10.2</ele>
        <time>2022-04-19T10:09:54Z</time>
      </trkpt>
      <trkpt lat="48.93655" lon="2.0309">
        <ele>11.2</ele>
        <time>2022-04-19T10:09:58Z</time>
      </trkpt>
      <trkpt lat="48.93656" lon="2.03083">
        <ele>11.3</ele>
        <time>2022-04-19T10:10:01Z</time>
      </trkpt>
      <trkpt lat="48.93657" lon="2.03076">
        <ele>12.2</ele>
        <time>2022-04-19T10:10:05Z</time>
      </trkpt>
      <trkpt lat="48.93657" lon="2.03068">
        <ele>13.1</ele>
        <time>2022-04-19T10:10:09Z</time>
      </trkpt>
      <trkpt lat="48.93655" lon="2.0306">
        <ele>14.1</ele>
        <time>2022-04-19T10:10:12Z</time>
      </trkpt>
      <trkpt lat="48.93653" lon="2.03052">
        <ele>14.4</ele>
        <time>2022-04-19T10:10:16Z</time>
      </trkpt>
      <trkpt lat="48.93652" lon="2.03045">
        <ele>13.9</ele>
        <time>2022-04-19T10:10:20Z</time>
      </trkpt>
      <trkpt lat="48.93651" lon="2.03037">
        <ele>13.8</ele>
        <time>2022-04-19T10:10:24Z</time>
      </trkpt>
      <trkpt lat="48.9365" lon="2.03028">
        <ele>14</ele>
        <time>2022-04-19T10:10:28Z</time>
      </trkpt>
      <trkpt lat="48.93649" lon="2.0302">
        <ele>14.3</ele>
        <time>2022-04-19T10:10:33Z</time>
      </trkpt>
      <trkpt lat="48.93649" lon="2.03011">
        <ele>13.9</ele>
        <time>2022-04-19T10:10:38Z</time>
      </trkpt>
      <trkpt lat="48.93649" lon="2.03002">
        <ele>13.6</ele>
        <time>2022-04-19T10:10:42Z</time>
      </trkpt>
      <trkpt lat="48.93649" lon="2.02995">
        <ele>13.1</ele>
        <time>2022-04-19T10:10:46Z</time>
      </trkpt>
      <trkpt lat="48.9365" lon="2.02987">
        <ele>13.2</ele>
        <time>2022-04-19T10:10:50Z</time>
      </trkpt>
      <trkpt lat="48.93651" lon="2.02979">
        <ele>13.2</ele>
        <time>2022-04-19T10:10:53Z</time>
      </trkpt>
      <trkpt lat="48.93651" lon="2.02971">
        <ele>14.7</ele>
        <time>2022-04-19T10:10:57Z</time>
      </trkpt>
      <trkpt lat="48.93652" lon="2.02964">
        <ele>14.8</ele>
        <time>2022-04-19T10:11:01Z</time>
      </trkpt>
      <trkpt lat="48.93653" lon="2.02957">
        <ele>14.6</ele>
        <time>2022-04-19T10:11:05Z</time>
      </trkpt>
      <trkpt lat="48.93654" lon="2.02948">
        <ele>14.2</ele>
        <time>2022-04-19T10:11:09Z</time>
      </trkpt>
      <trkpt lat="48.93654" lon="2.02941">
        <ele>15.2</ele>
        <time>2022-04-19T10:11:13Z</time>
      </trkpt>
      <trkpt lat="48.9365" lon="2.02937">
        <ele>16.1</ele>
        <time>2022-04-19T10:11:21Z</time>
      </trkpt>
      <trkpt lat="48.93653" lon="2.02932">
        <ele>16.6</ele>
        <time>2022-04-19T10:11:25Z</time>
      </trkpt>
      <trkpt lat="48.93657" lon="2.02925">
        <ele>16.3</ele>
        <time>2022-04-19T10:11:29Z</time>
      </trkpt>
      <trkpt lat="48.93658" lon="2.02917">
        <ele>16.8</ele>
        <time>2022-04-19T10:11:33Z</time>
      </trkpt>
      <trkpt lat="48.93658" lon="2.0291">
        <ele>15.2</ele>
        <time>2022-04-19T10:11:37Z</time>
      </trkpt>
      <trkpt lat="48.93659" lon="2.02903">
        <ele>15</ele>
        <time>2022-04-19T10:11:41Z</time>
      </trkpt>
      <trkpt lat="48.9366" lon="2.02894">
        <ele>13.6</ele>
        <time>2022-04-19T10:11:45Z</time>
      </trkpt>
      <trkpt lat="48.9366" lon="2.02887">
        <ele>13.3</ele>
        <time>2022-04-19T10:11:49Z</time>
      </trkpt>
      <trkpt lat="48.9366" lon="2.02879">
        <ele>13.3</ele>
        <time>2022-04-19T10:11:53Z</time>
      </trkpt>
      <trkpt lat="48.9366" lon="2.02872">
        <ele>13.2</ele>
        <time>2022-04-19T10:11:57Z</time>
      </trkpt>
      <trkpt lat="48.9366" lon="2.02864">
        <ele>13.9</ele>
        <time>2022-04-19T10:12:01Z</time>
      </trkpt>
      <trkpt lat="48.93659" lon="2.02856">
        <ele>14.4</ele>
        <time>2022-04-19T10:12:05Z</time>
      </trkpt>
      <trkpt lat="48.93659" lon="2.02849">
        <ele>14.6</ele>
        <time>2022-04-19T10:12:09Z</time>
      </trkpt>
      <trkpt lat="48.93658" lon="2.02841">
        <ele>13.5</ele>
        <time>2022-04-19T10:12:13Z</time>
      </trkpt>
      <trkpt lat="48.93656" lon="2.02833">
        <ele>12.7</ele>
        <time>2022-04-19T10:12:17Z</time>
      </trkpt>
      <trkpt lat="48.93654" lon="2.02825">
        <ele>13.1</ele>
        <time>2022-04-19T10:12:22Z</time>
      </trkpt>
      <trkpt lat="48.93652" lon="2.02819">
        <ele>13.1</ele>
        <time>2022-04-19T10:12:25Z</time>
      </trkpt>
      <trkpt lat="48.9365" lon="2.02812">
        <ele>13</ele>
        <time>2022-04-19T10:12:29Z</time>
      </trkpt>
      <trkpt lat="48.93647" lon="2.02803">
        <ele>12.5</ele>
        <time>2022-04-19T10:12:34Z</time>
      </trkpt>
      <trkpt lat="48.93646" lon="2.02794">
        <ele>11.8</ele>
        <time>2022-04-19T10:12:38Z</time>
      </trkpt>
      <trkpt lat="48.93644" lon="2.02788">
        <ele>11.5</ele>
        <time>2022-04-19T10:12:41Z</time>
      </trkpt>
      <trkpt lat="48.93642" lon="2.02781">
        <ele>12.5</ele>
        <time>2022-04-19T10:12:45Z</time>
      </trkpt>
      <trkpt lat="48.93639" lon="2.02774">
        <ele>12.6</ele>
        <time>2022-04-19T10:12:50Z</time>
      </trkpt>
      <trkpt lat="48.93636" lon="2.02766">
        <ele>12.6</ele>
        <time>2022-04-19T10:12:53Z</time>
      </trkpt>
      <trkpt lat="48.93633" lon="2.02759">
        <ele>12.7</ele>
        <time>2022-04-19T10:12:57Z</time>
      </trkpt>
      <trkpt lat="48.9363" lon="2.02753">
        <ele>13.8</ele>
        <time>2022-04-19T10:13:01Z</time>
      </trkpt>
      <trkpt lat="48.93628" lon="2.02746">
        <ele>13.5</ele>
        <time>2022-04-19T10:13:05Z</time>
      </trkpt>
      <trkpt lat="48.93625" lon="2.02741">
        <ele>13.3</ele>
        <time>2022-04-19T10:13:09Z</time>
      </trkpt>
      <trkpt lat="48.93621" lon="2.02736">
        <ele>13.4</ele>
        <time>2022-04-19T10:13:13Z</time>
      </trkpt>
      <trkpt lat="48.93617" lon="2.0273">
        <ele>13.8</ele>
        <time>2022-04-19T10:13:18Z</time>
      </trkpt>
      <trkpt lat="48.93613" lon="2.02725">
        <ele>13.6</ele>
        <time>2022-04-19T10:13:22Z</time>
      </trkpt>
      <trkpt lat="48.93611" lon="2.02717">
        <ele>14</ele>
        <time>2022-04-19T10:13:26Z</time>
      </trkpt>
      <trkpt lat="48.93615" lon="2.02712">
        <ele>14.4</ele>
        <time>2022-04-19T10:13:30Z</time>
      </trkpt>
      <trkpt lat="48.9362" lon="2.02709">
        <ele>15.6</ele>
        <time>2022-04-19T10:13:34Z</time>
      </trkpt>
      <trkpt lat="48.93625" lon="2.02704">
        <ele>15.4</ele>
        <time>2022-04-19T10:13:39Z</time>
      </trkpt>
      <trkpt lat="48.93628" lon="2.02698">
        <ele>15.5</ele>
        <time>2022-04-19T10:13:43Z</time>
      </trkpt>
      <trkpt lat="48.93632" lon="2.02693">
        <ele>15.9</ele>
        <time>2022-04-19T10:13:47Z</time>
      </trkpt>
      <trkpt lat="48.93635" lon="2.02687">
        <ele>15.3</ele>
        <time>2022-04-19T10:13:51Z</time>
      </trkpt>
      <trkpt lat="48.93639" lon="2.02682">
        <ele>15</ele>
        <time>2022-04-19T10:13:55Z</time>
      </trkpt>
      <trkpt lat="48.93642" lon="2.02675">
        <ele>15.9</ele>
        <time>2022-04-19T10:13:59Z</time>
      </trkpt>
      <trkpt lat="48.93646" lon="2.02669">
        <ele>15.7</ele>
        <time>2022-04-19T10:14:04Z</time>
      </trkpt>
      <trkpt lat="48.9365" lon="2.02663">
        <ele>15.3</ele>
        <time>2022-04-19T10:14:08Z</time>
      </trkpt>
      <trkpt lat="48.93654" lon="2.02657">
        <ele>14.6</ele>
        <time>2022-04-19T10:14:11Z</time>
      </trkpt>
      <trkpt lat="48.93657" lon="2.02652">
        <ele>14.1</ele>
        <time>2022-04-19T10:14:15Z</time>
      </trkpt>
      <trkpt lat="48.93661" lon="2.02645">
        <ele>13.3</ele>
        <time>2022-04-19T10:14:19Z</time>
      </trkpt>
      <trkpt lat="48.93664" lon="2.0264">
        <ele>14</ele>
        <time>2022-04-19T10:14:23Z</time>
      </trkpt>
      <trkpt lat="48.93668" lon="2.02635">
        <ele>14.2</ele>
        <time>2022-04-19T10:14:27Z</time>
      </trkpt>
      <trkpt lat="48.93671" lon="2.02629">
        <ele>15.2</ele>
        <time>2022-04-19T10:14:31Z</time>
      </trkpt>
      <trkpt lat="48.93675" lon="2.02624">
        <ele>14.7</ele>
        <time>2022-04-19T10:14:35Z</time>
      </trkpt>
      <trkpt lat="48.93679" lon="2.02618">
        <ele>14.9</ele>
        <time>2022-04-19T10:14:39Z</time>
      </trkpt>
      <trkpt lat="48.93682" lon="2.02612">
        <ele>14.7</ele>
        <time>2022-04-19T10:14:43Z</time>
      </trkpt>
      <trkpt lat="48.93685" lon="2.02606">
        <ele>14.5</ele>
        <time>2022-04-19T10:14:47Z</time>
      </trkpt>
      <trkpt lat="48.93688" lon="2.02601">
        <ele>14.5</ele>
        <time>2022-04-19T10:14:51Z</time>
      </trkpt>
      <trkpt lat="48.93692" lon="2.02596">
        <ele>15.1</ele>
        <time>2022-04-19T10:14:55Z</time>
      </trkpt>
      <trkpt lat="48.93695" lon="2.0259">
        <ele>15.1</ele>
        <time>2022-04-19T10:14:59Z</time>
      </trkpt>
      <trkpt lat="48.93699" lon="2.02584">
        <ele>15.4</ele>
        <time>2022-04-19T10:15:03Z</time>
      </trkpt>
      <trkpt lat="48.93702" lon="2.02579">
        <ele>16.4</ele>
        <time>2022-04-19T10:15:07Z</time>
      </trkpt>
      <trkpt lat="48.93705" lon="2.02573">
        <ele>17.7</ele>
        <time>2022-04-19T10:15:11Z</time>
      </trkpt>
      <trkpt lat="48.93709" lon="2.02567">
        <ele>18.5</ele>
        <time>2022-04-19T10:15:15Z</time>
      </trkpt>
      <trkpt lat="48.93709" lon="2.02559">
        <ele>18.5</ele>
        <time>2022-04-19T10:15:19Z</time>
      </trkpt>
      <trkpt lat="48.93705" lon="2.02552">
        <ele>17.5</ele>
        <time>2022-04-19T10:15:23Z</time>
      </trkpt>
      <trkpt lat="48.93701" lon="2.02546">
        <ele>16.8</ele>
        <time>2022-04-19T10:15:27Z</time>
      </trkpt>
      <trkpt lat="48.93699" lon="2.0254">
        <ele>17</ele>
        <time>2022-04-19T10:15:31Z</time>
      </trkpt>
      <trkpt lat="48.93696" lon="2.02533">
        <ele>16.8</ele>
        <time>2022-04-19T10:15:35Z</time>
      </trkpt>
      <trkpt lat="48.93694" lon="2.02526">
        <ele>16.8</ele>
        <time>2022-04-19T10:15:39Z</time>
      </trkpt>
      <trkpt lat="48.93691" lon="2.02519">
        <ele>16.9</ele>
        <time>2022-04-19T10:15:43Z</time>
      </trkpt>
      <trkpt lat="48.93688" lon="2.02513">
        <ele>16.8</ele>
        <time>2022-04-19T10:15:47Z</time>
      </trkpt>
      <trkpt lat="48.93686" lon="2.02506">
        <ele>16.9</ele>
        <time>2022-04-19T10:15:50Z</time>
      </trkpt>
      <trkpt lat="48.93682" lon="2.02499">
        <ele>16.4</ele>
        <time>2022-04-19T10:15:55Z</time>
      </trkpt>
      <trkpt lat="48.93679" lon="2.02493">
        <ele>15.9</ele>
        <time>2022-04-19T10:16:00Z</time>
      </trkpt>
      <trkpt lat="48.93676" lon="2.02486">
        <ele>16</ele>
        <time>2022-04-19T10:16:04Z</time>
      </trkpt>
      <trkpt lat="48.93672" lon="2.02479">
        <ele>15.3</ele>
        <time>2022-04-19T10:16:09Z</time>
      </trkpt>
      <trkpt lat="48.93669" lon="2.02473">
        <ele>14.7</ele>
        <time>2022-04-19T10:16:13Z</time>
      </trkpt>
      <trkpt lat="48.93665" lon="2.02467">
        <ele>14.7</ele>
        <time>2022-04-19T10:16:17Z</time>
      </trkpt>
      <trkpt lat="48.93662" lon="2.02461">
        <ele>14.8</ele>
        <time>2022-04-19T10:16:21Z</time>
      </trkpt>
      <trkpt lat="48.93659" lon="2.02454">
        <ele>14.6</ele>
        <time>2022-04-19T10:16:25Z</time>
      </trkpt>
      <trkpt lat="48.93656" lon="2.02448">
        <ele>14.4</ele>
        <time>2022-04-19T10:16:28Z</time>
      </trkpt>
      <trkpt lat="48.93653" lon="2.02442">
        <ele>14</ele>
        <time>2022-04-19T10:16:32Z</time>
      </trkpt>
      <trkpt lat="48.93651" lon="2.02436">
        <ele>14.4</ele>
        <time>2022-04-19T10:16:36Z</time>
      </trkpt>
      <trkpt lat="48.93647" lon="2.0243">
        <ele>14.3</ele>
        <time>2022-04-19T10:16:40Z</time>
      </trkpt>
      <trkpt lat="48.93644" lon="2.02423">
        <ele>14.1</ele>
        <time>2022-04-19T10:16:45Z</time>
      </trkpt>
      <trkpt lat="48.93642" lon="2.02417">
        <ele>14</ele>
        <time>2022-04-19T10:16:49Z</time>
      </trkpt>
      <trkpt lat="48.93639" lon="2.02411">
        <ele>14.4</ele>
        <time>2022-04-19T10:16:53Z</time>
      </trkpt>
      <trkpt lat="48.93636" lon="2.02405">
        <ele>14</ele>
        <time>2022-04-19T10:16:57Z</time>
      </trkpt>
      <trkpt lat="48.93633" lon="2.02399">
        <ele>13.9</ele>
        <time>2022-04-19T10:17:01Z</time>
      </trkpt>
      <trkpt lat="48.9363" lon="2.02394">
        <ele>13.1</ele>
        <time>2022-04-19T10:17:05Z</time>
      </trkpt>
      <trkpt lat="48.93626" lon="2.02386">
        <ele>12.7</ele>
        <time>2022-04-19T10:17:10Z</time>
      </trkpt>
      <trkpt lat="48.93623" lon="2.02379">
        <ele>12.8</ele>
        <time>2022-04-19T10:17:14Z</time>
      </trkpt>
      <trkpt lat="48.9362" lon="2.02373">
        <ele>13.2</ele>
        <time>2022-04-19T10:17:18Z</time>
      </trkpt>
      <trkpt lat="48.93617" lon="2.02367">
        <ele>13.6</ele>
        <time>2022-04-19T10:17:22Z</time>
      </trkpt>
      <trkpt lat="48.93613" lon="2.0236">
        <ele>14.2</ele>
        <time>2022-04-19T10:17:26Z</time>
      </trkpt>
      <trkpt lat="48.9361" lon="2.02355">
        <ele>13.9</ele>
        <time>2022-04-19T10:17:30Z</time>
      </trkpt>
      <trkpt lat="48.93607" lon="2.02349">
        <ele>13.3</ele>
        <time>2022-04-19T10:17:34Z</time>
      </trkpt>
      <trkpt lat="48.93604" lon="2.02341">
        <ele>13.3</ele>
        <time>2022-04-19T10:17:39Z</time>
      </trkpt>
      <trkpt lat="48.93601" lon="2.02335">
        <ele>13.7</ele>
        <time>2022-04-19T10:17:43Z</time>
      </trkpt>
      <trkpt lat="48.93598" lon="2.02329">
        <ele>13.7</ele>
        <time>2022-04-19T10:17:47Z</time>
      </trkpt>
      <trkpt lat="48.93595" lon="2.02323">
        <ele>13.5</ele>
        <time>2022-04-19T10:17:52Z</time>
      </trkpt>
      <trkpt lat="48.93593" lon="2.02316">
        <ele>12.8</ele>
        <time>2022-04-19T10:17:56Z</time>
      </trkpt>
      <trkpt lat="48.93593" lon="2.02309">
        <ele>13.1</ele>
        <time>2022-04-19T10:18:00Z</time>
      </trkpt>
      <trkpt lat="48.93593" lon="2.023">
        <ele>13</ele>
        <time>2022-04-19T10:18:04Z</time>
      </trkpt>
      <trkpt lat="48.93594" lon="2.02292">
        <ele>14</ele>
        <time>2022-04-19T10:18:09Z</time>
      </trkpt>
      <trkpt lat="48.93593" lon="2.02284">
        <ele>13.9</ele>
        <time>2022-04-19T10:18:13Z</time>
      </trkpt>
      <trkpt lat="48.93592" lon="2.02275">
        <ele>14</ele>
        <time>2022-04-19T10:18:18Z</time>
      </trkpt>
      <trkpt lat="48.93591" lon="2.02267">
        <ele>12.8</ele>
        <time>2022-04-19T10:18:22Z</time>
      </trkpt>
      <trkpt lat="48.9359" lon="2.0226">
        <ele>12.6</ele>
        <time>2022-04-19T10:18:26Z</time>
      </trkpt>
      <trkpt lat="48.93586" lon="2.02254">
        <ele>12.5</ele>
        <time>2022-04-19T10:18:30Z</time>
      </trkpt>
      <trkpt lat="48.93584" lon="2.02246">
        <ele>12</ele>
        <time>2022-04-19T10:18:34Z</time>
      </trkpt>
      <trkpt lat="48.93581" lon="2.02238">
        <ele>13.2</ele>
        <time>2022-04-19T10:18:39Z</time>
      </trkpt>
      <trkpt lat="48.93578" lon="2.02231">
        <ele>14.2</ele>
        <time>2022-04-19T10:18:43Z</time>
      </trkpt>
      <trkpt lat="48.93576" lon="2.02224">
        <ele>14.3</ele>
        <time>2022-04-19T10:18:47Z</time>
      </trkpt>
      <trkpt lat="48.93573" lon="2.02217">
        <ele>14.9</ele>
        <time>2022-04-19T10:18:51Z</time>
      </trkpt>
      <trkpt lat="48.9357" lon="2.0221">
        <ele>14.7</ele>
        <time>2022-04-19T10:18:55Z</time>
      </trkpt>
      <trkpt lat="48.93567" lon="2.02204">
        <ele>14.8</ele>
        <time>2022-04-19T10:18:59Z</time>
      </trkpt>
      <trkpt lat="48.93565" lon="2.02198">
        <ele>14.2</ele>
        <time>2022-04-19T10:19:03Z</time>
      </trkpt>
      <trkpt lat="48.93562" lon="2.02192">
        <ele>14.8</ele>
        <time>2022-04-19T10:19:07Z</time>
      </trkpt>
      <trkpt lat="48.93559" lon="2.02185">
        <ele>15.6</ele>
        <time>2022-04-19T10:19:11Z</time>
      </trkpt>
      <trkpt lat="48.93557" lon="2.02179">
        <ele>15.8</ele>
        <time>2022-04-19T10:19:15Z</time>
      </trkpt>
      <trkpt lat="48.93554" lon="2.02172">
        <ele>14.7</ele>
        <time>2022-04-19T10:19:19Z</time>
      </trkpt>
      <trkpt lat="48.93551" lon="2.02165">
        <ele>14.6</ele>
        <time>2022-04-19T10:19:22Z</time>
      </trkpt>
      <trkpt lat="48.93548" lon="2.02159">
        <ele>14.5</ele>
        <time>2022-04-19T10:19:26Z</time>
      </trkpt>
      <trkpt lat="48.93544" lon="2.02154">
        <ele>14</ele>
        <time>2022-04-19T10:19:30Z</time>
      </trkpt>
      <trkpt lat="48.93542" lon="2.02148">
        <ele>14.5</ele>
        <time>2022-04-19T10:19:34Z</time>
      </trkpt>
      <trkpt lat="48.93539" lon="2.02141">
        <ele>14.3</ele>
        <time>2022-04-19T10:19:38Z</time>
      </trkpt>
      <trkpt lat="48.93537" lon="2.02134">
        <ele>15.1</ele>
        <time>2022-04-19T10:19:43Z</time>
      </trkpt>
      <trkpt lat="48.93535" lon="2.02125">
        <ele>13.1</ele>
        <time>2022-04-19T10:19:47Z</time>
      </trkpt>
      <trkpt lat="48.93535" lon="2.02119">
        <ele>15.2</ele>
        <time>2022-04-19T10:19:51Z</time>
      </trkpt>
      <trkpt lat="48.93532" lon="2.02112">
        <ele>15.2</ele>
        <time>2022-04-19T10:19:54Z</time>
      </trkpt>
      <trkpt lat="48.9353" lon="2.02106">
        <ele>15.1</ele>
        <time>2022-04-19T10:19:58Z</time>
      </trkpt>
      <trkpt lat="48.93527" lon="2.021">
        <ele>17.1</ele>
        <time>2022-04-19T10:20:02Z</time>
      </trkpt>
      <trkpt lat="48.93524" lon="2.02093">
        <ele>17</ele>
        <time>2022-04-19T10:20:06Z</time>
      </trkpt>
      <trkpt lat="48.93526" lon="2.02084">
        <ele>16.9</ele>
        <time>2022-04-19T10:20:11Z</time>
      </trkpt>
      <trkpt lat="48.93529" lon="2.02079">
        <ele>17.1</ele>
        <time>2022-04-19T10:20:14Z</time>
      </trkpt>
      <trkpt lat="48.93534" lon="2.02076">
        <ele>16.2</ele>
        <time>2022-04-19T10:20:17Z</time>
      </trkpt>
      <trkpt lat="48.93538" lon="2.02072">
        <ele>14.7</ele>
        <time>2022-04-19T10:20:21Z</time>
      </trkpt>
      <trkpt lat="48.93537" lon="2.02065">
        <ele>15.8</ele>
        <time>2022-04-19T10:20:39Z</time>
      </trkpt>
      <trkpt lat="48.93538" lon="2.02058">
        <ele>18.9</ele>
        <time>2022-04-19T10:20:43Z</time>
      </trkpt>
      <trkpt lat="48.93534" lon="2.02054">
        <ele>15.6</ele>
        <time>2022-04-19T10:20:49Z</time>
      </trkpt>
      <trkpt lat="48.93535" lon="2.02046">
        <ele>14.3</ele>
        <time>2022-04-19T10:20:53Z</time>
      </trkpt>
      <trkpt lat="48.93534" lon="2.02038">
        <ele>15.4</ele>
        <time>2022-04-19T10:20:57Z</time>
      </trkpt>
      <trkpt lat="48.93533" lon="2.02029">
        <ele>16.9</ele>
        <time>2022-04-19T10:21:01Z</time>
      </trkpt>
      <trkpt lat="48.93532" lon="2.02022">
        <ele>16.9</ele>
        <time>2022-04-19T10:21:04Z</time>
      </trkpt>
      <trkpt lat="48.93532" lon="2.02013">
        <ele>16.9</ele>
        <time>2022-04-19T10:21:08Z</time>
      </trkpt>
      <trkpt lat="48.93531" lon="2.02005">
        <ele>16.9</ele>
        <time>2022-04-19T10:21:11Z</time>
      </trkpt>
      <trkpt lat="48.93515" lon="2.01981">
        <ele>21.1</ele>
        <time>2022-04-19T10:21:50Z</time>
      </trkpt>
      <trkpt lat="48.93506" lon="2.01946">
        <ele>28</ele>
        <time>2022-04-19T10:21:51Z</time>
      </trkpt>
      <trkpt lat="48.93504" lon="2.01939">
        <ele>19.6</ele>
        <time>2022-04-19T10:21:54Z</time>
      </trkpt>
      <trkpt lat="48.935" lon="2.01934">
        <ele>16.5</ele>
        <time>2022-04-19T10:21:59Z</time>
      </trkpt>
      <trkpt lat="48.93496" lon="2.0193">
        <ele>15.7</ele>
        <time>2022-04-19T10:22:02Z</time>
      </trkpt>
      <trkpt lat="48.93493" lon="2.01923">
        <ele>13.9</ele>
        <time>2022-04-19T10:22:06Z</time>
      </trkpt>
      <trkpt lat="48.9349" lon="2.01915">
        <ele>14</ele>
        <time>2022-04-19T10:22:10Z</time>
      </trkpt>
      <trkpt lat="48.93487" lon="2.01908">
        <ele>14</ele>
        <time>2022-04-19T10:22:14Z</time>
      </trkpt>
      <trkpt lat="48.93484" lon="2.01902">
        <ele>14.5</ele>
        <time>2022-04-19T10:22:17Z</time>
      </trkpt>
      <trkpt lat="48.93482" lon="2.01894">
        <ele>15</ele>
        <time>2022-04-19T10:22:22Z</time>
      </trkpt>
      <trkpt lat="48.93479" lon="2.01888">
        <ele>14.1</ele>
        <time>2022-04-19T10:22:27Z</time>
      </trkpt>
      <trkpt lat="48.93476" lon="2.01881">
        <ele>15</ele>
        <time>2022-04-19T10:22:31Z</time>
      </trkpt>
      <trkpt lat="48.93474" lon="2.01875">
        <ele>14.7</ele>
        <time>2022-04-19T10:22:35Z</time>
      </trkpt>
      <trkpt lat="48.93472" lon="2.01867">
        <ele>15.2</ele>
        <time>2022-04-19T10:22:39Z</time>
      </trkpt>
      <trkpt lat="48.93469" lon="2.0186">
        <ele>15.2</ele>
        <time>2022-04-19T10:22:43Z</time>
      </trkpt>
      <trkpt lat="48.93467" lon="2.01853">
        <ele>12.4</ele>
        <time>2022-04-19T10:22:47Z</time>
      </trkpt>
      <trkpt lat="48.93465" lon="2.01847">
        <ele>12.6</ele>
        <time>2022-04-19T10:22:51Z</time>
      </trkpt>
      <trkpt lat="48.93463" lon="2.01841">
        <ele>12.4</ele>
        <time>2022-04-19T10:22:54Z</time>
      </trkpt>
      <trkpt lat="48.9346" lon="2.01833">
        <ele>14.5</ele>
        <time>2022-04-19T10:22:59Z</time>
      </trkpt>
      <trkpt lat="48.93457" lon="2.01825">
        <ele>12.8</ele>
        <time>2022-04-19T10:23:03Z</time>
      </trkpt>
      <trkpt lat="48.93456" lon="2.01817">
        <ele>12.5</ele>
        <time>2022-04-19T10:23:08Z</time>
      </trkpt>
      <trkpt lat="48.93453" lon="2.01811">
        <ele>11.8</ele>
        <time>2022-04-19T10:23:11Z</time>
      </trkpt>
      <trkpt lat="48.93451" lon="2.01804">
        <ele>13.4</ele>
        <time>2022-04-19T10:23:15Z</time>
      </trkpt>
      <trkpt lat="48.93451" lon="2.01796">
        <ele>13.1</ele>
        <time>2022-04-19T10:23:19Z</time>
      </trkpt>
      <trkpt lat="48.93452" lon="2.01789">
        <ele>13.8</ele>
        <time>2022-04-19T10:23:23Z</time>
      </trkpt>
      <trkpt lat="48.93455" lon="2.01782">
        <ele>14.1</ele>
        <time>2022-04-19T10:23:26Z</time>
      </trkpt>
      <trkpt lat="48.93458" lon="2.01777">
        <ele>13.5</ele>
        <time>2022-04-19T10:23:30Z</time>
      </trkpt>
      <trkpt lat="48.93462" lon="2.01772">
        <ele>12.6</ele>
        <time>2022-04-19T10:23:34Z</time>
      </trkpt>
      <trkpt lat="48.93465" lon="2.01766">
        <ele>12.4</ele>
        <time>2022-04-19T10:23:38Z</time>
      </trkpt>
      <trkpt lat="48.93469" lon="2.01761">
        <ele>10.8</ele>
        <time>2022-04-19T10:23:42Z</time>
      </trkpt>
      <trkpt lat="48.93471" lon="2.01753">
        <ele>14.5</ele>
        <time>2022-04-19T10:23:47Z</time>
      </trkpt>
      <trkpt lat="48.93474" lon="2.01748">
        <ele>15.2</ele>
        <time>2022-04-19T10:23:51Z</time>
      </trkpt>
      <trkpt lat="48.93478" lon="2.01744">
        <ele>14.7</ele>
        <time>2022-04-19T10:23:54Z</time>
      </trkpt>
      <trkpt lat="48.93482" lon="2.01738">
        <ele>16.2</ele>
        <time>2022-04-19T10:23:58Z</time>
      </trkpt>
      <trkpt lat="48.93485" lon="2.01733">
        <ele>17.3</ele>
        <time>2022-04-19T10:24:01Z</time>
      </trkpt>
      <trkpt lat="48.93489" lon="2.01728">
        <ele>18</ele>
        <time>2022-04-19T10:24:04Z</time>
      </trkpt>
      <trkpt lat="48.93491" lon="2.01722">
        <ele>17.2</ele>
        <time>2022-04-19T10:24:08Z</time>
      </trkpt>
      <trkpt lat="48.93495" lon="2.01716">
        <ele>17.6</ele>
        <time>2022-04-19T10:24:12Z</time>
      </trkpt>
      <trkpt lat="48.93498" lon="2.01711">
        <ele>16.6</ele>
        <time>2022-04-19T10:24:15Z</time>
      </trkpt>
      <trkpt lat="48.93501" lon="2.01705">
        <ele>16.2</ele>
        <time>2022-04-19T10:24:18Z</time>
      </trkpt>
      <trkpt lat="48.93504" lon="2.01699">
        <ele>15.6</ele>
        <time>2022-04-19T10:24:22Z</time>
      </trkpt>
      <trkpt lat="48.93507" lon="2.01692">
        <ele>15.4</ele>
        <time>2022-04-19T10:24:26Z</time>
      </trkpt>
      <trkpt lat="48.9351" lon="2.01685">
        <ele>15</ele>
        <time>2022-04-19T10:24:30Z</time>
      </trkpt>
      <trkpt lat="48.93513" lon="2.01679">
        <ele>16.2</ele>
        <time>2022-04-19T10:24:34Z</time>
      </trkpt>
      <trkpt lat="48.93516" lon="2.01673">
        <ele>16.6</ele>
        <time>2022-04-19T10:24:38Z</time>
      </trkpt>
      <trkpt lat="48.93519" lon="2.01668">
        <ele>16.7</ele>
        <time>2022-04-19T10:24:42Z</time>
      </trkpt>
      <trkpt lat="48.93522" lon="2.01663">
        <ele>17.4</ele>
        <time>2022-04-19T10:24:46Z</time>
      </trkpt>
      <trkpt lat="48.93526" lon="2.01656">
        <ele>16.1</ele>
        <time>2022-04-19T10:24:50Z</time>
      </trkpt>
      <trkpt lat="48.9353" lon="2.01649">
        <ele>14.6</ele>
        <time>2022-04-19T10:24:55Z</time>
      </trkpt>
      <trkpt lat="48.93533" lon="2.01644">
        <ele>14.4</ele>
        <time>2022-04-19T10:24:58Z</time>
      </trkpt>
      <trkpt lat="48.93537" lon="2.01637">
        <ele>13.9</ele>
        <time>2022-04-19T10:25:02Z</time>
      </trkpt>
      <trkpt lat="48.9354" lon="2.01631">
        <ele>13.9</ele>
        <time>2022-04-19T10:25:05Z</time>
      </trkpt>
      <trkpt lat="48.93544" lon="2.01626">
        <ele>13.9</ele>
        <time>2022-04-19T10:25:08Z</time>
      </trkpt>
      <trkpt lat="48.93539" lon="2.01632">
        <ele>13.9</ele>
        <time>2022-04-19T10:25:09Z</time>
      </trkpt>
      <trkpt lat="48.936" lon="2.01534">
        <ele>15.7</ele>
        <time>2022-04-19T10:26:20Z</time>
      </trkpt>
      <trkpt lat="48.93603" lon="2.01527">
        <ele>16.2</ele>
        <time>2022-04-19T10:26:21Z</time>
      </trkpt>
      <trkpt lat="48.93606" lon="2.01522">
        <ele>15.2</ele>
        <time>2022-04-19T10:26:24Z</time>
      </trkpt>
      <trkpt lat="48.9361" lon="2.01515">
        <ele>14.1</ele>
        <time>2022-04-19T10:26:28Z</time>
      </trkpt>
      <trkpt lat="48.93613" lon="2.01509">
        <ele>12.7</ele>
        <time>2022-04-19T10:26:31Z</time>
      </trkpt>
      <trkpt lat="48.93617" lon="2.01503">
        <ele>13.2</ele>
        <time>2022-04-19T10:26:34Z</time>
      </trkpt>
      <trkpt lat="48.9362" lon="2.01497">
        <ele>15.2</ele>
        <time>2022-04-19T10:26:37Z</time>
      </trkpt>
      <trkpt lat="48.93622" lon="2.01491">
        <ele>15.3</ele>
        <time>2022-04-19T10:26:41Z</time>
      </trkpt>
      <trkpt lat="48.93625" lon="2.01484">
        <ele>14.5</ele>
        <time>2022-04-19T10:26:45Z</time>
      </trkpt>
      <trkpt lat="48.93628" lon="2.01478">
        <ele>15</ele>
        <time>2022-04-19T10:26:49Z</time>
      </trkpt>
      <trkpt lat="48.93632" lon="2.01475">
        <ele>14.8</ele>
        <time>2022-04-19T10:26:53Z</time>
      </trkpt>
      <trkpt lat="48.93637" lon="2.01473">
        <ele>14.2</ele>
        <time>2022-04-19T10:26:56Z</time>
      </trkpt>
      <trkpt lat="48.93642" lon="2.0147">
        <ele>13.7</ele>
        <time>2022-04-19T10:27:00Z</time>
      </trkpt>
      <trkpt lat="48.93647" lon="2.01467">
        <ele>14.1</ele>
        <time>2022-04-19T10:27:04Z</time>
      </trkpt>
      <trkpt lat="48.93651" lon="2.01464">
        <ele>14.9</ele>
        <time>2022-04-19T10:27:08Z</time>
      </trkpt>
      <trkpt lat="48.93656" lon="2.01461">
        <ele>14.3</ele>
        <time>2022-04-19T10:27:12Z</time>
      </trkpt>
      <trkpt lat="48.93661" lon="2.01456">
        <ele>13.8</ele>
        <time>2022-04-19T10:27:17Z</time>
      </trkpt>
      <trkpt lat="48.93664" lon="2.0145">
        <ele>14.6</ele>
        <time>2022-04-19T10:27:22Z</time>
      </trkpt>
      <trkpt lat="48.93668" lon="2.01449">
        <ele>15.5</ele>
        <time>2022-04-19T10:27:28Z</time>
      </trkpt>
      <trkpt lat="48.93674" lon="2.01445">
        <ele>14.9</ele>
        <time>2022-04-19T10:27:33Z</time>
      </trkpt>
      <trkpt lat="48.93678" lon="2.01442">
        <ele>15.2</ele>
        <time>2022-04-19T10:27:37Z</time>
      </trkpt>
      <trkpt lat="48.93683" lon="2.01438">
        <ele>14.4</ele>
        <time>2022-04-19T10:27:41Z</time>
      </trkpt>
      <trkpt lat="48.93688" lon="2.01435">
        <ele>14.3</ele>
        <time>2022-04-19T10:27:46Z</time>
      </trkpt>
      <trkpt lat="48.93693" lon="2.01432">
        <ele>14</ele>
        <time>2022-04-19T10:27:49Z</time>
      </trkpt>
      <trkpt lat="48.93698" lon="2.01428">
        <ele>13.7</ele>
        <time>2022-04-19T10:27:54Z</time>
      </trkpt>
      <trkpt lat="48.93703" lon="2.01425">
        <ele>14.3</ele>
        <time>2022-04-19T10:27:58Z</time>
      </trkpt>
      <trkpt lat="48.93707" lon="2.01422">
        <ele>14.9</ele>
        <time>2022-04-19T10:28:02Z</time>
      </trkpt>
      <trkpt lat="48.93712" lon="2.0142">
        <ele>15.1</ele>
        <time>2022-04-19T10:28:06Z</time>
      </trkpt>
      <trkpt lat="48.93717" lon="2.01415">
        <ele>14.6</ele>
        <time>2022-04-19T10:28:10Z</time>
      </trkpt>
      <trkpt lat="48.93721" lon="2.01411">
        <ele>15.6</ele>
        <time>2022-04-19T10:28:14Z</time>
      </trkpt>
      <trkpt lat="48.93727" lon="2.01407">
        <ele>16.3</ele>
        <time>2022-04-19T10:28:17Z</time>
      </trkpt>
      <trkpt lat="48.93732" lon="2.01404">
        <ele>16.8</ele>
        <time>2022-04-19T10:28:21Z</time>
      </trkpt>
      <trkpt lat="48.93737" lon="2.014">
        <ele>16.7</ele>
        <time>2022-04-19T10:28:25Z</time>
      </trkpt>
      <trkpt lat="48.93741" lon="2.01398">
        <ele>15.9</ele>
        <time>2022-04-19T10:28:29Z</time>
      </trkpt>
      <trkpt lat="48.93746" lon="2.01394">
        <ele>16.2</ele>
        <time>2022-04-19T10:28:33Z</time>
      </trkpt>
      <trkpt lat="48.93751" lon="2.01391">
        <ele>15.2</ele>
        <time>2022-04-19T10:28:37Z</time>
      </trkpt>
      <trkpt lat="48.93755" lon="2.01388">
        <ele>15.8</ele>
        <time>2022-04-19T10:28:41Z</time>
      </trkpt>
      <trkpt lat="48.9376" lon="2.01384">
        <ele>13.8</ele>
        <time>2022-04-19T10:28:46Z</time>
      </trkpt>
      <trkpt lat="48.93765" lon="2.0138">
        <ele>15.4</ele>
        <time>2022-04-19T10:28:50Z</time>
      </trkpt>
      <trkpt lat="48.93769" lon="2.01376">
        <ele>15.7</ele>
        <time>2022-04-19T10:28:54Z</time>
      </trkpt>
      <trkpt lat="48.93772" lon="2.01371">
        <ele>14.4</ele>
        <time>2022-04-19T10:28:58Z</time>
      </trkpt>
      <trkpt lat="48.93777" lon="2.01366">
        <ele>14.3</ele>
        <time>2022-04-19T10:29:02Z</time>
      </trkpt>
      <trkpt lat="48.93781" lon="2.01362">
        <ele>14.5</ele>
        <time>2022-04-19T10:29:06Z</time>
      </trkpt>
      <trkpt lat="48.93785" lon="2.01358">
        <ele>15.9</ele>
        <time>2022-04-19T10:29:09Z</time>
      </trkpt>
      <trkpt lat="48.9379" lon="2.01353">
        <ele>17</ele>
        <time>2022-04-19T10:29:13Z</time>
      </trkpt>
      <trkpt lat="48.93794" lon="2.01349">
        <ele>16.4</ele>
        <time>2022-04-19T10:29:17Z</time>
      </trkpt>
      <trkpt lat="48.93799" lon="2.01345">
        <ele>17.1</ele>
        <time>2022-04-19T10:29:21Z</time>
      </trkpt>
      <trkpt lat="48.93803" lon="2.0134">
        <ele>17.7</ele>
        <time>2022-04-19T10:29:25Z</time>
      </trkpt>
      <trkpt lat="48.93808" lon="2.01335">
        <ele>18.8</ele>
        <time>2022-04-19T10:29:29Z</time>
      </trkpt>
      <trkpt lat="48.93813" lon="2.01331">
        <ele>18.6</ele>
        <time>2022-04-19T10:29:33Z</time>
      </trkpt>
      <trkpt lat="48.93817" lon="2.01327">
        <ele>17.4</ele>
        <time>2022-04-19T10:29:37Z</time>
      </trkpt>
      <trkpt lat="48.93821" lon="2.01322">
        <ele>16.7</ele>
        <time>2022-04-19T10:29:41Z</time>
      </trkpt>
      <trkpt lat="48.93825" lon="2.01318">
        <ele>16</ele>
        <time>2022-04-19T10:29:45Z</time>
      </trkpt>
      <trkpt lat="48.9383" lon="2.01312">
        <ele>16.6</ele>
        <time>2022-04-19T10:29:50Z</time>
      </trkpt>
      <trkpt lat="48.93834" lon="2.01307">
        <ele>16.6</ele>
        <time>2022-04-19T10:29:55Z</time>
      </trkpt>
      <trkpt lat="48.93838" lon="2.01302">
        <ele>16.8</ele>
        <time>2022-04-19T10:29:59Z</time>
      </trkpt>
      <trkpt lat="48.93842" lon="2.01296">
        <ele>17.3</ele>
        <time>2022-04-19T10:30:04Z</time>
      </trkpt>
      <trkpt lat="48.93847" lon="2.01292">
        <ele>18.3</ele>
        <time>2022-04-19T10:30:08Z</time>
      </trkpt>
      <trkpt lat="48.93852" lon="2.01287">
        <ele>18.1</ele>
        <time>2022-04-19T10:30:13Z</time>
      </trkpt>
      <trkpt lat="48.93856" lon="2.01283">
        <ele>18.1</ele>
        <time>2022-04-19T10:30:17Z</time>
      </trkpt>
      <trkpt lat="48.93859" lon="2.01278">
        <ele>19.8</ele>
        <time>2022-04-19T10:30:21Z</time>
      </trkpt>
      <trkpt lat="48.93863" lon="2.01272">
        <ele>19.4</ele>
        <time>2022-04-19T10:30:25Z</time>
      </trkpt>
      <trkpt lat="48.93867" lon="2.01267">
        <ele>18.6</ele>
        <time>2022-04-19T10:30:29Z</time>
      </trkpt>
      <trkpt lat="48.93872" lon="2.01262">
        <ele>18</ele>
        <time>2022-04-19T10:30:34Z</time>
      </trkpt>
      <trkpt lat="48.93876" lon="2.01259">
        <ele>19.8</ele>
        <time>2022-04-19T10:30:38Z</time>
      </trkpt>
      <trkpt lat="48.93881" lon="2.01262">
        <ele>19.7</ele>
        <time>2022-04-19T10:30:43Z</time>
      </trkpt>
      <trkpt lat="48.93886" lon="2.01265">
        <ele>19.3</ele>
        <time>2022-04-19T10:30:47Z</time>
      </trkpt>
      <trkpt lat="48.93891" lon="2.01268">
        <ele>21</ele>
        <time>2022-04-19T10:30:51Z</time>
      </trkpt>
      <trkpt lat="48.93895" lon="2.0127">
        <ele>19.5</ele>
        <time>2022-04-19T10:30:55Z</time>
      </trkpt>
      <trkpt lat="48.93901" lon="2.0127">
        <ele>18.9</ele>
        <time>2022-04-19T10:30:59Z</time>
      </trkpt>
      <trkpt lat="48.93906" lon="2.01266">
        <ele>18</ele>
        <time>2022-04-19T10:31:03Z</time>
      </trkpt>
      <trkpt lat="48.9391" lon="2.01261">
        <ele>18.5</ele>
        <time>2022-04-19T10:31:07Z</time>
      </trkpt>
      <trkpt lat="48.93914" lon="2.01257">
        <ele>19.1</ele>
        <time>2022-04-19T10:31:11Z</time>
      </trkpt>
      <trkpt lat="48.93919" lon="2.01255">
        <ele>19.1</ele>
        <time>2022-04-19T10:31:15Z</time>
      </trkpt>
      <trkpt lat="48.93923" lon="2.01252">
        <ele>19.9</ele>
        <time>2022-04-19T10:31:18Z</time>
      </trkpt>
      <trkpt lat="48.93927" lon="2.01248">
        <ele>19.4</ele>
        <time>2022-04-19T10:31:22Z</time>
      </trkpt>
      <trkpt lat="48.93932" lon="2.01244">
        <ele>18.5</ele>
        <time>2022-04-19T10:31:26Z</time>
      </trkpt>
      <trkpt lat="48.93937" lon="2.0124">
        <ele>18.7</ele>
        <time>2022-04-19T10:31:30Z</time>
      </trkpt>
      <trkpt lat="48.93941" lon="2.01236">
        <ele>18.2</ele>
        <time>2022-04-19T10:31:34Z</time>
      </trkpt>
      <trkpt lat="48.93945" lon="2.01233">
        <ele>16.4</ele>
        <time>2022-04-19T10:31:38Z</time>
      </trkpt>
      <trkpt lat="48.9395" lon="2.01229">
        <ele>16.7</ele>
        <time>2022-04-19T10:31:42Z</time>
      </trkpt>
      <trkpt lat="48.93955" lon="2.01226">
        <ele>17.1</ele>
        <time>2022-04-19T10:31:47Z</time>
      </trkpt>
      <trkpt lat="48.9396" lon="2.01221">
        <ele>16.2</ele>
        <time>2022-04-19T10:31:52Z</time>
      </trkpt>
      <trkpt lat="48.93964" lon="2.01216">
        <ele>15.6</ele>
        <time>2022-04-19T10:31:56Z</time>
      </trkpt>
      <trkpt lat="48.93969" lon="2.01212">
        <ele>15.8</ele>
        <time>2022-04-19T10:32:00Z</time>
      </trkpt>
      <trkpt lat="48.93974" lon="2.01208">
        <ele>16</ele>
        <time>2022-04-19T10:32:05Z</time>
      </trkpt>
      <trkpt lat="48.93979" lon="2.01205">
        <ele>18</ele>
        <time>2022-04-19T10:32:09Z</time>
      </trkpt>
      <trkpt lat="48.93984" lon="2.01201">
        <ele>19</ele>
        <time>2022-04-19T10:32:14Z</time>
      </trkpt>
      <trkpt lat="48.93988" lon="2.01197">
        <ele>18.6</ele>
        <time>2022-04-19T10:32:18Z</time>
      </trkpt>
      <trkpt lat="48.93993" lon="2.01192">
        <ele>16</ele>
        <time>2022-04-19T10:32:23Z</time>
      </trkpt>
      <trkpt lat="48.93998" lon="2.01188">
        <ele>16.1</ele>
        <time>2022-04-19T10:32:27Z</time>
      </trkpt>
      <trkpt lat="48.94003" lon="2.01184">
        <ele>17.1</ele>
        <time>2022-04-19T10:32:32Z</time>
      </trkpt>
      <trkpt lat="48.94008" lon="2.0118">
        <ele>18.1</ele>
        <time>2022-04-19T10:32:36Z</time>
      </trkpt>
      <trkpt lat="48.94013" lon="2.01176">
        <ele>17.6</ele>
        <time>2022-04-19T10:32:41Z</time>
      </trkpt>
      <trkpt lat="48.94017" lon="2.01172">
        <ele>18.2</ele>
        <time>2022-04-19T10:32:45Z</time>
      </trkpt>
      <trkpt lat="48.94022" lon="2.01169">
        <ele>16.3</ele>
        <time>2022-04-19T10:32:50Z</time>
      </trkpt>
      <trkpt lat="48.94027" lon="2.01165">
        <ele>16.2</ele>
        <time>2022-04-19T10:32:54Z</time>
      </trkpt>
      <trkpt lat="48.94033" lon="2.01166">
        <ele>16.6</ele>
        <time>2022-04-19T10:32:59Z</time>
      </trkpt>
      <trkpt lat="48.94038" lon="2.01167">
        <ele>17.1</ele>
        <time>2022-04-19T10:33:05Z</time>
      </trkpt>
      <trkpt lat="48.9404" lon="2.01159">
        <ele>14.4</ele>
        <time>2022-04-19T10:33:58Z</time>
      </trkpt>
      <trkpt lat="48.94044" lon="2.01154">
        <ele>16.4</ele>
        <time>2022-04-19T10:34:19Z</time>
      </trkpt>
      <trkpt lat="48.94049" lon="2.01153">
        <ele>15.4</ele>
        <time>2022-04-19T10:34:24Z</time>
      </trkpt>
      <trkpt lat="48.94054" lon="2.01151">
        <ele>15.5</ele>
        <time>2022-04-19T10:34:31Z</time>
      </trkpt>
      <trkpt lat="48.94059" lon="2.01151">
        <ele>15.4</ele>
        <time>2022-04-19T10:34:37Z</time>
      </trkpt>
      <trkpt lat="48.94064" lon="2.01148">
        <ele>14.4</ele>
        <time>2022-04-19T10:34:43Z</time>
      </trkpt>
      <trkpt lat="48.94068" lon="2.01145">
        <ele>14.1</ele>
        <time>2022-04-19T10:34:50Z</time>
      </trkpt>
      <trkpt lat="48.94072" lon="2.01142">
        <ele>14.1</ele>
        <time>2022-04-19T10:34:56Z</time>
      </trkpt>
      <trkpt lat="48.94077" lon="2.01138">
        <ele>14.4</ele>
        <time>2022-04-19T10:35:03Z</time>
      </trkpt>
    </trkseg>
  </trk>
</gpx>